[[{"header":{"parameterUnit":"m.s-1","parameterCategory":1,"la1":30.6,"la2":29.2853,"lo1":-89.7004,"lo2":-87.6739,"dy":0.0162,"dx":0.0183,"nx":112,"ny":82,"refTime":"2025-05-22T06:00:00:Z","depth":0,"parameterNumber":2,"parameterNumberName":"U-component_of_WINDS"},"data":[0.0,0.0,0.0,0.0,0.0,0.0,0.0,0.0,0.0,0.0,0.0,0.0,0.0,0.0,0.0,0.0,0.0,0.0,0.0,0.0,0.0,0.0,0.0,0.0,0.0,0.0,0.0,0.0,0.0,0.0,0.0,0.0,0.0,0.0,0.0,0.0,0.0,0.0,0.0,0.0,0.0,0.0,0.0,0.0,0.0,0.0,0.0,0.0,0.0,0.0,0.0,0.0,0.0,0.0,0.0,0.0,0.0,0.0,0.0,0.0,0.0,0.0,0.0,0.0,0.0,0.0,0.0,0.0,0.0,0.0,0.0,0.0,0.0,0.0,0.0,0.0,0.0,0.0,0.0,0.0,0.0,0.0,0.0,0.0,0.0,0.0,0.0,0.0,0.0,0.0,-1.057,-1.1945,-1.4013,-1.5184,-1.4894,-1.4828,-1.3718,-1.1121,0.0,0.0,0.0,0.0,0.0,0.0,0.0,0.0,0.0,0.0,0.0,0.0,0.0,0.0,0.0,0.0,0.0,0.0,0.0,0.0,0.0,0.0,0.0,0.0,0.0,0.0,0.0,0.0,0.0,0.0,0.0,0.0,0.0,0.0,0.0,0.0,0.0,0.0,0.0,0.0,0.0,0.0,0.0,0.0,0.0,0.0,0.0,0.0,0.0,0.0,0.0,0.0,0.0,0.0,0.0,0.0,0.0,0.0,0.0,0.0,0.0,0.0,0.0,0.0,0.0,0.0,0.0,0.0,0.0,0.0,0.0,0.0,0.0,0.0,0.0,0.0,0.0,0.0,0.0,0.0,0.0,0.0,0.0,0.0,0.0,0.0,0.0,0.0,0.0,0.0,0.0,0.0,0.0,0.0,0.0,0.0,0.0,0.0,0.0,0.0,0.0,0.0,0.0,0.0,-1.1187,-1.3637,-1.4732,-1.5285,-1.5228,-1.5013,-1.3963,-1.179,0.0,0.0,0.0,0.0,0.0,0.0,0.0,0.0,0.0,0.0,0.0,0.0,0.0,0.0,0.0,0.0,0.0,0.0,0.0,0.0,0.0,0.0,0.0,0.0,0.0,0.0,0.0,0.0,0.0,0.0,0.0,0.0,0.0,0.0,0.0,0.0,0.0,0.0,0.0,0.0,0.0,0.0,0.0,0.0,0.0,0.0,0.0,0.0,0.0,0.0,0.0,0.0,0.0,0.0,0.0,0.0,0.0,0.0,0.0,0.0,0.0,0.0,0.0,0.0,0.0,0.0,0.0,0.0,0.0,0.0,0.0,0.0,0.0,0.0,0.0,0.0,0.0,0.0,0.0,0.0,0.0,0.0,0.0,0.0,0.0,0.0,0.0,0.0,0.0,0.0,0.0,0.0,0.0,0.0,0.0,0.0,0.0,0.0,0.0,0.0,0.0,0.0,0.0,-1.0838,-1.2293,-1.4843,-1.5388,-1.558,-1.558,-1.5129,-1.3968,-1.1925,-1.1202,0.0,0.0,0.0,0.0,0.0,0.0,0.0,0.0,0.0,0.0,0.0,0.0,0.0,0.0,0.0,0.0,0.0,0.0,0.0,0.0,0.0,0.0,0.0,0.0,0.0,0.0,0.0,0.0,0.0,0.0,0.0,0.0,0.0,0.0,0.0,0.0,0.0,0.0,0.0,0.0,0.0,0.0,0.0,0.0,0.0,0.0,0.0,0.0,0.0,0.0,0.0,0.0,0.0,0.0,0.0,0.0,0.0,0.0,0.0,0.0,0.0,0.0,0.0,0.0,0.0,0.0,0.0,0.0,0.0,0.0,0.0,0.0,0.0,0.0,0.0,0.0,0.0,0.0,0.0,0.0,0.0,0.0,0.0,0.0,0.0,0.0,0.0,0.0,0.0,0.0,0.0,0.0,0.0,0.0,0.0,0.0,0.0,0.0,0.0,0.0,0.0,0.0,-1.2422,-1.3569,-1.5771,-1.5888,-1.5858,-1.6009,-1.5125,-1.3765,-1.1925,-1.1032,0.0,0.0,0.0,0.0,0.0,0.0,0.0,0.0,0.0,0.0,0.0,0.0,0.0,0.0,0.0,0.0,0.0,0.0,0.0,0.0,0.0,0.0,0.0,0.0,0.0,0.0,0.0,0.0,0.0,0.0,0.0,0.0,0.0,0.0,0.0,0.0,0.0,0.0,0.0,0.0,0.0,0.0,0.0,0.0,0.0,0.0,0.0,0.0,0.0,0.0,0.0,0.0,0.0,0.0,0.0,0.0,0.0,0.0,0.0,0.0,0.0,0.0,0.0,0.0,0.0,0.0,0.0,0.0,0.0,0.0,0.0,0.0,0.0,0.0,0.0,0.0,0.0,0.0,0.0,0.0,0.0,0.0,0.0,0.0,0.0,0.0,0.0,0.0,0.0,0.0,0.0,0.0,0.0,0.0,0.0,0.0,0.0,0.0,0.0,0.0,0.0,0.0,-1.305,-1.4861,-1.6472,-1.6129,-1.6039,-1.6592,-1.4948,-1.3286,-1.1895,-1.0638,0.0,0.0,0.0,0.0,0.0,0.0,0.0,0.0,0.0,0.0,0.0,0.0,0.0,0.0,0.0,0.0,0.0,0.0,0.0,0.0,0.0,0.0,0.0,0.0,0.0,0.0,0.0,0.0,0.0,0.0,0.0,0.0,0.0,0.0,0.0,0.0,0.0,0.0,0.0,0.0,0.0,0.0,0.0,0.0,0.0,0.0,0.0,0.0,0.0,0.0,0.0,0.0,0.0,0.0,0.0,0.0,0.0,0.0,0.0,0.0,0.0,0.0,0.0,0.0,0.0,0.0,0.0,0.0,0.0,0.0,0.0,0.0,0.0,0.0,0.0,0.0,0.0,0.0,0.0,0.0,0.0,0.0,0.0,0.0,0.0,0.0,0.0,0.0,0.0,0.0,0.0,0.0,0.0,0.0,0.0,0.0,0.0,0.0,0.0,0.0,0.0,0.0,-1.3226,-1.5036,0.0,-1.6502,-1.6443,-1.6681,-1.5681,-1.4122,-1.1939,0.0,0.0,0.0,0.0,0.0,0.0,0.0,0.0,0.0,0.0,0.0,0.0,0.0,0.0,0.0,0.0,0.0,0.0,0.0,0.0,0.0,0.0,0.0,0.0,0.0,0.0,0.0,0.0,0.0,0.0,0.0,0.0,0.0,0.0,0.0,0.0,0.0,0.0,0.0,0.0,0.0,0.0,0.0,0.0,0.0,0.0,0.0,0.0,0.0,0.0,0.0,0.0,0.0,0.0,0.0,0.0,0.0,0.0,0.0,0.0,0.0,0.0,0.0,0.0,0.0,0.0,0.0,0.0,0.0,0.0,0.0,0.0,0.0,0.0,0.0,0.0,0.0,0.0,0.0,0.0,0.0,0.0,0.0,0.0,0.0,0.0,0.0,0.0,0.0,0.0,0.0,0.0,0.0,0.0,0.0,0.0,0.0,0.0,0.0,0.0,0.0,0.0,-1.1465,-1.3709,-1.5669,0.0,-1.7025,-1.7025,-1.7025,-1.6069,-1.4421,-1.1954,0.0,0.0,0.0,0.0,0.0,0.0,0.0,0.0,0.0,0.0,0.0,0.0,0.0,0.0,0.0,0.0,0.0,0.0,0.0,0.0,0.0,0.0,0.0,0.0,0.0,0.0,0.0,0.0,0.0,0.0,0.0,0.0,0.0,0.0,0.0,0.0,0.0,0.0,0.0,0.0,0.0,0.0,0.0,0.0,0.0,0.0,0.0,0.0,0.0,0.0,0.0,0.0,0.0,0.0,0.0,0.0,0.0,0.0,0.0,0.0,0.0,0.0,0.0,0.0,0.0,0.0,0.0,0.0,0.0,0.0,0.0,0.0,0.0,0.0,0.0,0.0,0.0,0.0,0.0,0.0,0.0,0.0,0.0,0.0,0.0,0.0,0.0,0.0,0.0,0.0,0.0,0.0,0.0,0.0,0.0,0.0,0.0,0.0,0.0,0.0,0.0,0.0,-1.1604,-1.46,-1.698,-1.7654,-1.7697,-1.7697,-1.7713,-1.5934,-1.3972,0.0,0.0,0.0,0.0,0.0,0.0,0.0,0.0,0.0,0.0,0.0,0.0,0.0,0.0,0.0,0.0,0.0,0.0,0.0,0.0,0.0,0.0,0.0,0.0,0.0,0.0,0.0,0.0,0.0,0.0,0.0,0.0,0.0,0.0,0.0,0.0,0.0,0.0,0.0,0.0,0.0,0.0,0.0,0.0,0.0,0.0,0.0,0.0,0.0,0.0,0.0,0.0,0.0,0.0,0.0,0.0,0.0,0.0,0.0,0.0,0.0,0.0,0.0,0.0,0.0,0.0,0.0,0.0,0.0,0.0,0.0,0.0,0.0,0.0,0.0,0.0,0.0,0.0,0.0,0.0,0.0,0.0,0.0,0.0,0.0,0.0,0.0,0.0,0.0,0.0,0.0,0.0,0.0,0.0,0.0,0.0,0.0,0.0,0.0,0.0,0.0,0.0,0.0,-1.2402,-1.5353,-1.7652,-1.8326,-1.8418,-1.8207,-1.7743,-1.6741,-1.4903,-1.1984,0.0,0.0,0.0,0.0,0.0,0.0,0.0,0.0,0.0,0.0,0.0,0.0,0.0,0.0,0.0,0.0,0.0,0.0,0.0,0.0,0.0,0.0,0.0,0.0,0.0,0.0,0.0,0.0,0.0,0.0,0.0,0.0,0.0,0.0,0.0,0.0,0.0,0.0,0.0,0.0,0.0,0.0,0.0,0.0,0.0,0.0,0.0,0.0,0.0,0.0,0.0,0.0,0.0,0.0,0.0,0.0,0.0,0.0,0.0,0.0,0.0,0.0,0.0,0.0,0.0,0.0,0.0,0.0,0.0,0.0,0.0,0.0,0.0,0.0,0.0,0.0,0.0,0.0,0.0,0.0,0.0,0.0,0.0,0.0,0.0,0.0,0.0,0.0,0.0,0.0,0.0,0.0,0.0,0.0,0.0,0.0,0.0,0.0,0.0,0.0,0.0,0.0,-1.3089,-1.583,-1.7968,-1.8627,-1.8942,-1.8837,-1.8147,-1.7473,-1.5844,-1.2901,0.0,0.0,0.0,0.0,0.0,0.0,0.0,0.0,0.0,0.0,0.0,0.0,0.0,0.0,0.0,0.0,0.0,0.0,0.0,0.0,0.0,0.0,0.0,0.0,0.0,0.0,0.0,0.0,0.0,0.0,0.0,0.0,0.0,0.0,0.0,0.0,0.0,0.0,0.0,0.0,0.0,0.0,0.0,0.0,0.0,0.0,0.0,0.0,0.0,0.0,0.0,0.0,0.0,0.0,0.0,0.0,0.0,0.0,0.0,0.0,0.0,0.0,0.0,0.0,0.0,0.0,0.0,0.0,0.0,0.0,0.0,0.0,0.0,0.0,0.0,0.0,0.0,0.0,0.0,0.0,0.0,0.0,0.0,0.0,0.0,0.0,0.0,0.0,0.0,0.0,0.0,0.0,0.0,0.0,0.0,0.0,0.0,0.0,0.0,0.0,0.0,0.0,-1.3707,-1.6129,-1.7983,-1.8717,-1.9348,-1.9438,-1.8762,-1.8087,-1.6683,-1.4307,0.0,0.0,0.0,0.0,0.0,0.0,0.0,0.0,0.0,0.0,0.0,0.0,0.0,0.0,0.0,0.0,0.0,0.0,0.0,0.0,0.0,0.0,0.0,0.0,0.0,0.0,0.0,0.0,0.0,0.0,0.0,0.0,0.0,0.0,0.0,0.0,0.0,0.0,0.0,0.0,0.0,0.0,0.0,0.0,0.0,0.0,0.0,0.0,0.0,0.0,0.0,0.0,0.0,0.0,0.0,0.0,0.0,0.0,0.0,0.0,-1.4458,0.0,0.0,0.0,0.0,0.0,0.0,0.0,0.0,0.0,0.0,0.0,0.0,0.0,0.0,0.0,0.0,0.0,0.0,0.0,0.0,0.0,0.0,0.0,0.0,0.0,0.0,0.0,0.0,0.0,0.0,0.0,0.0,0.0,0.0,0.0,0.0,0.0,0.0,0.0,0.0,0.0,-1.4348,-1.6398,-1.8162,-1.9346,-1.9618,-1.9438,-1.8762,-1.8087,-1.6817,-1.4788,-1.3541,0.0,0.0,0.0,0.0,0.0,0.0,0.0,0.0,0.0,0.0,0.0,0.0,0.0,0.0,0.0,0.0,0.0,0.0,0.0,0.0,0.0,0.0,0.0,0.0,0.0,0.0,0.0,0.0,0.0,0.0,0.0,0.0,0.0,0.0,0.0,0.0,0.0,0.0,0.0,0.0,0.0,0.0,0.0,0.0,0.0,0.0,0.0,0.0,0.0,0.0,0.0,0.0,0.0,0.0,0.0,0.0,0.0,0.0,0.0,0.0,-1.5797,0.0,0.0,0.0,0.0,0.0,0.0,0.0,0.0,0.0,0.0,0.0,0.0,0.0,0.0,0.0,0.0,0.0,0.0,0.0,0.0,0.0,0.0,0.0,0.0,0.0,0.0,0.0,0.0,0.0,0.0,0.0,0.0,0.0,0.0,0.0,0.0,0.0,0.0,0.0,0.0,-1.5411,-1.716,-1.8565,-1.9588,-1.9708,-1.9573,-1.9211,-1.8568,-1.7538,-1.6002,-1.4693,0.0,0.0,0.0,0.0,0.0,0.0,0.0,0.0,0.0,0.0,0.0,0.0,0.0,0.0,0.0,0.0,0.0,0.0,0.0,0.0,0.0,0.0,0.0,0.0,0.0,0.0,0.0,0.0,0.0,0.0,0.0,0.0,0.0,0.0,0.0,0.0,0.0,0.0,0.0,0.0,0.0,0.0,0.0,0.0,0.0,0.0,0.0,0.0,0.0,0.0,0.0,0.0,0.0,-2.1434,-2.2644,-2.3107,-2.3767,-2.4365,-2.4643,-2.0387,-1.8968,-1.9519,-1.745,0.0,0.0,0.0,0.0,0.0,0.0,0.0,0.0,0.0,0.0,0.0,0.0,0.0,0.0,0.0,0.0,0.0,0.0,0.0,0.0,0.0,0.0,0.0,0.0,-1.7161,-1.6962,-1.4742,0.0,0.0,0.0,0.0,0.0,0.0,0.0,0.0,0.0,0.0,0.0,-1.6578,-1.8002,-1.8991,-1.9651,-1.9726,-1.9708,-1.9708,-1.9091,-1.8277,-1.7258,-1.5822,-1.425,0.0,0.0,0.0,0.0,0.0,0.0,0.0,0.0,0.0,0.0,0.0,0.0,0.0,0.0,0.0,0.0,0.0,0.0,0.0,0.0,0.0,0.0,0.0,0.0,0.0,0.0,0.0,0.0,0.0,0.0,0.0,0.0,-1.1441,-1.2117,0.0,0.0,0.0,0.0,0.0,0.0,0.0,0.0,0.0,0.0,0.0,0.0,0.0,-2.0247,-2.1683,-2.3278,-2.4379,-2.4962,-2.5906,-2.6307,-2.6213,-2.6315,-2.6385,-2.637,-2.5692,0.0,-2.2682,-2.1106,0.0,0.0,0.0,0.0,0.0,0.0,0.0,0.0,0.0,0.0,0.0,0.0,0.0,0.0,0.0,0.0,0.0,0.0,0.0,0.0,0.0,0.0,-1.9501,-1.9009,-1.8963,-1.8932,-1.8562,-1.6607,-1.4858,-1.4617,-1.3627,-1.273,0.0,0.0,0.0,0.0,0.0,0.0,-1.747,-1.8485,-1.9161,-1.9737,-1.978,-1.9762,-1.9708,-1.9091,-1.8388,-1.7672,-1.656,-1.5272,-1.3803,-1.2573,0.0,0.0,0.0,0.0,0.0,0.0,0.0,0.0,0.0,0.0,0.0,0.0,0.0,0.0,0.0,0.0,0.0,0.0,0.0,0.0,0.0,0.0,0.0,0.0,0.0,0.0,0.0,0.0,0.0,-1.2203,-1.3459,-1.3759,-1.4166,-1.4253,0.0,0.0,0.0,0.0,0.0,0.0,0.0,0.0,0.0,-2.1723,-2.2856,-2.3978,-2.5056,-2.6592,-2.7484,-2.776,-2.8901,-2.9614,-2.9876,-2.9876,-3.0095,-3.0412,-2.9583,-2.867,-2.7537,-2.4355,-2.2849,-2.2344,0.0,0.0,0.0,0.0,-1.9192,-1.8631,-1.9641,-1.9387,-1.8546,-1.81,0.0,0.0,0.0,0.0,0.0,0.0,0.0,-1.7884,0.0,0.0,-2.0872,-2.0965,-2.098,-2.098,-2.098,-1.9748,-1.8161,0.0,-1.5812,-1.5034,-1.3836,0.0,0.0,0.0,0.0,-1.629,-1.8242,-1.9038,-1.9481,-1.9714,-1.9744,-1.9726,-1.9708,-1.9438,-1.9021,-1.8412,-1.7497,-1.6426,-1.5125,-1.3946,-1.2603,0.0,0.0,0.0,0.0,0.0,0.0,0.0,0.0,0.0,0.0,0.0,0.0,0.0,0.0,0.0,0.0,0.0,0.0,0.0,0.0,0.0,0.0,0.0,0.0,0.0,0.0,0.0,0.0,-1.379,-1.5297,-1.5884,-1.6597,-1.6839,0.0,0.0,0.0,0.0,0.0,0.0,-2.1609,-2.313,-2.4552,-2.5787,-2.6617,-2.7503,-2.839,-2.9571,-3.0185,-3.0257,-3.138,-3.2156,-3.2581,-3.2581,-3.2882,-3.3339,-3.2239,-3.1765,-3.1427,-2.7114,-2.5354,-2.5152,-2.3323,-2.2759,-2.2969,-2.2701,-2.2328,-2.2066,-2.2857,-2.2645,-2.1904,-2.0888,-2.035,-1.9749,-1.8038,0.0,0.0,0.0,0.0,-1.9499,-2.0549,-2.118,-2.1689,-2.2178,-2.2305,-2.2305,-2.2305,-2.192,-2.0903,0.0,-1.7976,-1.7254,-1.5733,0.0,0.0,0.0,0.0,-1.7712,-1.9079,-1.9584,-1.98,-1.98,-1.9762,-1.9726,-1.9726,-1.9708,-1.9459,-1.8882,-1.8138,-1.7237,-1.6142,-1.499,-1.3724,-1.2343,0.0,0.0,0.0,0.0,0.0,0.0,0.0,0.0,0.0,0.0,0.0,0.0,0.0,0.0,0.0,0.0,0.0,0.0,0.0,0.0,0.0,0.0,0.0,0.0,0.0,0.0,0.0,0.0,0.0,-1.8821,-1.9723,0.0,0.0,0.0,0.0,-2.225,-2.301,-2.4084,-2.5632,-2.6975,-2.8083,-2.8847,-2.9721,-3.083,-3.2213,-3.2541,-3.2936,-3.3369,-3.3523,-3.3512,-3.3339,-3.3339,-3.3372,-3.3406,-3.3322,-3.3288,-3.3,-2.9193,-2.7638,-2.7553,-2.6742,-2.6236,-2.6011,-2.6303,-2.573,-2.4849,-2.5204,-2.4815,-2.4148,-2.4071,-2.3179,-2.2012,-2.1273,-2.1042,0.0,0.0,-2.1581,-2.2101,-2.2178,-2.2228,-2.2274,-2.2289,-2.2305,-2.2305,-2.2305,-2.2255,-2.2028,0.0,-2.0073,-1.9115,-1.8894,0.0,-1.7395,-1.8709,-1.8465,-1.8635,-2.0054,-2.0152,-2.008,-2.008,-1.9904,-1.978,-1.978,-1.9744,-1.9423,-1.8747,-1.8125,-1.7449,-1.6697,-1.5497,-1.4502,-1.3707,-1.24,0.0,0.0,0.0,0.0,0.0,0.0,0.0,0.0,0.0,0.0,0.0,0.0,0.0,0.0,0.0,0.0,0.0,0.0,0.0,0.0,0.0,0.0,0.0,0.0,0.0,0.0,0.0,0.0,-2.1337,-2.2595,0.0,-2.3353,-2.3784,-2.4301,-2.4853,-2.6475,-2.7633,-2.8032,-2.991,-3.1047,-3.1278,-3.2588,-3.3509,-3.3909,-3.5036,-3.5629,-3.5655,-3.6152,-3.6367,-3.6299,-3.6299,-3.6299,-3.6282,-3.5791,-3.5594,-3.5436,-3.3588,-3.1695,-2.9922,-2.9178,-2.8513,-2.7984,-2.7858,-2.7545,-2.7166,-2.703,-2.6574,-2.5968,-2.5194,-2.4333,-2.3625,-2.3825,-2.3579,-2.3317,-2.3748,-2.3748,-2.3594,-2.3594,-2.3594,-2.3594,-2.3594,-2.3594,-2.3594,-2.3594,-2.324,-2.2871,-2.2624,-2.1858,-2.1088,-2.0588,-2.0112,-1.982,-1.9866,-1.9616,-1.9597,-2.0106,-2.0096,-1.9993,-1.9922,-1.9833,-1.978,-1.9744,-1.9708,-1.9621,-1.9414,-1.8363,-1.7689,-1.7543,-1.6375,-1.5356,-1.4519,-1.3734,-1.2397,0.0,0.0,0.0,0.0,0.0,0.0,0.0,0.0,0.0,0.0,0.0,0.0,0.0,0.0,0.0,0.0,0.0,0.0,0.0,0.0,0.0,0.0,0.0,0.0,0.0,0.0,-2.244,-2.3698,-2.5212,-2.6247,-2.6488,-2.7213,-2.7868,-2.8368,-2.9799,-3.0814,-3.1182,-3.2818,-3.383,-3.3998,-3.5275,-3.59,-3.5779,-3.6911,-3.7359,-3.7161,-3.7699,-3.7936,-3.7905,-3.7905,-3.7905,-3.7872,-3.7381,-3.7161,-3.7127,-3.6603,-3.5081,-3.3004,-3.1985,-3.1123,-3.0444,-3.0174,-2.9829,-2.9383,-2.871,-2.8135,-2.753,-2.6729,-2.5926,-2.5326,-2.5761,-2.5499,-2.5102,-2.5549,-2.5333,-2.5019,-2.5287,-2.5349,-2.5349,-2.5349,-2.5164,-2.4896,-2.4702,-2.4117,-2.364,-2.364,-2.2902,-2.2166,-2.172,-2.1642,-2.1488,-2.1042,-2.0911,-2.0765,-2.0535,-2.0431,-2.0269,-2.0005,-1.9919,-1.9851,-1.9851,-1.9815,-1.9797,-1.9797,-1.8547,-1.7827,-1.7906,-1.6741,-1.5812,-1.5224,-1.4448,-1.3205,-1.1465,0.0,0.0,0.0,0.0,0.0,0.0,0.0,0.0,0.0,0.0,0.0,0.0,0.0,0.0,0.0,0.0,0.0,0.0,0.0,0.0,0.0,0.0,0.0,-2.0539,-2.1854,-2.3681,-2.5956,-2.7575,-2.8816,-2.9575,-3.0351,-3.1403,-3.2869,-3.299,-3.364,-3.5088,-3.575,-3.637,-3.7013,-3.7687,-3.8014,-3.7939,-3.8159,-3.8176,-3.7973,-3.8024,-3.8024,-3.7939,-3.7939,-3.7922,-3.7905,-3.7905,-3.7905,-3.7905,-3.7905,-3.7483,-3.6694,-3.5148,-3.4117,-3.3474,-3.3474,-3.271,-3.1515,-3.031,-2.9443,-2.8869,-2.8827,-2.8046,-2.7147,-2.7163,-2.6848,-2.6479,-2.6495,-2.6426,-2.6496,-2.7211,-2.738,-2.7365,-2.7396,-2.6857,-2.6157,-2.5496,-2.4835,-2.4364,-2.4348,-2.3271,-2.2347,-2.2347,-2.2351,-2.2336,-2.2336,-2.232,0.0,-2.1411,-2.1197,-2.0901,-2.0379,-2.0129,-2.0025,-2.0098,-2.0043,-1.9937,-1.9797,-1.8679,-1.7922,-1.776,-1.6578,-1.5901,-1.5829,-1.4526,-1.3496,-1.2819,0.0,0.0,0.0,0.0,0.0,0.0,0.0,0.0,0.0,0.0,0.0,0.0,0.0,0.0,0.0,0.0,0.0,0.0,0.0,0.0,0.0,-2.2371,-2.3071,-2.2897,-2.4712,-2.6885,-2.9161,-3.0282,-3.1386,-3.2697,-3.3043,-3.3561,-3.449,-3.5059,-3.5717,-3.6498,-3.7317,-3.7746,-3.7795,-3.8604,-3.8949,-3.8846,-3.9445,-3.9651,-3.9503,-3.9511,-3.924,-3.87,-3.87,-3.8413,-3.7905,-3.7905,-3.7905,-3.7905,-3.7905,-3.7787,-3.7499,-3.6535,-3.569,-3.4991,-3.4991,-3.4435,-3.3549,-3.2501,-3.1345,-3.0196,-2.947,-2.87,-2.8132,-2.8628,-2.8347,-2.795,-2.8442,-2.7873,-2.7149,-2.7349,-2.7026,-2.6795,-2.7272,-2.7257,-2.7057,-2.6857,-2.625,-2.5604,-2.5112,-2.4333,-2.3748,-2.3748,-2.3348,-2.3025,-2.3025,-2.2609,0.0,-2.2058,-2.1578,-2.1139,-2.0919,-2.0406,-2.0063,-2.0025,-2.0023,-1.9988,-1.9937,-1.8712,-1.8197,-1.8617,-1.7347,-1.6578,-1.6443,-1.5227,-1.4233,0.0,0.0,0.0,0.0,0.0,0.0,0.0,0.0,0.0,0.0,0.0,0.0,0.0,0.0,0.0,0.0,0.0,0.0,0.0,0.0,0.0,0.0,-2.4859,-2.5843,-2.7004,-2.8058,-2.9317,-3.0955,-3.2369,-3.3697,-3.4887,-3.5338,-3.5839,-3.6559,-3.7008,-3.7529,-3.8151,-3.8328,-3.8482,-3.8655,-3.8734,-3.8772,-3.8645,-3.9069,-3.9248,-3.9174,-3.9174,-3.8937,-3.8531,-3.8531,-3.8311,-3.7905,-3.7905,-3.7905,-3.7905,-3.7905,-3.7905,0.0,0.0,0.0,0.0,0.0,-3.5825,-3.5335,-3.4396,-3.3548,-3.277,-3.219,-3.1606,-3.1158,-3.1222,-3.0608,-2.9871,-2.977,-2.895,-2.814,-2.8213,-2.795,-2.775,-2.815,-2.8242,-2.8165,-2.7873,-2.7419,-2.6796,-2.5931,-2.5366,0.0,-2.4369,-2.3979,-2.3717,-2.3717,-2.3394,-2.304,-2.2767,-2.2382,-2.199,-2.1642,-2.1013,-2.0597,-2.0559,-2.0281,0.0,0.0,0.0,-1.849,-1.858,-1.7709,0.0,0.0,0.0,0.0,0.0,0.0,0.0,0.0,-1.3253,-1.3044,0.0,0.0,0.0,0.0,0.0,0.0,0.0,0.0,0.0,0.0,0.0,0.0,0.0,0.0,0.0,0.0,-2.6835,-2.8678,-3.1524,-3.1576,-3.1558,-3.2231,-3.4093,-3.5645,-3.6473,-3.7198,-3.7944,-3.8663,-3.8646,-3.8922,-3.9641,0.0,0.0,0.0,0.0,-3.8109,-3.8065,-3.8108,-3.8159,-3.8159,-3.8159,-3.8108,-3.8024,-3.8024,-3.799,-3.7905,-3.7821,-3.7787,-3.777,-3.7686,-3.7652,-3.7601,-3.7094,-3.7313,-3.7821,-3.7185,-3.688,-3.6688,-3.5909,0.0,0.0,-3.5447,-3.5161,-3.4684,-3.4031,-3.3043,-3.1882,-3.072,-2.9878,-2.9311,-2.943,-2.9463,-2.9453,-2.9531,-2.9546,-2.9432,-2.8905,-2.8583,-2.8101,-2.7012,-2.6455,-2.5851,-2.4746,-2.441,-2.4302,-2.4302,-2.4302,-2.4087,-2.3486,-2.3348,-2.3071,-2.249,0.0,0.0,-2.1304,-2.0749,-2.0329,-2.0133,-1.955,-1.8875,-1.814,-1.8025,-1.799,-1.7979,-1.8012,-1.7933,-1.7713,-1.7811,-1.7856,-1.7743,-1.4752,-1.4302,0.0,0.0,0.0,0.0,0.0,0.0,0.0,0.0,0.0,0.0,0.0,0.0,0.0,0.0,0.0,-2.851,-2.9572,-3.0662,-3.2438,-3.4145,-3.5266,-3.5404,-3.5818,-3.6628,-3.8008,-3.8284,-3.8681,-3.9422,-3.8922,-3.886,-3.9501,-3.8917,-3.8511,-3.8435,-3.889,-3.9075,-3.8948,-3.9434,-3.9673,-3.9673,0.0,0.0,-3.8785,-3.8785,-3.8464,-3.7872,-3.7263,-3.7015,-3.6965,-3.6293,-3.6039,-3.614,-3.7263,-3.777,-3.7889,-3.7736,-3.7313,-3.6732,-3.6124,-3.5521,-3.4958,-3.4536,-3.4366,-3.4301,-3.417,-3.3542,0.0,-3.1875,-3.1117,-3.0426,-2.9871,-2.9714,-2.9858,-3.0412,-3.0517,-3.0653,-3.1117,-3.0767,-3.0125,-2.9371,-2.8253,-2.7175,-2.6294,-2.5116,-2.4302,-2.4302,-2.4302,-2.4256,-2.4133,-2.364,-2.324,-2.3117,-2.2501,-2.1889,-2.135,-2.118,-2.0857,-2.03,-2.0045,-1.9592,-1.8837,-1.9341,-1.9288,-1.8557,-1.8706,-1.8434,-1.7713,-1.773,-1.7999,-1.8493,-1.7295,-1.6966,0.0,0.0,0.0,0.0,0.0,0.0,0.0,0.0,0.0,0.0,0.0,-2.3909,-2.5415,0.0,-2.8322,-3.0508,-3.1719,-3.2923,-3.4387,-3.5921,-3.6749,-3.6353,-3.7301,-3.8163,-3.8543,-3.8922,-3.9146,-3.9146,-3.8801,-3.8882,-3.9571,-3.8968,-3.8654,-3.8794,-3.8794,-3.8717,-3.856,-3.8899,-3.911,-3.911,-3.911,-3.8907,-3.8567,-3.8471,-3.8261,-3.7889,-3.7499,-3.7347,-3.728,-3.6518,-3.6197,-3.6231,-3.662,-3.7009,-3.7381,-3.777,-3.7669,-3.7324,-3.7028,-3.6712,-3.6437,-3.6529,-3.6572,-3.6596,-3.6596,-3.6098,-3.5212,-3.3851,-3.2656,-3.1587,-3.0618,-3.0091,-2.9891,-3.0225,-3.0558,-3.0995,-3.1737,-3.1831,-3.1585,-3.1047,-3.0293,-2.9202,-2.7501,-2.6567,-2.5785,-2.5013,-2.4739,-2.4599,-2.4599,-2.4116,-2.3875,-2.408,-2.3316,-2.2751,-2.2605,-2.1802,-2.1011,-2.035,-2.0168,-1.9963,-1.9659,-1.9913,-1.9823,-1.9351,-1.9489,-1.9271,-1.8702,-1.8803,-1.8968,-1.9181,-1.8867,-1.8702,0.0,0.0,0.0,0.0,0.0,0.0,0.0,0.0,-2.2839,-2.4687,-2.5906,-2.7077,-2.8556,-2.9788,-3.1027,-3.2363,-3.3669,-3.499,-3.6335,-3.7335,-3.7702,-3.7042,-3.8456,-3.9301,-3.8853,-3.9215,-3.9232,-3.8629,-3.8594,-3.8853,-3.9439,-3.8922,-3.8797,-3.9207,-3.8738,-3.8427,-3.8401,-3.8639,-3.8864,-3.9017,-3.8864,-3.8795,-3.8755,-3.8523,-3.8401,-3.8401,-3.8241,-3.8065,-3.7855,-3.7246,-3.7015,-3.6948,-3.6146,-3.6231,-3.6863,-3.7297,-3.7442,-3.7442,-3.7442,-3.7567,-3.7787,-3.8379,-3.8667,-3.8802,-3.8954,-3.8481,-3.7563,-3.5947,-3.4412,-3.2973,-3.172,-3.0833,-3.0255,-3.0124,-3.0473,-3.1071,-3.1818,-3.2391,-3.2663,-3.2331,-3.2139,-3.1266,-2.8865,-2.8325,-2.7627,-2.5783,-2.5218,-2.4981,-2.4902,-2.4619,-2.4513,-2.4759,-2.3996,-2.3564,-2.3758,-2.2462,-2.1347,-2.0736,-2.0602,-2.0505,-2.047,-2.0329,-2.0162,-2.0005,-2.0045,-1.9975,-1.9726,-1.9866,-1.9866,-1.9708,-1.9708,-1.9708,-2.0745,-2.0015,-1.9996,-2.2078,-2.2116,-2.2584,0.0,0.0,-2.6406,-2.7827,-2.9326,-3.0613,-3.1267,-3.232,-3.3582,-3.5107,-3.5754,-3.6353,-3.7254,-3.856,-3.9422,-3.9319,-3.8957,-3.8939,-3.9508,-3.906,-3.8681,-3.8617,-3.8594,-3.8629,-3.8738,-3.8629,-3.8584,-3.85,-3.906,-3.9641,-4.0205,-4.0878,-4.1561,-4.2279,-4.1544,-4.1203,-4.1186,-4.0495,-4.0205,-4.0171,-3.9394,-3.8611,-3.7905,-3.7821,-3.7787,-3.7702,-3.6965,-3.6728,-3.6728,-3.6096,-3.5853,-3.5853,-3.5853,-3.6332,-3.6948,-3.7032,-3.7483,-3.8159,-3.8802,-3.8481,-3.7848,-3.7614,-3.6443,-3.4958,-3.3498,-3.2572,-3.1864,-3.1187,-3.1102,-3.1355,-3.2096,-3.2812,-3.3284,-3.3241,-3.3233,-3.2697,-3.1109,-3.028,-2.8839,-2.5942,-2.5465,-2.5294,-2.4942,-2.4863,-2.4719,-2.4405,-2.4261,-2.3968,-2.3407,-2.2976,-2.2543,-2.2108,-2.2055,-2.1756,-2.1035,-2.1108,-2.0796,-2.0021,-2.0005,-1.9937,-1.978,-1.9744,-1.9726,-1.9708,-1.9708,-1.9708,-2.2898,-2.3224,-2.3916,0.0,-2.5548,-2.6557,-2.8705,-2.8827,-2.9059,-3.1177,-3.1882,-3.2514,-3.3833,-3.4834,-3.5643,0.0,-3.698,-3.7703,-3.7836,-3.8928,-3.9526,-3.9112,-3.9163,-3.9181,-3.906,-3.8767,-3.8427,-3.7996,-3.7961,-3.8318,-3.9181,-3.9232,-3.96,-4.0336,-4.068,-4.1155,-4.1843,-4.2227,-4.256,-4.2903,-4.256,-4.2166,-4.1704,-4.1321,-4.0903,-4.0468,-4.0014,-3.9634,-3.928,-3.8742,-3.8531,-3.8464,-3.7736,-3.7161,-3.6711,-3.591,-3.56,-3.56,-3.56,-3.5802,-3.618,-3.666,-3.7015,-3.7398,-3.8142,-3.8447,-3.8447,-3.8024,-3.7449,-3.658,-3.5059,-3.3812,-3.2747,-3.2022,-3.1495,-3.1393,-3.2141,-3.2547,-3.3,-3.3863,-3.4032,-3.3711,-3.2662,-3.1867,-3.0653,-2.8515,-2.7222,-2.6274,-2.568,-2.5389,-2.5098,-2.4699,-2.5079,-2.4888,-2.3747,-2.3551,-2.3241,-2.2679,-2.2437,-2.2163,-2.1814,-2.1852,-2.1691,-2.1301,-2.1308,-2.1237,-2.1069,-2.105,-2.0994,-2.0922,-2.088,-2.0857,-2.4791,0.0,0.0,-2.7706,-2.8808,-3.0001,-3.1237,-3.136,-3.1787,-3.373,-3.3975,-3.4186,-3.5309,-3.6269,-3.6877,-3.6862,-3.7752,-3.8494,-3.8564,-3.9338,-3.9695,-3.9141,-3.9842,-3.9973,-3.8863,-3.8493,-3.8082,-3.7547,-3.7702,-3.8461,-3.9939,-4.0215,-4.0892,-4.2162,-4.2171,-4.2524,-4.3211,-4.3314,-4.3468,-4.3675,-4.3468,-4.3056,-4.2463,-4.1959,-4.1285,-4.0558,-4.0436,-4.0404,-4.0303,-3.9661,-3.9391,-3.9299,-3.8546,-3.7895,-3.732,-3.6535,-3.5971,-3.56,-3.56,-3.56,-3.5701,-3.6282,-3.6451,-3.6603,-3.7364,-3.7973,-3.8362,-3.8244,-3.8075,-3.7652,-3.6512,-3.5126,-3.3829,-3.3089,-3.2192,-3.1667,-3.2192,-3.2293,-3.2615,-3.3698,-3.4218,-3.4269,-3.3541,-3.3119,-3.2344,-3.0666,-2.9187,-2.7842,-2.6569,-2.5858,-2.5389,-2.5098,-2.5596,-2.5495,-2.4438,-2.4239,-2.3977,-2.347,-2.3075,-2.2763,-2.2578,-2.2582,-2.2467,-2.2221,-2.2244,-2.2206,-2.2052,-2.2013,-2.1955,-2.1862,-2.1779,-2.1824,0.0,0.0,-2.7514,-3.0503,-3.1336,-3.2023,-3.4321,-3.4844,-3.4862,-3.4949,-3.5628,-3.5962,-3.5174,-3.6042,-3.7128,-3.7854,-3.8033,-3.8513,-3.9582,-4.0114,-4.0354,-4.0258,-4.135,-4.1351,0.0,-3.8183,-3.753,-3.7512,-3.8168,-3.9255,-4.0791,-4.155,-4.2327,-4.3138,-4.3155,-4.3517,-4.4234,-4.4276,-4.4613,-4.5328,-4.4596,-4.4259,-4.4173,-4.2664,-4.1505,-4.0697,-4.0697,-4.0607,-4.0493,-4.0468,-4.0377,-4.0203,-3.9431,-3.9076,-3.8836,-3.8108,-3.6867,-3.56,-3.56,-3.56,-3.56,-3.5616,-3.5633,-3.5785,-3.6586,-3.6846,-3.7168,-3.8565,-3.8447,-3.7889,-3.7855,-3.6681,-3.5346,-3.4607,-3.3326,-3.2276,-3.2293,-3.2293,-3.231,-3.2361,-3.3529,-3.4269,-3.3541,-3.3964,-3.3677,-3.1495,-3.1123,-3.0123,-2.7502,-2.6185,-2.5503,-2.5484,-2.5503,-2.5486,-2.5451,-2.5089,-2.4871,-2.4839,-2.4471,-2.3948,-2.3302,-2.3271,-2.2963,-2.2301,-2.224,-2.2198,-2.2183,-2.2052,-2.1994,-2.1994,-2.1862,-2.2134,-2.6642,0.0,-3.0485,-3.2538,-3.3879,-3.5174,-3.7037,-3.6633,-3.6009,-3.6541,-3.5569,-3.4706,-3.4968,-3.5572,-3.6216,-3.6793,-3.7289,-3.7893,-3.8564,-3.8987,-3.902,-3.8507,-3.9726,0.0,0.0,0.0,0.0,-3.8635,-3.9067,-3.9991,-4.1567,-4.2378,-4.3138,-4.3914,-4.3931,-4.4294,-4.5027,-4.5044,-4.5139,-4.538,-4.4647,-4.4311,-4.4259,-4.2706,-4.1829,-4.1522,-4.0951,-4.0673,-4.0624,-4.0534,-4.0485,-4.0419,-4.0163,-3.9674,-3.9093,-3.8856,-3.8079,-3.7077,-3.6569,-3.64,-3.6299,-3.5769,-3.56,-3.565,-3.5926,-3.6366,-3.7015,-3.799,-3.8447,-3.8633,-3.8633,-3.7889,-3.68,-3.5515,-3.4472,-3.3495,-3.2513,-3.2293,-3.2293,-3.2293,-3.2699,-3.3275,-3.3998,-3.3931,-3.3525,-3.278,-3.0987,-2.9411,-2.8506,-2.8059,-2.7526,-2.67,-2.6869,-2.6616,-2.5589,-2.5615,-2.5465,-2.4942,-2.4764,-2.4485,-2.3979,-2.3963,-2.3871,-2.364,-2.36,-2.36,-2.36,-2.3499,-2.3453,-2.3453,-2.3314,-2.3379,-2.896,-3.0893,-3.3031,-3.5468,-3.6867,-3.7893,-3.8891,-3.8102,-3.7055,-3.667,-3.489,-3.344,-3.3665,-3.3911,-3.4477,-3.5655,-3.6365,-3.7252,-3.8561,-3.8796,-3.8887,-3.8958,-3.9985,-4.0238,0.0,0.0,0.0,-3.9499,-4.0027,-4.1105,-4.2801,-4.3513,-4.4173,-4.4937,-4.4785,-4.4923,-4.5397,-4.5397,-4.5397,-4.5397,-4.4923,-4.457,-4.4259,-4.3,-4.2275,-4.194,-4.1144,-4.0769,-4.0769,-4.068,-4.0607,-4.0558,-4.0558,-4.0195,-3.9664,-3.9664,-3.9309,-3.8652,-3.7581,-3.7178,-3.706,-3.6282,-3.6028,-3.5994,-3.5684,-3.596,-3.6518,-3.728,-3.8041,-3.8667,-3.892,-3.865,-3.799,-3.6715,-3.5656,-3.4556,-3.3359,-3.2886,-3.2632,-3.2344,-3.2513,-3.2919,-3.3613,-3.3541,-3.3406,-3.3406,-3.1782,-3.0378,-2.9856,-2.9331,-2.8699,-2.7938,-2.7943,-2.7552,-2.6424,-2.6157,-2.5797,-2.5157,-2.4843,-2.4574,-2.4302,-2.4302,-2.4302,-2.4302,-2.4302,-2.4302,-2.4302,-2.4271,-2.425,-2.4229,-2.4124,-2.4082,-3.2821,-3.4209,-3.524,-3.9113,-4.0062,-4.0031,-3.9971,-3.9239,-3.79,-3.5445,-3.3592,-3.2161,0.0,0.0,-3.2118,-3.4491,-3.5366,-3.6708,-3.952,-3.9568,-3.9893,0.0,0.0,0.0,0.0,0.0,0.0,-4.0226,0.0,-4.2524,-4.446,-4.4892,-4.5444,-4.6193,-4.5718,-4.5423,-4.5397,-4.5397,-4.5397,-4.5397,-4.5397,-4.5044,-4.4328,-4.3586,-4.2844,-4.2061,-4.1291,-4.0963,-4.0963,-4.0929,-4.084,-4.0697,-4.0697,-4.0648,-4.051,-4.051,-4.051,-4.0256,-3.8594,-3.8014,-3.7862,-3.7066,-3.6835,-3.6683,-3.5859,-3.5622,-3.5791,-3.6592,-3.7337,-3.8075,-3.8826,-3.9022,-3.887,-3.8142,-3.6834,-3.5549,-3.4726,-3.4015,-3.3288,-3.2513,-3.2916,-3.3186,-3.2479,-3.2933,-3.3423,-3.3457,-3.3423,-3.2899,-3.1478,-3.0059,-2.9145,-2.9128,-2.8728,-2.83,-2.7872,-2.6792,-2.5991,-2.5608,-2.4894,-2.4493,-2.441,-2.44,-2.4384,-2.4364,-2.4317,-2.4302,-2.4302,-2.4302,-2.4302,-2.4302,-2.4229,-2.4223,-3.3672,-3.6348,-3.9005,-4.0579,-4.0922,-4.0877,-4.0816,-3.8781,-3.6376,-3.4504,-3.1867,-2.9666,0.0,0.0,0.0,-3.2913,-3.4857,0.0,-3.9551,-3.9818,0.0,-4.1109,0.0,-4.2252,-4.2132,-4.2941,0.0,0.0,-4.3147,-4.3647,-4.5302,-4.6046,-4.6366,-4.6193,-4.6062,-4.5803,-4.5397,-4.5397,-4.5397,-4.5397,-4.5397,-4.5294,-4.5087,-4.4363,-4.3914,-4.3638,-4.2309,-4.1723,-4.1688,-4.1136,-4.0888,-4.0864,-4.0864,-4.0769,-4.0648,-4.0648,-4.0583,-4.0434,-3.9993,-3.9491,-3.8785,-3.7473,-3.703,-3.6894,-3.6127,-3.5888,-3.6041,-3.6808,-3.7489,-3.8167,-3.8948,-3.9468,-3.9639,-3.8886,-3.8413,-3.7618,-3.574,-3.516,-3.4653,-3.3372,-3.3271,-3.3339,-3.3152,-3.3288,-3.3592,-3.4134,-3.3744,-3.3271,-3.2899,-3.2019,-3.1244,-3.0702,-3.0065,-2.9292,-2.8333,-2.8248,-2.7789,-2.6773,-2.7102,-2.6916,-2.5901,-2.5659,-2.5399,-2.5056,-2.4564,-2.4302,-2.4302,-2.4302,-2.4302,-2.4302,-2.4276,-2.4553,-3.6296,-3.8526,-4.0385,-4.1191,-4.104,-4.0425,-3.9295,-3.7088,-3.4623,-3.2268,-2.9761,0.0,-2.7397,0.0,0.0,0.0,0.0,0.0,-3.9974,-4.012,-4.0451,0.0,-4.2543,0.0,-4.2818,-4.4072,-4.4966,0.0,-4.4951,-4.5209,-4.6259,-4.6881,-4.6981,-4.6531,-4.6308,-4.5955,-4.5397,-4.5397,-4.5397,-4.5397,-4.5397,-4.5397,-4.5363,-4.463,-4.4311,-4.4242,-4.3051,-4.2327,-4.1981,-4.1567,-4.1205,-4.0912,-4.0912,-4.0847,-4.0793,-4.0793,-4.0745,-4.068,-4.068,-4.0405,-3.9849,-3.8533,-3.7872,-3.7462,-3.671,-3.6271,-3.6083,-3.6488,-3.7331,-3.8182,-3.8642,-3.9465,-4.0001,-3.9272,-3.9054,-3.8565,-3.6975,-3.6366,-3.569,-3.4167,-3.3626,-3.3305,-3.2966,-3.3186,-3.344,-3.3508,-3.3457,-3.3406,-3.3406,-3.2767,-3.2141,-3.1735,-3.1309,-3.0538,-2.9267,-2.9506,-2.9121,-2.7745,-2.7954,-2.781,-2.7057,-2.6683,-2.6356,-2.6096,-2.5524,-2.5226,-2.5226,-2.5226,-2.5226,-2.5226,-2.5226,-2.5426,-3.9324,-4.0381,-4.0563,-4.1304,-4.071,-3.9302,-3.681,-3.4913,-3.2773,-2.9525,0.0,-2.6512,-2.6391,-2.7077,-2.8734,-3.2051,0.0,-3.6472,-4.0673,-4.0653,-4.102,-4.3239,-4.3589,-4.3644,-4.3644,-4.5021,-4.5938,-4.6049,-4.6369,-4.6785,-4.7222,-4.7532,-4.7442,-4.6908,-4.6387,-4.5879,-4.5397,-4.5397,-4.5397,-4.5397,-4.5397,-4.5397,-4.538,-4.4734,-4.4449,-4.4414,-4.3552,-4.2792,-4.2154,-4.1947,-4.1481,-4.0912,-4.0912,-4.0912,-4.0912,-4.0912,-4.0912,-4.0912,-4.0912,-4.0912,-4.0726,-3.9757,-3.8892,-3.8123,-3.7387,-3.6618,-3.6041,-3.6041,-3.7096,-3.8236,-3.8236,-3.9269,-4.016,-3.953,-3.9287,-3.8986,-3.8258,-3.7428,-3.6429,-3.5069,-3.4117,-3.3339,-3.2699,-3.2949,-3.3068,-3.253,-3.2899,-3.3288,-3.3389,-3.2767,-3.2293,-3.2293,-3.2209,-3.165,-3.0362,-3.0506,-3.0105,-2.8763,-2.8408,-2.8188,-2.8066,-2.7639,-2.736,-2.7232,-2.6751,-2.647,-2.638,-2.6402,-2.6402,-2.6402,-2.6402,-2.6464,-3.964,-4.0884,-4.1393,-4.1486,-4.0344,-3.8524,-3.5979,-3.3653,0.0,0.0,-2.636,-2.5483,-2.4763,-2.5866,-2.8143,-3.199,0.0,0.0,0.0,0.0,-4.2286,0.0,0.0,0.0,0.0,0.0,0.0,0.0,-4.6964,-4.7331,-4.8048,-4.8137,-4.7793,-4.6931,-4.5995,-4.5485,-4.5397,-4.5397,-4.5397,-4.5397,-4.5397,-4.5397,-4.5397,-4.5259,-4.5207,-4.5121,-4.3793,0.0,-4.2896,-4.1619,-4.1015,-4.0912,-4.0912,-4.0912,-4.0912,-4.0912,-4.0912,-4.0912,-4.0912,-4.0912,-4.075,-3.991,-3.913,-3.8372,-3.7654,-3.6879,-3.6259,-3.6259,-3.7274,-3.8368,-3.8368,-3.9405,-4.0427,-4.029,-4.0273,-4.0044,-3.9293,-3.7972,-3.6859,-3.648,-3.5267,-3.4269,-3.4134,-3.3224,-3.2645,-3.3136,-3.2797,-3.2716,-3.3322,-3.2767,-3.2293,-3.2293,-3.1752,-3.1275,-3.1021,-3.1064,-3.0818,-3.019,-3.0433,-3.0272,-2.9502,-2.9222,-2.873,-2.7923,-2.7304,-2.6761,-2.6311,-2.6364,-2.6402,-2.6402,-2.6402,-2.6688,-3.9839,-4.0694,-4.0977,-4.0933,-3.9045,-3.6621,-3.4525,0.0,0.0,0.0,-2.5218,-2.4801,-2.4377,0.0,0.0,0.0,0.0,0.0,0.0,0.0,0.0,0.0,0.0,0.0,0.0,0.0,0.0,-4.6452,-4.6856,-4.7443,-4.8269,-4.8055,-4.7733,-4.727,-4.6321,-4.5803,-4.5803,-4.5537,-4.5397,-4.5397,-4.5397,-4.5397,-4.5397,-4.5397,-4.5397,-4.5328,-4.4234,-4.3552,-4.3103,-4.1947,-4.1257,-4.0912,-4.0912,-4.0912,-4.0912,-4.0912,-4.0912,-4.0912,-4.0912,-4.0912,-4.0843,-4.0463,-3.9784,-3.9026,-3.8306,-3.7525,-3.6835,-3.6422,-3.7085,-3.7937,-3.7937,-3.8946,-3.9983,-3.9983,-4.0243,-4.0305,-3.957,-3.8457,-3.7484,-3.7012,-3.5966,-3.5028,-3.4578,-3.3918,-3.3423,-3.3406,-3.2763,-3.2429,-3.278,-3.2171,-3.187,-3.2259,-3.1989,-3.1633,-3.1224,-3.1565,-3.15,-3.0895,-3.1092,-3.0995,-3.0535,-3.0203,-2.9799,-2.9361,-2.8547,-2.8012,-2.7757,-2.7551,-2.7442,-2.7442,-2.7442,-2.7611,-3.9658,-4.0253,-4.0416,-4.0416,-3.7926,-3.5064,-3.3392,-3.0456,0.0,0.0,-2.4456,-2.4421,-2.4403,0.0,0.0,0.0,0.0,0.0,0.0,0.0,0.0,0.0,0.0,0.0,0.0,0.0,0.0,-4.5626,-4.6544,-4.7443,-4.8269,-4.7856,-4.7611,-4.7611,-4.6776,-4.6308,-4.6211,-4.5778,-4.5511,-4.5397,-4.5397,-4.5397,-4.5397,-4.5397,-4.5311,-4.513,-4.4371,-4.3638,-4.2879,-4.2102,-4.1429,-4.0912,-4.0912,-4.0912,-4.0912,-4.0912,-4.0912,-4.0912,-4.0912,-4.0912,-4.0912,-4.0912,-4.0377,-3.956,-3.8819,-3.8099,-3.734,-3.6525,-3.687,-3.7512,-3.7512,-3.8527,-3.9587,-3.9759,-4.0209,-4.0429,-3.9823,-3.9063,-3.8299,-3.7637,-3.6746,-3.5868,-3.5169,-3.4774,-3.4346,-3.377,-3.3021,-3.2547,-3.2547,-3.2019,-3.1816,-3.2259,-3.2158,-3.1836,-3.1241,-3.1735,-3.1819,-3.1241,-3.119,-3.119,-3.119,-3.0858,-3.0601,-3.0497,-2.9777,-2.9303,-2.9097,-2.8724,-2.8493,-2.8411,-2.8411,-2.8411,-3.8785,-3.9788,-4.0416,-4.0416,-3.7926,-3.5064,-3.3392,0.0,0.0,-2.5001,-2.45,-2.4474,-2.4412,-2.4524,0.0,0.0,0.0,0.0,0.0,0.0,0.0,0.0,0.0,0.0,0.0,0.0,0.0,-4.4764,-4.6232,-4.7443,-4.8269,-4.7856,-4.7611,-4.7611,-4.7093,-4.6631,-4.6211,-4.6161,-4.5879,-4.5397,-4.5397,-4.5397,-4.5397,-4.5397,-4.5044,-4.4363,-4.3621,-4.2844,0.0,-4.1309,-4.0963,-4.0912,-4.0912,-4.0912,-4.0912,-4.0912,-4.0912,-4.0912,-4.0912,-4.0912,-4.0912,-4.0912,-4.0377,-3.956,-3.8819,-3.8099,-3.734,-3.6525,-3.687,-3.7512,-3.7512,-3.8594,-3.9865,-4.0595,-4.0819,-4.0806,-4.0611,-3.9993,-3.9403,-3.9211,-3.7985,-3.6961,-3.687,-3.5662,-3.4661,-3.4593,-3.3842,-3.3305,-3.3305,-3.3237,-3.2966,-3.2361,-3.1701,-3.1258,-3.1207,-3.1258,-3.1258,-3.119,-3.119,-3.119,-3.119,-3.1151,-3.0955,-3.0518,-3.0414,-2.9951,-2.9097,-2.9067,-2.8803,-2.8411,-2.8411,-2.8411,-3.8265,-3.899,-3.9138,-4.0155,-3.7554,-3.4302,-3.2648,0.0,-2.6832,-2.4908,-2.45,-2.4491,-2.4465,-2.443,-2.4959,0.0,0.0,0.0,0.0,0.0,0.0,0.0,0.0,0.0,0.0,0.0,-4.3828,-4.4654,-4.6195,-4.7241,-4.7553,-4.7876,-4.8015,-4.8015,-4.7569,-4.7226,-4.7031,-4.6465,-4.6087,-4.5879,-4.5537,-4.5397,-4.5397,-4.5397,-4.501,-4.4259,-4.3517,-4.2741,0.0,-4.1205,-4.0912,-4.0912,-4.0912,-4.0912,-4.0912,-4.0912,-4.0912,-4.0912,-4.0912,-4.0912,-4.0912,-4.0912,-4.0687,-4.0204,-3.8957,-3.8387,-3.7887,-3.6646,-3.6525,-3.6766,-3.6766,-3.7887,-3.9336,-4.0601,-4.0912,-4.0888,-4.084,-4.022,-3.9623,-3.954,-3.8283,-3.7192,-3.7103,-3.621,-3.5445,-3.5358,-3.4686,-3.4151,-3.4066,-3.3677,-3.3288,-3.2983,-3.229,-3.1684,-3.1241,-3.119,-3.119,-3.119,-3.119,-3.119,-3.119,-3.119,-3.1112,-3.0918,-3.0642,-3.033,-2.9951,-2.9393,-2.8997,-2.8803,-2.8525,-2.8411,-3.6875,-3.7817,-3.8172,-3.9361,-3.6736,-3.3503,0.0,-2.9266,-2.6442,-2.4834,-2.45,-2.45,-2.45,-2.4465,-2.4606,0.0,0.0,0.0,0.0,0.0,0.0,0.0,0.0,0.0,0.0,-4.3221,-4.3718,-4.4305,-4.5608,-4.6489,-4.6727,-4.7498,-4.8048,-4.8306,-4.7975,-4.7736,-4.7611,-4.6936,-4.6537,-4.6387,-4.602,-4.5656,-4.5277,-4.5277,-4.4663,-4.3603,-4.3069,-4.2396,0.0,-4.1119,-4.0912,-4.0912,-4.0912,-4.0912,-4.0912,-4.0912,-4.0912,-4.0912,-4.0912,-4.0912,-4.0912,-4.0912,-4.0912,-4.0653,-3.9319,-3.8767,-3.8318,-3.7008,-3.6473,-3.6404,-3.6853,-3.7784,-3.8996,-4.0532,-4.0912,-4.0912,-4.0912,-4.044,-4.0037,-3.9984,-3.8912,-3.7909,-3.7591,-3.6901,-3.6275,-3.5961,-3.5445,-3.5061,-3.4958,-3.4474,-3.4024,-3.3804,-3.3275,-3.2666,-3.1901,-3.1647,-3.1532,-3.1532,-3.1309,-3.119,-3.119,-3.119,-3.119,-3.119,-3.0878,-3.0638,-3.0497,-2.9689,-2.9234,-2.909,-2.8621,-2.8411,-3.4267,-3.618,-3.7894,-3.7912,-3.5442,-3.2797,0.0,-2.9266,-2.6442,-2.4834,-2.45,-2.45,-2.45,-2.45,-2.4474,-2.4412,0.0,0.0,0.0,0.0,0.0,0.0,0.0,0.0,0.0,-4.2612,-4.3515,-4.3515,-4.4268,0.0,-4.5865,-4.6672,-4.748,-4.8269,-4.8287,-4.8055,-4.7611,-4.7591,-4.7356,-4.6886,-4.6886,-4.6205,-4.4992,-4.4992,-4.3906,-4.2033,-4.2033,-4.1602,0.0,-4.0912,-4.0912,-4.0912,-4.0912,-4.0912,-4.0912,-4.0912,-4.0912,-4.0912,-4.0912,-4.0912,-4.0912,-4.0912,-4.0912,-4.0756,-3.9922,-3.9181,-3.8439,-3.7702,-3.6904,-3.6646,-3.8163,-3.8599,-3.8996,-4.0532,-4.0912,-4.0912,-4.0912,-4.0894,-4.0894,-4.0894,-4.0215,-3.9439,-3.8698,-3.7851,-3.7045,-3.6307,-3.6062,-3.5997,-3.598,-3.5866,-3.5511,-3.4746,-3.4575,-3.4167,-3.344,-3.2716,-3.2293,-3.2293,-3.1616,-3.119,-3.119,-3.119,-3.119,-3.119,-3.119,-3.0958,-3.0497,-3.0032,-2.955,-2.909,-2.8621,-2.8411,-3.2231,-3.3057,-3.3285,-3.3754,-3.2257,-3.0285,-2.8795,-2.7222,-2.5782,-2.4723,-2.45,-2.45,-2.45,-2.45,-2.4844,-2.594,-2.6321,0.0,0.0,0.0,0.0,0.0,0.0,0.0,0.0,0.0,-4.3515,-4.3515,-4.4745,-4.5626,-4.5883,-4.7186,-4.8049,-4.8306,-4.8306,-4.823,-4.8075,-4.7775,-4.7256,-4.6545,-4.6221,-4.5566,-4.464,-4.4319,-4.3559,-4.2451,-4.2144,-4.1585,-4.0912,-4.0912,-4.0912,-4.0912,-4.0912,-4.0912,-4.0912,-4.0912,-4.0912,-4.0912,-4.0912,-4.0912,-4.0912,-4.0912,-4.0912,-4.086,-4.0601,-3.9612,-3.8318,-3.7042,-3.649,-3.6542,-3.7581,-3.8237,-3.8836,-3.9836,-4.0515,-4.0912,-4.0912,-4.0912,-4.0912,-4.0912,-4.0233,-3.9457,-3.8715,-3.7952,-3.715,-3.6328,-3.6165,-3.6101,-3.6019,-3.5954,-3.5803,-3.5494,-3.5416,-3.4864,-3.3508,-3.3186,-3.3051,-3.3051,-3.2831,-3.2713,-3.2713,-3.2205,-3.1955,-3.1955,-3.1464,-3.1131,-3.0975,-3.0199,-2.9387,-2.8621,-2.8468,-2.8411,0.0,-3.0736,-3.0647,-3.1064,-3.0189,-2.8828,-2.7316,-2.6356,-2.5518,-2.4684,-2.45,-2.45,-2.45,-2.45,-2.4834,-2.5838,-2.6238,0.0,0.0,0.0,0.0,0.0,0.0,0.0,0.0,-4.4301,-4.4339,-4.3975,-4.5149,-4.5902,-4.5902,-4.6856,-4.7388,-4.7388,-4.7994,-4.8159,-4.7846,-4.7557,-4.7019,-4.6198,-4.592,-4.5279,-4.4354,-4.4039,-4.3306,-4.2226,-4.1928,-4.1475,0.0,-4.0912,-4.0912,-4.0935,-4.1065,-4.1018,-4.0942,-4.1277,-4.1163,-4.0918,-4.1088,-4.1018,-4.0912,-4.0912,-4.0912,-4.0791,-4.0221,-3.9376,-3.8267,-3.6732,-3.6301,-3.649,-3.7305,-3.8065,-3.8784,-3.9508,-4.0302,-4.0912,-4.0912,-4.0912,-4.0912,-4.0912,-4.0515,-3.9905,-3.9146,-3.841,-3.7646,-3.6823,-3.644,-3.6212,-3.6127,-3.6084,-3.6036,-3.5949,-3.5861,-3.5399,-3.4384,-3.4003,-3.3829,-3.3829,-3.3558,-3.3406,-3.3406,-3.2949,-3.2733,-3.2733,-3.2256,-3.2036,-3.2036,-3.081,-2.9815,-2.9066,-2.8616,-2.8411,0.0,-2.8958,-2.9469,-2.946,-2.8901,-2.8102,-2.7155,-2.6362,0.0,-2.47,-2.4517,-2.4535,-2.4574,-2.4545,-2.4591,-2.4816,-2.5485,0.0,0.0,0.0,0.0,0.0,0.0,0.0,-4.4848,-4.5677,-4.5716,-4.4782,-4.5443,-4.5883,-4.581,-4.5865,-4.5902,-4.5902,-4.7352,-4.7755,-4.7021,-4.7003,-4.6599,-4.581,-4.581,-4.5205,-4.4063,-4.4024,-4.3138,0.0,-4.1561,-4.1351,-4.0989,-4.0989,-4.0989,-4.1035,-4.1401,-4.1328,-4.1088,-4.1903,-4.1687,-4.1059,-4.1423,-4.1283,-4.0942,-4.0912,-4.0912,-4.0618,-3.9083,-3.8594,-3.8267,-3.6732,-3.6301,-3.6473,-3.7236,-3.7991,-3.8767,-3.9457,-4.0267,-4.0912,-4.0912,-4.0912,-4.0912,-4.0912,-4.0912,-4.0653,-3.9836,-3.9129,-3.8422,-3.7702,-3.6939,-3.6456,-3.6456,-3.6405,-3.6341,-3.6273,-3.6056,-3.5868,-3.5812,-3.5045,-3.4573,-3.4573,-3.3947,-3.3558,-3.3558,-3.3508,-3.3491,-3.3491,-3.344,-3.3385,-3.3364,-3.1792,-3.079,-3.0315,-2.9176,-2.8656,-2.5042,0.0,-2.633,-2.6225,-2.6054,-2.5831,0.0,-2.5186,-2.4917,0.0,0.0,0.0,-2.5317,-2.4993,-2.5446,-2.7865,-2.8422,-2.9378,0.0,0.0,0.0,0.0,-4.414,-4.4885,-4.5818,-4.6025,-4.5751,-4.4925,-4.5497,-4.5626,-4.5021,-4.5571,-4.5902,-4.5902,-4.6269,-4.6379,-4.6177,-4.6177,-4.5773,-4.4984,-4.4984,-4.4509,-4.3632,-4.3322,-4.2968,-4.2537,-4.2177,-4.1969,-4.1885,-4.1885,-4.1885,-4.1885,-4.199,-4.1969,-4.1924,-4.2115,-4.2053,-4.1924,-4.199,-4.1735,-4.1305,-4.1012,-4.0912,-4.0618,-3.9083,-3.8594,-3.8267,-3.6732,-3.6301,-3.6335,-3.6525,-3.7577,-3.8629,-3.8819,-3.9911,-4.0912,-4.0912,-4.0912,-4.0912,-4.0912,-4.0912,-4.0653,-3.9836,-3.956,-3.9181,-3.8439,-3.8163,-3.806,-3.806,-3.8038,-3.777,-3.7097,-3.7002,-3.663,-3.5868,-3.5514,-3.5329,-3.5329,-3.5177,-3.5076,-3.5076,-3.4539,-3.4235,-3.4235,-3.3694,-3.322,-3.2845,-3.2464,-3.2046,-3.1578,-3.13,-3.1149,-2.3995,-2.4986,-2.5875,-2.5817,-2.5787,-2.5753,-2.5622,0.0,0.0,0.0,0.0,0.0,0.0,0.0,0.0,0.0,-2.8895,0.0,0.0,0.0,0.0,0.0,-4.4925,-4.5319,0.0,-4.6,-4.5855,-4.501,-4.5605,-4.5643,-4.478,-4.513,-4.5186,-4.48,-4.48,-4.4984,-4.5351,-4.5351,-4.4947,-4.4158,-4.4158,-4.392,-4.3479,-4.3268,-4.3069,-4.2882,-4.2634,-4.2398,-4.2198,-4.2198,-4.2198,-4.2218,-4.2438,-4.2398,-4.2239,-4.2637,-4.2539,-4.2218,-4.2438,-4.2198,-4.1756,-4.1328,-4.096,-4.041,-3.9007,-3.8353,-3.7836,-3.6628,-3.6301,-3.6301,-3.6301,-3.7439,-3.8594,-3.8594,-3.979,-4.0912,-4.0912,-4.0912,-4.0912,-4.0912,-4.0912,-4.0774,-4.0342,-3.9939,-3.956,-3.9163,-3.8819,-3.8594,-3.8594,-3.8594,-3.8417,-3.7959,-3.7531,-3.7087,-3.6522,-3.6071,-3.5734,-3.56,-3.56,-3.56,-3.56,-3.5211,-3.5013,-3.5013,-3.4602,-3.4273,-3.4019,-3.3467,-3.3075,-3.2823,-3.2248,-3.1868,-2.3841,-2.5317,-2.6563,-2.6428,-2.6505,-2.6537,-2.6284,0.0,0.0,0.0,0.0,0.0,0.0,0.0,0.0,0.0,0.0,0.0,0.0,0.0,0.0,-4.4915,-4.5287,0.0,-4.5319,-4.5897,-4.5938,-4.5077,-4.5582,-4.5548,-4.4701,-4.456,-4.4231,-4.355,-4.3515,-4.3828,-4.4525,-4.4525,-4.4176,-4.3515,-4.3515,-4.3515,-4.3515,-4.3515,-4.3322,-4.2976,-4.2976,0.0,-4.24,-4.24,-4.24,-4.2458,-4.2826,-4.275,-4.248,-4.3232,-4.3032,-4.2458,-4.2769,-4.2634,-4.2218,-4.167,-4.0986,-4.0166,-3.8975,-3.8099,-3.734,-3.6525,-3.6301,-3.6335,-3.6456,-3.7525,-3.8629,-3.8732,-3.9876,-4.0912,-4.0912,-4.0912,-4.0912,-4.0912,-4.0912,-4.0912,-4.0912,-4.0319,-3.9871,-3.9871,-3.9336,-3.8962,-3.8962,-3.8962,-3.8888,-3.8767,-3.8011,-3.7445,-3.7303,-3.6529,-3.591,-3.5689,-3.5667,-3.5667,-3.5667,-3.5644,-3.5622,-3.5622,-3.5622,-3.56,-3.56,-3.4565,-3.4083,-3.4066,-3.3024,-3.2309,-2.3663,-2.5317,-2.6428,-2.5673,-2.6058,-2.6404,0.0,0.0,0.0,0.0,0.0,0.0,0.0,0.0,0.0,0.0,0.0,-3.6625,0.0,0.0,-4.237,-4.4989,0.0,-4.5565,-4.6217,-4.63,-4.5955,-4.5158,-4.5149,-4.4821,-4.3992,-4.3835,-4.371,-4.36,-4.3513,-4.357,-4.3681,-4.3681,-4.3608,-4.3515,-4.3515,-4.3515,-4.3515,-4.3515,-4.348,-4.341,0.0,-4.3375,-4.3303,-4.3303,-4.3303,-4.3303,-4.3375,-4.3356,-4.3321,-4.3444,-4.341,-4.3268,-4.2995,-4.2844,-4.2653,-4.1778,-4.0986,-4.0166,-3.8975,-3.8099,-3.734,-3.6525,-3.6301,-3.6456,-3.715,-3.7961,-3.875,-3.937,-4.0239,-4.0912,-4.0912,-4.0912,-4.0912,-4.0912,-4.0912,-4.0912,-4.0912,-4.0808,-4.0722,-4.0722,-4.0636,-4.0549,-4.0549,-4.0549,-4.0308,-3.9595,-3.8853,-3.8119,-3.7355,-3.6594,-3.6101,-3.5954,-3.5932,-3.5932,-3.5932,-3.5839,-3.5773,-3.5773,-3.5667,-3.56,-3.56,-3.5397,-3.5324,-3.5324,-3.5138,-3.5003,-2.2932,-2.4298,-2.5375,-2.5885,-2.6986,-2.7852,-2.7448,0.0,0.0,0.0,0.0,0.0,0.0,0.0,0.0,0.0,0.0,-3.8711,-4.0754,-4.1739,-4.2835,0.0,0.0,-4.4729,-4.5119,-4.5087,-4.4907,-4.4536,-4.4436,-4.4239,-4.3869,-4.3769,-4.3667,-4.3599,-4.3565,-4.3549,-4.3515,-4.3515,-4.3515,-4.3515,-4.3515,-4.3515,-4.3515,-4.3515,-4.3515,-4.3515,0.0,-4.3515,-4.3515,-4.3515,-4.3515,-4.3515,-4.3515,-4.3515,-4.3515,-4.3515,-4.3515,-4.3462,-4.3286,-4.3214,-4.3124,-4.2478,-4.1276,-4.0002,-3.921,-3.7983,-3.6853,-3.6922,-3.696,-3.7025,-3.7409,-3.8336,-3.9267,-3.9612,-4.0302,-4.0912,-4.0912,-4.0912,-4.0912,-4.0912,-4.0912,-4.0912,-4.0912,-4.0912,-4.0912,-4.0912,-4.0912,-4.0912,-4.0912,-4.0912,-4.0774,-4.0394,-3.9646,-3.8865,-3.8062,-3.7322,-3.6638,-3.6053,-3.5997,-3.5997,-3.5997,-3.5932,-3.5927,-3.5927,-3.5795,-3.5706,-3.5706,-3.5644,-3.56,-3.56,-3.56,-3.5447,-2.2652,-2.359,-2.449,-2.6178,0.0,-2.8626,-2.9011,0.0,0.0,0.0,0.0,0.0,0.0,0.0,0.0,-3.5281,-3.7968,-4.0123,-4.1423,-4.2445,-4.3318,-4.3931,-4.4005,-4.4005,-4.4005,-4.4005,-4.4005,-4.4005,-4.3942,-4.3929,-4.3929,-4.3867,-4.3786,-4.3666,-4.3667,-4.3617,-4.3513,-4.3513,-4.3532,-4.3515,-4.3515,-4.3515,-4.3515,-4.3515,-4.3515,-4.3515,-4.3515,-4.3515,-4.3515,-4.3515,-4.3515,-4.3515,-4.3515,-4.3515,-4.3515,-4.3515,-4.3515,-4.3515,-4.3515,-4.3515,-4.3409,-4.2795,-4.1429,-3.994,-3.933,-3.8067,-3.6998,-3.7607,-3.8042,-3.8295,-3.8057,-3.8836,-3.975,-3.9939,-4.044,-4.0912,-4.0912,-4.0912,-4.0912,-4.0912,-4.0912,-4.0912,-4.0912,-4.0912,-4.0912,-4.0912,-4.0912,-4.0912,-4.0912,-4.0912,-4.0912,-4.0912,-4.0164,-3.9319,-3.8427,-3.7823,-3.7081,-3.6135,-3.6084,-3.6084,-3.6084,-3.6062,-3.6058,-3.6058,-3.5927,-3.5839,-3.5795,-3.5689,-3.5622,-3.56,-3.56,-3.5379,-2.3544,-2.4047,-2.449,-2.6178,0.0,0.0,-2.8742,-2.9107,0.0,0.0,0.0,0.0,0.0,0.0,0.0,-3.6458,-3.9324,-4.146,-4.1571,0.0,-4.3949,-4.3986,-4.4005,-4.4005,-4.4005,-4.4005,-4.4005,-4.4005,-4.4005,-4.3989,-4.3989,-4.3929,-4.3899,-4.3881,-4.3818,-4.3719,-4.3582,-4.3582,-4.3548,-4.3515,-4.3515,-4.3515,-4.3515,-4.3515,-4.3515,-4.3515,-4.3515,-4.3515,-4.3515,-4.3515,-4.3515,-4.3515,-4.3515,-4.3515,-4.3515,-4.3515,-4.3515,-4.3515,-4.3515,-4.3515,-4.3299,-4.2087,-4.1144,-4.0239,-3.9025,-3.8591,-3.8538,-3.861,-3.9697,-4.0636,-3.9775,-3.9612,-3.9888,-4.0653,-4.086,-4.0912,-4.0912,-4.0912,-4.0912,-4.0912,-4.0912,-4.0912,-4.0912,-4.0912,-4.0912,-4.0912,-4.0912,-4.0912,-4.0912,-4.0912,-4.0912,-4.0912,-4.0164,-3.9112,-3.7702,-3.753,-3.7146,-3.6331,-3.628,-3.628,-3.628,-3.6229,-3.6204,-3.6204,-3.6041,-3.591,-3.5795,-3.5795,-3.5728,-3.56,-3.56,-3.5577,-2.299,-2.369,-2.4499,-2.6178,0.0,0.0,0.0,0.0,0.0,0.0,0.0,0.0,0.0,0.0,-3.6652,-3.7339,-3.977,-4.1757,-4.2277,-4.3299,-4.4005,-4.4005,-4.4005,-4.4005,-4.4005,-4.4005,-4.4005,-4.4005,-4.4005,-4.4005,-4.4005,-4.3974,-4.3945,-4.3897,-4.3402,-4.3061,-4.2926,-4.2412,-4.2173,-4.214,-4.3053,-4.3515,-4.3515,-4.3515,-4.3515,-4.3515,-4.3515,-4.3515,-4.3515,-4.3515,-4.3515,-4.3515,-4.3515,-4.3515,-4.3515,-4.3515,-4.3515,-4.3515,-4.3515,-4.3167,-4.2673,-4.2189,-4.0994,-3.9659,-3.9175,-3.8528,-3.8148,-3.9112,-3.9844,-4.0313,-4.0166,-4.048,-4.0826,-4.0896,-4.0912,-4.0912,-4.0912,-4.0912,-4.0912,-4.0912,-4.0912,-4.0912,-4.0912,-4.0912,-4.0912,-4.0912,-4.0912,-4.0912,-4.0912,-4.0912,-4.0912,-4.0912,-4.0164,-3.9474,-3.8905,-3.8439,-3.7875,-3.7077,-3.6577,-3.6301,-3.6301,-3.6276,-3.6255,-3.6255,-3.6187,-3.6101,-3.6053,-3.5883,-3.5773,-3.5728,-3.5644,-3.56,-2.2747,-2.3443,-2.4446,0.0,0.0,0.0,0.0,0.0,0.0,0.0,0.0,0.0,0.0,0.0,0.0,0.0,-3.977,-4.1404,-4.1962,-4.2723,-4.3243,-4.3243,-4.3243,-4.3243,-4.3243,-4.3243,-4.3243,-4.3243,-4.3243,-4.3243,-4.3243,-4.3243,-4.3212,-4.3169,-4.2631,-4.2289,-4.2192,-4.164,-4.1329,-4.1298,-4.2327,-4.2794,-4.2777,-4.3001,-4.3112,-4.313,-4.3404,-4.3515,-4.3478,-4.3222,-4.3112,-4.3149,-4.3387,-4.3515,-4.3515,-4.3515,-4.3515,-4.346,-4.3221,-4.2763,-4.2213,-4.1717,-4.0615,-3.943,-3.9193,-3.8897,-3.8869,-3.9896,-4.0599,-4.1064,-4.1169,-4.1453,-4.1648,-4.1373,-4.1323,-4.1323,-4.1323,-4.1323,-4.1323,-4.1323,-4.1323,-4.1323,-4.1323,-4.1186,-4.1088,-4.1088,-4.0989,-4.0912,-4.0912,-4.0912,-4.0912,-4.0912,-4.0411,-3.9974,-3.9715,-3.9232,-3.8525,-3.7564,-3.6973,-3.6559,-3.6318,-3.6301,-3.6301,-3.6301,-3.6255,-3.6208,-3.6204,-3.6014,-3.5883,-3.5795,-3.5706,-3.5644,-2.3114,-2.3486,0.0,0.0,0.0,0.0,0.0,0.0,0.0,0.0,0.0,0.0,-3.6795,0.0,0.0,-3.7777,-3.9319,-4.0416,-4.0416,-4.1089,-4.159,-4.159,-4.159,-4.159,-4.159,-4.159,-4.159,-4.159,-4.159,-4.159,-4.159,-4.159,-4.159,-4.159,-4.159,-4.156,-4.1508,-4.1489,-4.1425,-4.1314,-4.1295,-4.1248,-4.124,-4.1952,-4.2286,-4.2341,-4.313,-4.3496,-4.3441,-4.2635,-4.2304,-4.2396,-4.3185,-4.3515,-4.3515,-4.3515,-4.3515,-4.3369,-4.258,-4.2286,-4.2011,-4.0414,-3.9882,-3.9735,-3.8946,-3.9811,-4.1077,-4.1095,-4.2249,-4.3391,-4.2995,-4.2557,-4.2198,-4.2198,-4.2198,-4.2198,-4.2198,-4.2198,-4.2198,-4.2198,-4.2198,-4.2198,-4.2198,-4.1821,-4.1494,-4.1494,-4.1163,-4.0912,-4.0912,-4.0912,-4.0912,-4.0912,-4.0912,-4.0584,-3.9767,-3.9715,-3.9077,-3.7616,-3.7512,-3.715,-3.6335,-3.6301,-3.6301,-3.6301,-3.6301,-3.6276,-3.6204,-3.6204,-3.6058,-3.5795,-3.5795,-3.5728,-2.3122,0.0,0.0,0.0,0.0,0.0,0.0,0.0,0.0,0.0,0.0,0.0,-3.811,0.0,0.0,-3.8171,-3.9424,-4.0416,-4.0416,-4.1089,-4.159,-4.159,-4.159,-4.159,-4.159,-4.159,-4.159,-4.159,-4.159,-4.159,-4.159,-4.159,-4.159,-4.159,-4.1051,-4.1033,-4.1579,-4.041,-4.0395,-4.1497,-4.0829,-4.0806,-4.1283,-4.1509,-4.1899,-4.2451,-4.2643,-4.305,-4.3546,-4.3275,-4.313,-4.3167,-4.3423,-4.3515,-4.3515,-4.3515,-4.313,-4.2616,-4.2378,-4.1552,-4.0524,-4.0047,-3.9515,-3.9019,-3.8781,-3.9038,-3.9646,-4.0783,-4.1425,-4.2051,-4.3064,-4.3214,-4.2958,-4.234,-4.2198,-4.2198,-4.2198,-4.2198,-4.2198,-4.2198,-4.2198,-4.2198,-4.2198,-4.1821,-4.1494,-4.1494,-4.1163,-4.0912,-4.0912,-4.0912,-4.0912,-4.0912,-4.0912,-4.0808,-4.0567,-4.0549,-3.9894,-3.8375,-3.8272,-3.7663,-3.6353,-3.6301,-3.6301,-3.6301,-3.6301,-3.628,-3.6276,-3.6229,-3.6161,-3.6075,-3.5883,-3.5773,-2.3944,0.0,0.0,0.0,0.0,0.0,0.0,0.0,0.0,0.0,0.0,-3.9165,-3.9085,-3.8822,0.0,-3.8754,-3.9488,-4.0001,-3.9909,-4.029,-4.0606,-4.0606,-4.0606,-4.0606,-4.0606,-4.0606,-4.0606,-4.0606,-4.0606,-4.0606,-4.0606,-4.094,-4.1107,-4.1107,-4.0958,-4.1107,-4.159,-4.0606,-4.0606,-4.159,-4.1045,-4.0985,-4.1425,-4.1677,-4.2087,-4.2567,-4.2834,-4.3041,-4.3205,-4.3103,-4.2869,-4.2575,-4.256,-4.2543,-4.2543,-4.2543,-4.2249,-4.1791,-4.146,-4.0708,-3.9845,-3.9533,-3.9093,-3.8707,-3.8707,-3.8927,-3.9441,-4.0728,-4.1334,-4.1882,-4.3167,-4.3515,-4.3375,-4.2846,-4.2732,-4.2732,-4.2732,-4.2732,-4.2732,-4.2732,-4.2732,-4.2732,-4.2732,-4.236,-4.199,-4.1799,-4.1277,-4.0912,-4.0912,-4.0912,-4.0912,-4.0912,-4.0912,-4.0912,-4.0912,-4.0912,-4.0256,-3.8703,-3.8594,-3.7905,-3.6353,-3.6301,-3.6301,-3.6301,-3.6301,-3.6301,-3.6301,-3.6255,-3.6229,-3.6204,-3.6036,-3.5927,0.0,0.0,0.0,0.0,0.0,0.0,0.0,0.0,0.0,0.0,0.0,-3.9298,-3.977,-3.9254,-3.8934,-3.9472,-3.952,-3.9408,-3.9165,-3.9115,-3.9101,-3.9101,-3.9101,-3.9101,-3.9101,-3.9101,-3.912,-3.9212,-3.9212,-3.925,-3.9324,-4.0067,-4.0494,-4.0494,-4.1219,-4.1627,-4.1702,-4.1627,-4.1664,-4.1813,-4.1739,-4.1739,-4.1832,-4.2307,-4.2543,-4.2654,-4.3469,-4.3396,-4.2712,-4.2578,-4.2048,-4.1314,-4.1252,-4.1183,-4.1128,-4.1128,-4.1073,-4.0907,-4.0171,-3.9877,-3.9693,-3.8961,-3.8704,-3.8723,-3.8723,-3.9237,-3.9955,-4.0855,-4.1625,-4.2396,-4.3293,-4.3515,-4.3515,-4.3515,-4.3496,-4.3515,-4.3515,-4.3515,-4.3515,-4.3515,-4.3515,-4.3515,-4.3515,-4.3178,-4.2731,-4.2198,-4.1463,-4.0942,-4.0894,-4.0912,-4.0912,-4.0912,-4.0912,-4.0877,-4.0808,-4.0791,-4.0152,-3.8594,-3.8491,-3.7836,-3.6353,-3.6301,-3.6301,-3.6301,-3.6301,-3.6301,-3.6301,-3.6301,-3.6276,-3.6208,-3.6187,-3.6122,0.0,-2.5966,0.0,0.0,0.0,0.0,0.0,0.0,0.0,0.0,-4.0295,-4.0202,-4.0334,-4.0079,-3.99,-4.0023,-3.9736,-3.9489,-3.9408,-3.9232,-3.9101,-3.9101,-3.9101,-3.9101,-3.9101,-3.9101,-3.938,-4.0067,-4.0118,-4.0401,-4.1033,-4.1237,-4.133,-4.133,-4.1497,-4.1887,-4.2537,-4.1924,-4.2222,-4.3485,-4.2835,-4.2872,-4.3448,-4.234,-4.2131,-4.2717,-4.3532,-4.3758,-4.3545,-4.3511,-4.2996,-4.2223,-4.2207,-4.1804,-4.1251,-4.1251,-4.0861,-4.029,-4.0121,-3.9641,-3.9091,-3.8907,-3.8822,-3.8777,-3.8777,-3.886,-3.9273,-4.0769,-4.127,-4.1732,-4.3317,-4.3617,-4.3496,-4.3565,-4.3549,-4.3515,-4.3515,-4.3515,-4.3515,-4.3515,-4.3515,-4.3515,-4.3515,-4.3178,-4.2614,-4.1778,-4.149,-4.126,-4.0942,-4.0912,-4.0912,-4.0912,-4.0912,-4.0653,-4.0008,-3.9957,-3.9319,-3.784,-3.7754,-3.7284,-3.6335,-3.6301,-3.6301,-3.6301,-3.6301,-3.6301,-3.6301,-3.6301,-3.6301,-3.6276,-3.6229,-3.6165,0.0,0.0,0.0,0.0,0.0,0.0,0.0,0.0,0.0,0.0,-4.09,-4.1623,-4.12,-4.1031,-4.0811,-4.0281,-3.9982,-3.9766,-3.9532,-3.9389,-3.9245,-3.9115,-3.9101,-3.925,-3.9677,-3.9714,-4.0067,-4.0903,-4.0958,-4.1144,-4.1571,-4.1962,-4.2166,-4.2166,-4.2556,-4.2946,-4.3373,-4.2965,-4.3169,-4.3986,-4.3578,-4.3596,-4.3968,-4.3132,-4.2953,-4.3348,-4.3775,-4.3929,-4.3862,-4.3442,-4.2778,-4.1986,-4.1533,-4.0852,-4.0151,-4.0151,-3.9874,-3.9538,-3.9538,-3.9243,-3.891,-3.891,-3.8881,-3.8851,-3.8851,-3.908,-3.962,-4.0883,-4.1512,-4.2122,-4.3457,-4.3719,-4.3652,-4.3703,-4.36,-4.3515,-4.3515,-4.3515,-4.3515,-4.3515,-4.3515,-4.3515,-4.3515,-4.3178,-4.2731,-4.2239,-4.1969,-4.1756,-4.1552,-4.1529,-4.144,-4.1209,-4.1186,-4.0781,-3.979,-3.9698,-3.906,-3.7599,-3.7512,-3.715,-3.6335,-3.6301,-3.6301,-3.6301,-3.6301,-3.6301,-3.6301,-3.6301,-3.6301,-3.6301,-3.6255,-3.6251,0.0,0.0,0.0,0.0,0.0,0.0,0.0,0.0,0.0,0.0,-4.1296,-4.2662,-4.1923,-4.1923,-4.1728,-4.0833,-4.0663,-4.0509,-4.0101,-4.0025,-3.9902,-3.9634,-3.9593,-3.9877,-4.0546,-4.062,-4.094,-4.1739,-4.1813,-4.1813,-4.1813,-4.2575,-4.2946,-4.2797,-4.3578,-4.4005,-4.4005,-4.4005,-4.4005,-4.4005,-4.4005,-4.4005,-4.4005,-4.4005,-4.4005,-4.4005,-4.4005,-4.4005,-4.3949,-4.3219,-4.2372,-4.1449,-4.0666,-3.9786,-3.8935,-3.8935,-3.8935,-3.8935,-3.8935,-3.8935,-3.8935,-3.8935,-3.8921,-3.8925,-3.8925,-3.9368,-4.0092,-4.1049,-4.1841,-4.2601,-4.3578,-4.382,-4.3804,-4.382,-4.3686,-4.3549,-4.3549,-4.3532,-4.3513,-4.3549,-4.3532,-4.3496,-4.3496,-4.3214,-4.2976,-4.2901,-4.2575,-4.2279,-4.2198,-4.2198,-4.2053,-4.167,-4.1626,-4.1104,-3.9815,-3.9723,-3.9059,-3.7482,-3.7395,-3.7059,-3.6335,-3.6301,-3.6301,-3.6301,-3.6301,-3.6301,-3.6301,-3.6301,-3.6301,-3.6301,-3.6301,-3.6301,0.0,0.0,0.0,0.0,0.0,0.0,0.0,0.0,0.0,0.0,-4.12,-4.1942,-4.1808,-4.2431,-4.2885,-4.2753,-4.2516,-4.2335,-4.2276,-4.2126,-4.191,-4.1636,-4.1597,-4.1565,-4.1452,-4.1441,-4.1757,-4.2575,-4.263,-4.263,-4.263,-4.3392,-4.3522,-4.2816,-4.3578,-4.4005,-4.4005,-4.4005,-4.4005,-4.4005,-4.4005,-4.4005,-4.4005,-4.4005,-4.4005,-4.4005,-4.4005,-4.4005,-4.3986,-4.3859,-4.2931,-4.1575,-4.1464,-4.0447,-3.9073,-3.9073,-3.9073,-3.9073,-3.9073,-3.9073,-3.9073,-3.9073,-3.9017,-3.8997,-3.8997,-3.9028,-3.9405,-4.1018,-4.1465,-4.1875,-4.3553,-4.3899,-4.382,-4.3883,-4.3818,-4.3771,-4.3771,-4.3686,-4.3634,-4.3754,-4.3686,-4.3565,-4.3515,-4.3463,-4.3304,-4.2939,-4.2844,-4.2653,-4.2239,-4.2198,-4.2177,-4.2115,-4.2095,-4.1469,-3.9917,-3.9793,-3.8978,-3.7103,-3.6978,-3.678,-3.6322,-3.6301,-3.6301,-3.6301,-3.6301,-3.6301,-3.6301,-3.6301,-3.6301,-3.6301,-3.6301,-3.6301,0.0,0.0,0.0,0.0,0.0,0.0,0.0,0.0,0.0,-3.8975,-3.9819,-4.0392,-4.0392,-4.1085,-4.1489,-4.1046,-4.1654,-4.2142,-4.1992,-4.2333,-4.2482,-4.2262,-4.209,-4.2136,-4.2455,-4.2358,-4.2222,-4.2129,-4.2129,-4.172,-4.0773,-4.1051,-4.1089,-4.0736,-4.107,-4.1256,-4.1256,-4.1256,-4.1497,-4.198,-4.289,-4.3336,-4.3336,-4.3782,-4.4005,-4.4005,-4.4005,-4.4005,-4.4005,-4.4005,-4.3318,-4.2222,-4.1776,-4.0866,-3.977,-3.9287,-3.9101,-3.9175,-3.9658,-3.951,-3.9175,-3.9658,-3.9482,-3.9064,-3.9064,-3.9699,-4.0574,-4.1345,-4.2165,-4.3002,-4.3785,-4.3961,-4.3913,-4.3961,-4.3929,-4.3913,-4.3913,-4.3818,-4.3736,-4.3788,-4.3736,-4.3667,-4.3565,-4.3548,-4.3479,-4.3268,-4.325,-4.316,-4.294,-4.2921,-4.2846,-4.2614,-4.2595,-4.2031,-4.0649,-4.0522,-3.9786,-3.8011,-3.7709,-3.7279,-3.6655,-3.6409,-3.6301,-3.6301,-3.6301,-3.6301,-3.6301,-3.6301,-3.6301,-3.6301,-3.6301,-3.6301,0.0,0.0,0.0,0.0,0.0,0.0,0.0,0.0,0.0,0.0,-3.7923,-3.8395,-3.8626,-3.9684,-4.0312,-3.9708,-4.0669,-4.1418,-4.1195,-4.1732,-4.2059,-4.1844,-4.1635,-4.1725,-4.2259,-4.2067,-4.1692,-4.1096,-4.1002,-4.0327,-3.8859,-3.899,-3.9008,-3.8804,-3.899,-3.9101,-3.9101,-3.9101,-3.9435,-4.01,-4.172,-4.25,-4.2519,-4.354,-4.4005,-4.4005,-4.4005,-4.4005,-4.4005,-4.4005,-4.3522,-4.2742,-4.2129,-4.1404,-4.0624,-3.9974,-3.9733,-3.9825,-4.0476,-4.0271,-3.9844,-4.0494,-4.0271,-3.9733,-3.9733,-4.0606,-4.1627,-4.185,-4.276,-4.3745,-4.3949,-4.4005,-4.4005,-4.4005,-4.4005,-4.4005,-4.3974,-4.3913,-4.3835,-4.3804,-4.382,-4.3786,-4.3667,-4.3651,-4.3634,-4.3583,-4.3549,-4.3532,-4.3532,-4.3515,-4.3375,-4.3069,-4.305,-4.2612,-4.1498,-4.1407,-4.0775,-3.9245,-3.8583,-3.8025,-3.7534,-3.6741,-3.6404,-3.6594,-3.6404,-3.6301,-3.6301,-3.6301,-3.6301,-3.6301,-3.6301,-3.6301,0.0,0.0,0.0,0.0,0.0,0.0,0.0,0.0,0.0,-3.5553,-3.5701,-3.5952,-3.678,-3.8931,-4.0554,-4.0446,-4.0565,-4.0642,-4.0566,-4.0596,-4.0523,-4.0253,-4.0215,-4.0117,-3.9898,-3.9695,-3.9558,-3.952,-3.9349,-3.8859,-3.8005,-3.8692,-3.8748,-3.7986,-3.8692,-3.9101,-3.9101,-3.9101,-3.912,-3.9194,-4.0847,-4.1664,-4.172,-4.328,-4.4005,-4.4005,-4.4005,-4.4005,-4.4005,-4.4005,-4.3522,-4.2797,-4.2742,-4.224,-4.1534,-4.1479,-4.146,-4.1479,-4.1516,-4.1497,-4.1479,-4.1516,-4.1497,-4.146,-4.146,-4.1534,-4.1757,-4.2519,-4.2797,-4.3039,-4.3801,-4.4005,-4.4005,-4.4005,-4.4005,-4.3974,-4.3913,-4.3961,-4.3942,-4.3818,-4.3851,-4.3883,-4.3804,-4.3788,-4.3788,-4.3788,-4.3667,-4.3582,-4.3582,-4.3531,-4.3479,-4.3462,-4.348,-4.3133,-4.2309,-4.2254,-4.1715,-4.0473,-3.9318,-3.8814,-3.9153,-3.7314,-3.6663,-3.7426,-3.668,-3.6301,-3.6301,-3.6301,-3.6301,-3.6301,-3.6301,-3.6301,0.0,0.0,0.0,0.0,0.0,0.0,0.0,0.0,-3.3917,-3.5313,-3.5134,-3.5149,-3.6543,-3.7539,-3.8154,-3.814,-3.9052,-3.9752,-3.9718,-4.0165,-4.0454,-4.0381,-4.0193,-4.0072,-3.9964,-3.9742,-3.9161,-3.8116,-3.7882,-3.7168,-3.5853,-3.5882,-3.5813,-3.5535,-3.5795,-3.5962,-3.5962,-3.6513,-3.6792,-3.6798,-3.8432,-3.9231,-3.9287,-4.146,-4.2463,-4.2519,-4.3559,-4.4005,-4.4005,-4.4005,-4.3838,-4.3522,-4.3002,-4.2612,-4.2314,-4.1776,-4.159,-4.1664,-4.2184,-4.2017,-4.1683,-4.2203,-4.2017,-4.159,-4.159,-4.1962,-4.2426,-4.2723,-4.3169,-4.3633,-4.3931,-4.4005,-4.4005,-4.4005,-4.4005,-4.3989,-4.3958,-4.3974,-4.3989,-4.3945,-4.3961,-4.3945,-4.3883,-4.3867,-4.3851,-4.3804,-4.3753,-4.3736,-4.3736,-4.3634,-4.3565,-4.3565,-4.3532,-4.3386,-4.3075,-4.3057,-4.2675,-4.1732,-4.0761,-4.0053,-3.97,-3.8457,-3.768,-3.7512,-3.7236,-3.6818,-3.6301,-3.6301,-3.6301,-3.6301,-3.6301,-3.6301,-1.7871,0.0,0.0,0.0,0.0,0.0,0.0,0.0,-3.2308,-3.397,-3.4096,-3.4324,-3.5706,-3.5958,-3.6241,-3.7102,-3.8188,-3.8921,-3.89,-3.936,-3.9588,-3.9265,-3.9071,-3.8844,-3.8576,-3.8328,-3.7763,-3.6682,-3.6415,-3.5838,-3.4756,-3.4465,-3.4293,-3.4209,-3.4197,-3.4197,-3.4197,-3.4773,-3.5064,-3.5083,-3.6705,-3.7503,-3.7559,-3.9751,-4.107,-4.1664,-4.2723,-4.3503,-4.4005,-4.4005,-4.4005,-4.3949,-4.341,-4.3206,-4.3132,-4.2593,-4.2407,-4.2482,-4.302,-4.2853,-4.2482,-4.302,-4.2835,-4.2407,-4.2407,-4.2779,-4.3206,-4.3206,-4.3596,-4.4005,-4.4005,-4.4005,-4.4005,-4.4005,-4.4005,-4.4005,-4.4005,-4.4005,-4.4005,-4.4005,-4.4005,-4.3989,-4.3945,-4.3929,-4.3913,-4.3883,-4.3851,-4.3818,-4.3818,-4.3736,-4.3667,-4.3667,-4.3617,-4.3583,-4.3549,-4.3531,-4.3293,-4.2727,-4.1814,-4.1108,-4.0683,-3.9494,-3.8651,-3.8254,-3.7754,-3.7254,-3.6697,-3.6422,-3.6301,-3.6301,-3.6301,-3.6301,0.0,0.0,0.0,0.0,0.0,0.0,0.0,0.0,-2.9669,-3.1405,-3.2429,-3.3258,-3.4138,-3.4293,-3.5112,-3.7611,-3.8074,-3.8093,-3.8046,-3.802,-3.7691,-3.6815,-3.6692,-3.6404,-3.5654,-3.5369,-3.5237,-3.5237,-3.5047,-3.4917,-3.4917,-3.471,-3.4484,-3.4221,-3.4209,-3.4197,-3.4197,-3.4197,-3.4197,-3.4216,-3.585,-3.663,-3.6681,-3.8284,-3.9918,-4.146,-4.1534,-4.2463,-4.3931,-4.3986,-4.4005,-4.4005,-4.4005,-4.4005,-4.4005,-4.4005,-4.4005,-4.4005,-4.4005,-4.4005,-4.4005,-4.4005,-4.4005,-4.4005,-4.4005,-4.4005,-4.4005,-4.4005,-4.4005,-4.4005,-4.4005,-4.4005,-4.4005,-4.4005,-4.4005,-4.4005,-4.4005,-4.4005,-4.4005,-4.4005,-4.4005,-4.4005,-4.4005,-4.4005,-4.4005,-4.4005,-4.3926,-4.3897,-4.3897,-4.3835,-4.3804,-4.3804,-4.3804,-4.3754,-4.3634,-4.3599,-4.3565,-4.3515,-4.2395,-4.1881,-4.2221,-4.0406,-3.9485,-3.9715,-3.8316,-3.7556,-3.7504,-3.6701,-3.6301,-3.6301,-3.6301,-3.6301,-1.8258,0.0,0.0,0.0,0.0,0.0,0.0,0.0,0.0,-3.0327,-3.0612,-3.1188,-3.388,-3.4364,-3.4803,-3.6145,-3.6348,-3.6318,-3.628,-3.6254,-3.6341,-3.6661,-3.6692,-3.6865,-3.7276,-3.6695,-3.6288,0.0,-3.5559,-3.5115,-3.5115,-3.4791,-3.458,-3.4495,-3.4293,-3.4197,-3.4197,-3.4197,-3.4197,-3.4197,-3.4661,-3.4884,-3.494,-3.6612,-3.7628,-3.8154,-3.9937,-4.1311,-4.2352,-4.3522,-4.4005,-4.4005,-4.4005,-4.4005,-4.4005,-4.4005,-4.4005,-4.4005,-4.4005,-4.4005,-4.4005,-4.4005,-4.4005,-4.4005,-4.4005,-4.4005,-4.4005,-4.4005,-4.4005,-4.4005,-4.4005,-4.4005,-4.4005,-4.4005,-4.4005,-4.4005,-4.4005,-4.4005,-4.4005,-4.4005,-4.4005,-4.4005,-4.4005,-4.4005,-4.4005,-4.4005,-4.3989,-4.3974,-4.3974,-4.3913,-4.3883,-4.3883,-4.3837,-4.3788,-4.3736,-4.3651,-4.3582,-4.3565,-4.2941,-4.2609,-4.2711,-4.1866,-4.0905,-3.9861,-3.9436,-3.8658,-3.7506,-3.6681,-3.6301,-3.6301,-3.6301,-3.6301,0.0,0.0,0.0,0.0,0.0,0.0,-2.5027,-2.5221,0.0,0.0,-2.8857,-2.9364,-3.1357,-3.2034,-3.2556,-3.3421,-3.3829,-3.4394,-3.5455,-3.5856,-3.608,-3.6201,-3.6199,-3.6404,-3.6911,-3.6788,-3.6692,-3.6692,-3.6151,-3.5779,-3.5714,-3.5485,-3.5473,-3.5761,-3.5184,-3.4871,-3.4871,-3.4406,-3.4197,-3.4197,-3.4197,-3.4197,-3.4234,-3.52,-3.6036,-3.6779,-3.8228,-3.9695,-4.12,-4.2463,-4.3392,-4.4005,-4.4005,-4.4005,-4.4005,-4.4005,-4.4005,-4.4005,-4.4005,-4.4005,-4.4005,-4.4005,-4.4005,-4.4005,-4.4005,-4.4005,-4.4005,-4.4005,-4.4005,-4.4005,-4.4005,-4.4005,-4.4005,-4.4005,-4.4005,-4.4005,-4.4005,-4.4005,-4.4005,-4.4005,-4.4005,-4.4005,-4.4005,-4.4005,-4.4005,-4.4005,-4.4005,-4.4005,-4.4005,-4.3976,-4.3945,-4.3945,-4.3897,-4.3883,-4.3835,-4.3767,-4.3682,-4.3599,-4.3339,-4.3105,-4.2901,-4.2634,-4.1827,-4.0397,-4.004,-3.9094,-3.7505,-3.686,-3.6471,-3.6301,-3.6301,-3.6301,0.0,0.0,0.0,0.0,0.0,0.0,-2.4737,-2.4699,-2.4621,0.0,-2.7039,-2.7623,-2.7817,-2.8494,-2.9302,-3.0172,-3.1076,-3.2524,-3.4971,-3.5938,-3.6119,-3.5445,-3.5373,-3.5391,-3.5488,-3.6142,-3.6565,-3.6577,-3.6577,-3.648,-3.6302,-3.6277,-3.6582,-3.7271,-3.6348,-3.5881,-3.5985,-3.5037,-3.4498,-3.4405,-3.4405,-3.4355,-3.4245,-3.4245,-3.5039,-3.6439,-3.6532,-3.787,-4.0062,-4.094,-4.2333,-4.3875,-4.3968,-4.4005,-4.4005,-4.4005,-4.4005,-4.4005,-4.4005,-4.4005,-4.4005,-4.4005,-4.4005,-4.4005,-4.4005,-4.4005,-4.4005,-4.4005,-4.4005,-4.4005,-4.4005,-4.4005,-4.4005,-4.4005,-4.4005,-4.4005,-4.4005,-4.4005,-4.4005,-4.4005,-4.4005,-4.4005,-4.4005,-4.4005,-4.4005,-4.4005,-4.4005,-4.4005,-4.4005,-4.4005,-4.4005,-4.4005,-4.4005,-4.3974,-4.3913,-4.3897,-4.3832,-4.3632,-4.3599,-4.3409,-4.2995,-4.2867,-4.2263,-4.1033,-4.0138,-3.8974,-3.756,-3.7132,-3.6719,-3.6385,-3.6322,-3.6301,0.0,0.0,0.0,0.0,0.0,0.0,-2.3616,-2.3828,-2.4292,0.0,-2.4815,-2.5356,-2.6706,-2.7093,-2.748,-2.8378,-2.9819,-3.1487,-3.3335,-3.3674,-3.394,-3.4474,-3.4526,-3.4802,-3.5444,-3.5637,-3.572,-3.5731,-3.5731,-3.5717,-3.5669,-3.5511,-3.5785,-3.6561,-3.6245,-3.6375,-3.7077,-3.6885,-3.6419,-3.5737,-3.5737,-3.5313,-3.4517,-3.4517,-3.4584,-3.4717,-3.5436,-3.6383,-3.7535,-3.899,-4.094,-4.3095,-4.3745,-4.4005,-4.4005,-4.4005,-4.4005,-4.4005,-4.4005,-4.4005,-4.4005,-4.4005,-4.4005,-4.4005,-4.4005,-4.4005,-4.4005,-4.4005,-4.4005,-4.4005,-4.4005,-4.4005,-4.4005,-4.4005,-4.4005,-4.4005,-4.4005,-4.4005,-4.4005,-4.4005,-4.4005,-4.4005,-4.4005,-4.4005,-4.4005,-4.4005,-4.4005,-4.4005,-4.4005,-4.4005,-4.4005,-4.4005,-4.4005,-4.3989,-4.3974,-4.3929,-4.3881,-4.3849,-4.3682,-4.3565,-4.3479,-4.2787,-4.1987,-4.1097,-3.9654,-3.8611,-3.7965,-3.7247,-3.686,-3.6779,-3.6451,-3.6301,0.0,0.0,0.0,-2.4908,0.0,0.0,0.0,-2.4486,-2.4447,-2.5275,-2.4776,-2.4583,-2.5874,-2.5758,-2.5739,-2.6613,-2.7813,-2.9099,-3.0385,-3.1616,-3.256,-3.2998,-3.3026,-3.3336,-3.4166,-3.4616,-3.4841,-3.4853,-3.4853,-3.4853,-3.4853,-3.516,-3.5718,-3.6523,-3.6788,-3.7099,-3.7547,-3.7452,-3.7175,-3.6748,-3.6302,-3.5845,-3.5337,-3.4931,-3.4618,-3.4423,-3.4853,-3.5453,-3.6235,-3.7838,-3.9733,-4.172,-4.2927,-4.3652,-4.4005,-4.4005,-4.4005,-4.4005,-4.4005,-4.4005,-4.4005,-4.4005,-4.4005,-4.4005,-4.4005,-4.4005,-4.4005,-4.4005,-4.4005,-4.4005,-4.4005,-4.4005,-4.4005,-4.4005,-4.4005,-4.4005,-4.4005,-4.4005,-4.4005,-4.4005,-4.4005,-4.4005,-4.4005,-4.4005,-4.4005,-4.4005,-4.4005,-4.4005,-4.4005,-4.4005,-4.4005,-4.4005,-4.4005,-4.4005,-4.4005,-4.3958,-4.3945,-4.3897,-4.3816,-4.3734,-4.3684,-4.2844,-4.1767,-4.0524,-3.9331,-3.8596,-3.8401,-3.7791,-3.7395,-3.7189,-3.6799,-3.6597,0.0,0.0,0.0,0.0,0.0,-2.5569,0.0,0.0,0.0,0.0,0.0,0.0,0.0,0.0,0.0,0.0,0.0,0.0,0.0,-2.952,0.0,-3.1047,-3.1021,-3.1334,-3.2196,-3.2856,-3.3448,-3.3923,-3.3654,-3.3609,-3.3936,-3.4622,-3.5442,-3.6442,-3.6983,-3.7513,-3.8,-3.786,-3.7766,-3.7766,-3.7053,-3.6606,-3.6378,-3.5562,-3.5087,-3.4883,-3.4733,-3.4944,-3.5508,-3.6951,-3.8516,-4.0156,-4.2066,-4.328,-4.4005,-4.4005,-4.4005,-4.4005,-4.4005,-4.4005,-4.4005,-4.4005,-4.4005,-4.4005,-4.4005,-4.4005,-4.4005,-4.4005,-4.4005,-4.4005,-4.4005,-4.4005,-4.4005,-4.4005,-4.4005,-4.4005,-4.4005,-4.4005,-4.4005,-4.4005,-4.4005,-4.4005,-4.4005,-4.4005,-4.4005,-4.4005,-4.4005,-4.4005,-4.4005,-4.4005,-4.4005,-4.4005,-4.4005,-4.4005,-4.4005,-4.4005,-4.3974,-4.3929,-4.3897,-4.3883,-4.382,-4.276,-4.1406,-3.9727,-3.9065,-3.8719,-3.8719,-3.8382,-3.8016,-3.7614,-3.7132,-3.69,0.0,0.0,0.0,0.0,-2.8292,0.0,0.0,0.0,-2.5836,-2.3751,0.0,0.0,0.0,0.0,0.0,0.0,0.0,0.0,-2.6725,-2.7108,-2.7572,-2.8335,-2.8427,-2.8762,-2.9646,-2.9746,-3.0703,-3.2979,-3.1696,-3.1486,-3.2968,-3.3141,-3.3949,-3.5577,-3.5717,-3.6825,-3.91,-3.9104,-3.9077,-3.9077,-3.8981,-3.8449,-3.7493,-3.6625,-3.6119,-3.5902,-3.5182,-3.4898,-3.5048,-3.5936,-3.7137,-3.8733,-4.1659,-4.328,-4.4005,-4.4005,-4.4005,-4.4005,-4.4005,-4.4005,-4.4005,-4.4005,-4.4005,-4.4005,-4.4005,-4.4005,-4.4005,-4.4005,-4.4005,-4.4005,-4.4005,-4.4005,-4.4005,-4.4005,-4.4005,-4.4005,-4.4005,-4.4005,-4.4005,-4.4005,-4.4005,-4.4005,-4.4005,-4.4005,-4.4005,-4.4005,-4.4005,-4.4005,-4.4005,-4.4005,-4.4005,-4.4005,-4.4005,-4.4005,-4.4005,-4.4005,-4.4005,-4.3989,-4.3929,-4.3915,-4.3899,-4.2303,-4.0668,-3.9047,-3.8918,-3.8851,-3.8792,-3.8728,-3.8478,-3.7999,-3.7247,-3.69,0.0,0.0,0.0,0.0,0.0,0.0,-2.618,0.0,-2.5836,0.0,0.0,0.0,0.0,0.0,0.0,0.0,-2.3983,0.0,0.0,0.0,-2.5376,0.0,0.0,0.0,-2.8453,-2.8053,-2.8382,-2.9938,-2.8895,-2.8937,-3.0664,-3.1204,-3.2012,-3.3262,-3.4725,-3.6014,-3.7074,-3.8561,-3.9304,-3.9304,-3.9304,-3.9054,-3.8588,-3.7724,-3.6938,-3.6251,-3.5928,-3.5437,-3.4965,-3.576,-3.6711,-3.7887,-4.0183,-4.1973,-4.3299,-4.3299,-4.3596,-4.4005,-4.4005,-4.4005,-4.4005,-4.4005,-4.4005,-4.4005,-4.4005,-4.4005,-4.4005,-4.4005,-4.4005,-4.4005,-4.4005,-4.4005,-4.4005,-4.4005,-4.4005,-4.4005,-4.4005,-4.4005,-4.4005,-4.4005,-4.4005,-4.4005,-4.4005,-4.4005,-4.4005,-4.4005,-4.4005,-4.4005,-4.4005,-4.4005,-4.4005,-4.4005,-4.4005,-4.4005,-4.4005,-4.4005,-4.4005,-4.4005,-4.3547,-4.3036,-4.2526,-4.1329,-4.0119,-3.8929,-3.891,-3.8896,-3.8866,-3.8866,-3.8743,-3.8494,-3.7878,-3.7469,-2.9716,0.0,0.0,0.0,0.0,0.0,0.0,0.0,0.0,0.0,0.0,0.0,0.0,0.0,0.0,0.0,0.0,-2.2981,0.0,-2.2865,0.0,0.0,0.0,0.0,0.0,-2.6666,-2.6556,-2.7822,-2.668,-2.6897,-2.9088,-2.9754,-3.0562,-3.1669,-3.3724,-3.5033,-3.5528,-3.7588,-3.8845,-3.9333,-3.9333,-3.9449,-3.9622,-3.8775,-3.7966,-3.7206,-3.673,-3.6094,-3.546,-3.5785,-3.6378,-3.7204,-3.8677,-4.054,-4.2399,-4.2838,-4.3515,-4.4206,-4.4206,-4.4206,-4.4206,-4.4206,-4.4206,-4.4206,-4.4206,-4.4166,-4.4106,-4.4106,-4.4064,-4.4005,-4.4005,-4.4005,-4.4005,-4.4005,-4.4005,-4.4005,-4.4005,-4.4005,-4.4005,-4.4005,-4.4005,-4.4005,-4.4005,-4.4005,-4.4005,-4.4005,-4.4005,-4.4005,-4.4005,-4.4005,-4.4005,-4.4005,-4.4005,-4.4005,-4.4005,-4.4005,-4.4005,-4.4005,-4.3243,-4.2414,-4.1556,-4.0704,-3.9841,-3.8968,-3.895,-3.895,-3.8939,-3.8939,-3.8877,-3.8822,-3.8348,-3.7965,0.0,0.0,0.0,-2.9024,0.0,0.0,0.0,0.0,-2.7469,0.0,0.0,0.0,0.0,0.0,0.0,0.0,0.0,0.0,0.0,0.0,0.0,0.0,0.0,0.0,0.0,-2.5256,-2.5306,0.0,-2.5683,-2.5715,-2.9011,-2.9217,-2.9993,-3.165,-3.2594,-3.3897,-3.5579,-3.6447,-3.7739,-3.9397,-3.9397,-3.9809,-4.053,-3.972,-3.9334,-3.9211,-3.7519,-3.6774,-3.6671,-3.5862,-3.5873,-3.6515,-3.7491,-3.925,-4.1423,-4.2931,-4.4032,-4.4763,-4.4763,-4.4763,-4.4763,-4.4763,-4.4763,-4.4763,-4.4763,-4.4585,-4.4402,-4.4402,-4.4192,-4.4005,-4.4005,-4.4005,-4.4005,-4.4005,-4.4005,-4.4005,-4.4005,-4.4005,-4.4005,-4.4005,-4.4005,-4.4005,-4.4005,-4.4005,-4.4005,-4.4005,-4.4005,-4.4005,-4.4005,-4.4005,-4.4005,-4.4005,-4.4005,-4.4005,-4.4005,-4.4005,-4.4005,-4.4005,-4.3243,-4.2445,-4.1627,-4.081,-3.9974,-3.912,-3.9101,-3.9059,-3.9011,-3.9011,-3.895,-3.8896,-3.8426,-3.8167,-3.3086,-3.3555,-3.3535,-3.0632,-3.013,-2.9648,-2.7015,0.0,0.0,0.0,0.0,0.0,0.0,0.0,0.0,0.0,0.0,0.0,0.0,0.0,0.0,0.0,0.0,0.0,0.0,0.0,0.0,-2.5422,-2.4695,0.0,-2.7422,-2.8044,-2.8873,-3.0065,-3.1998,-3.3296,-3.3936,-3.5842,-3.7398,-3.8543,-3.9115,-3.9809,-4.0595,-4.0325,-3.99,-3.9379,-3.8787,-3.7874,-3.6775,-3.6485,-3.6472,-3.6752,-3.7651,-3.9496,-4.1752,-4.2506,-4.3653,-4.4849,-4.4831,-4.4788,-4.4788,-4.4788,-4.4788,-4.4788,-4.4788,-4.4739,-4.4663,-4.4663,-4.4599,-4.4538,-4.4538,-4.4538,-4.4465,-4.4303,-4.426,-4.4221,-4.4033,-4.4005,-4.4005,-4.4005,-4.4005,-4.4005,-4.4005,-4.4005,-4.4005,-4.4005,-4.4005,-4.4005,-4.4005,-4.4005,-4.4005,-4.4005,-4.4005,-4.4005,-4.4005,-4.4005,-4.4005,-4.4005,-4.2742,-4.1869,-4.1609,-4.0271,-3.9398,-3.9101,-3.9101,-3.9087,-3.9078,-3.9078,-3.9036,-3.895,-3.8815,-3.8551,-3.4874,-3.5207,-3.5073,-3.2754,-3.1952,-3.1049,-2.8412,-2.8902,-2.9273,0.0,0.0,0.0,0.0,0.0,0.0,0.0,0.0,0.0,0.0,-2.1959,0.0,0.0,0.0,0.0,0.0,0.0,-2.3345,-2.4563,-2.3817,0.0,0.0,-2.7493,-2.8357,-2.926,-3.1722,-3.3059,-3.3095,-3.5299,-3.6992,-3.8138,-3.8691,-3.956,-4.0668,-4.0668,-4.0378,-3.9882,-3.9534,-3.8601,-3.727,-3.6961,-3.6652,-3.6484,-3.7668,-3.9335,-4.1181,-4.2276,-4.375,-4.5173,-4.5142,-4.512,-4.512,-4.512,-4.512,-4.512,-4.512,-4.5047,-4.4969,-4.4977,-4.4919,-4.483,-4.48,-4.4812,-4.4776,-4.4585,-4.4533,-4.4493,-4.4322,-4.4279,-4.425,-4.4166,-4.4151,-4.4106,-4.402,-4.4005,-4.4005,-4.4005,-4.4005,-4.4005,-4.4005,-4.4005,-4.4005,-4.4005,-4.4005,-4.4005,-4.4005,-4.4005,-4.4005,-4.4005,-4.2482,-4.159,-4.159,-3.9993,-3.9101,-3.9101,-3.9101,-3.9101,-3.9101,-3.9101,-3.9073,-3.9036,-3.9036,-3.8869]},{"header":{"parameterUnit":"m.s-1","parameterCategory":1,"la1":30.6,"la2":29.2853,"lo1":-89.7004,"lo2":-87.6739,"dy":0.0162,"dx":0.0183,"nx":112,"ny":82,"refTime":"2025-05-22T06:00:00:Z","depth":0,"parameterNumber":3,"parameterNumberName":"V-component_of_WINDS"},"data":[0.0,0.0,0.0,0.0,0.0,0.0,0.0,0.0,0.0,0.0,0.0,0.0,0.0,0.0,0.0,0.0,0.0,0.0,0.0,0.0,0.0,0.0,0.0,0.0,0.0,0.0,0.0,0.0,0.0,0.0,0.0,0.0,0.0,0.0,0.0,0.0,0.0,0.0,0.0,0.0,0.0,0.0,0.0,0.0,0.0,0.0,0.0,0.0,0.0,0.0,0.0,0.0,0.0,0.0,0.0,0.0,0.0,0.0,0.0,0.0,0.0,0.0,0.0,0.0,0.0,0.0,0.0,0.0,0.0,0.0,0.0,0.0,0.0,0.0,0.0,0.0,0.0,0.0,0.0,0.0,0.0,0.0,0.0,0.0,0.0,0.0,0.0,0.0,0.0,0.0,-1.0478,-1.1893,-1.3039,-1.3404,-1.2665,-1.247,-1.1485,-0.9353,0.0,0.0,0.0,0.0,0.0,0.0,0.0,0.0,0.0,0.0,0.0,0.0,0.0,0.0,0.0,0.0,0.0,0.0,0.0,0.0,0.0,0.0,0.0,0.0,0.0,0.0,0.0,0.0,0.0,0.0,0.0,0.0,0.0,0.0,0.0,0.0,0.0,0.0,0.0,0.0,0.0,0.0,0.0,0.0,0.0,0.0,0.0,0.0,0.0,0.0,0.0,0.0,0.0,0.0,0.0,0.0,0.0,0.0,0.0,0.0,0.0,0.0,0.0,0.0,0.0,0.0,0.0,0.0,0.0,0.0,0.0,0.0,0.0,0.0,0.0,0.0,0.0,0.0,0.0,0.0,0.0,0.0,0.0,0.0,0.0,0.0,0.0,0.0,0.0,0.0,0.0,0.0,0.0,0.0,0.0,0.0,0.0,0.0,0.0,0.0,0.0,0.0,0.0,0.0,-1.0455,-1.2524,-1.3323,-1.3643,-1.3502,-1.2766,-1.1587,-0.9893,0.0,0.0,0.0,0.0,0.0,0.0,0.0,0.0,0.0,0.0,0.0,0.0,0.0,0.0,0.0,0.0,0.0,0.0,0.0,0.0,0.0,0.0,0.0,0.0,0.0,0.0,0.0,0.0,0.0,0.0,0.0,0.0,0.0,0.0,0.0,0.0,0.0,0.0,0.0,0.0,0.0,0.0,0.0,0.0,0.0,0.0,0.0,0.0,0.0,0.0,0.0,0.0,0.0,0.0,0.0,0.0,0.0,0.0,0.0,0.0,0.0,0.0,0.0,0.0,0.0,0.0,0.0,0.0,0.0,0.0,0.0,0.0,0.0,0.0,0.0,0.0,0.0,0.0,0.0,0.0,0.0,0.0,0.0,0.0,0.0,0.0,0.0,0.0,0.0,0.0,0.0,0.0,0.0,0.0,0.0,0.0,0.0,0.0,0.0,0.0,0.0,0.0,0.0,-1.0398,-1.1215,-1.2874,-1.3289,-1.3425,-1.3425,-1.278,-1.1643,-1.0006,-0.9378,0.0,0.0,0.0,0.0,0.0,0.0,0.0,0.0,0.0,0.0,0.0,0.0,0.0,0.0,0.0,0.0,0.0,0.0,0.0,0.0,0.0,0.0,0.0,0.0,0.0,0.0,0.0,0.0,0.0,0.0,0.0,0.0,0.0,0.0,0.0,0.0,0.0,0.0,0.0,0.0,0.0,0.0,0.0,0.0,0.0,0.0,0.0,0.0,0.0,0.0,0.0,0.0,0.0,0.0,0.0,0.0,0.0,0.0,0.0,0.0,0.0,0.0,0.0,0.0,0.0,0.0,0.0,0.0,0.0,0.0,0.0,0.0,0.0,0.0,0.0,0.0,0.0,0.0,0.0,0.0,0.0,0.0,0.0,0.0,0.0,0.0,0.0,0.0,0.0,0.0,0.0,0.0,0.0,0.0,0.0,0.0,0.0,0.0,0.0,0.0,0.0,0.0,-1.1508,-1.2164,-1.3292,-1.3273,-1.3248,-1.3403,-1.2663,-1.155,-1.0006,-0.9277,0.0,0.0,0.0,0.0,0.0,0.0,0.0,0.0,0.0,0.0,0.0,0.0,0.0,0.0,0.0,0.0,0.0,0.0,0.0,0.0,0.0,0.0,0.0,0.0,0.0,0.0,0.0,0.0,0.0,0.0,0.0,0.0,0.0,0.0,0.0,0.0,0.0,0.0,0.0,0.0,0.0,0.0,0.0,0.0,0.0,0.0,0.0,0.0,0.0,0.0,0.0,0.0,0.0,0.0,0.0,0.0,0.0,0.0,0.0,0.0,0.0,0.0,0.0,0.0,0.0,0.0,0.0,0.0,0.0,0.0,0.0,0.0,0.0,0.0,0.0,0.0,0.0,0.0,0.0,0.0,0.0,0.0,0.0,0.0,0.0,0.0,0.0,0.0,0.0,0.0,0.0,0.0,0.0,0.0,0.0,0.0,0.0,0.0,0.0,0.0,0.0,0.0,-1.1776,-1.3032,-1.3945,-1.3534,-1.3428,-1.3984,-1.2571,-1.1148,-0.9981,-0.8926,0.0,0.0,0.0,0.0,0.0,0.0,0.0,0.0,0.0,0.0,0.0,0.0,0.0,0.0,0.0,0.0,0.0,0.0,0.0,0.0,0.0,0.0,0.0,0.0,0.0,0.0,0.0,0.0,0.0,0.0,0.0,0.0,0.0,0.0,0.0,0.0,0.0,0.0,0.0,0.0,0.0,0.0,0.0,0.0,0.0,0.0,0.0,0.0,0.0,0.0,0.0,0.0,0.0,0.0,0.0,0.0,0.0,0.0,0.0,0.0,0.0,0.0,0.0,0.0,0.0,0.0,0.0,0.0,0.0,0.0,0.0,0.0,0.0,0.0,0.0,0.0,0.0,0.0,0.0,0.0,0.0,0.0,0.0,0.0,0.0,0.0,0.0,0.0,0.0,0.0,0.0,0.0,0.0,0.0,0.0,0.0,0.0,0.0,0.0,0.0,0.0,0.0,-1.1727,-1.3099,0.0,-1.3909,-1.3858,-1.4091,-1.3187,-1.1823,-1.0018,0.0,0.0,0.0,0.0,0.0,0.0,0.0,0.0,0.0,0.0,0.0,0.0,0.0,0.0,0.0,0.0,0.0,0.0,0.0,0.0,0.0,0.0,0.0,0.0,0.0,0.0,0.0,0.0,0.0,0.0,0.0,0.0,0.0,0.0,0.0,0.0,0.0,0.0,0.0,0.0,0.0,0.0,0.0,0.0,0.0,0.0,0.0,0.0,0.0,0.0,0.0,0.0,0.0,0.0,0.0,0.0,0.0,0.0,0.0,0.0,0.0,0.0,0.0,0.0,0.0,0.0,0.0,0.0,0.0,0.0,0.0,0.0,0.0,0.0,0.0,0.0,0.0,0.0,0.0,0.0,0.0,0.0,0.0,0.0,0.0,0.0,0.0,0.0,0.0,0.0,0.0,0.0,0.0,0.0,0.0,0.0,0.0,0.0,0.0,0.0,0.0,0.0,-1.0121,-1.1917,-1.3472,0.0,-1.4349,-1.4349,-1.4349,-1.3483,-1.2074,-1.0031,0.0,0.0,0.0,0.0,0.0,0.0,0.0,0.0,0.0,0.0,0.0,0.0,0.0,0.0,0.0,0.0,0.0,0.0,0.0,0.0,0.0,0.0,0.0,0.0,0.0,0.0,0.0,0.0,0.0,0.0,0.0,0.0,0.0,0.0,0.0,0.0,0.0,0.0,0.0,0.0,0.0,0.0,0.0,0.0,0.0,0.0,0.0,0.0,0.0,0.0,0.0,0.0,0.0,0.0,0.0,0.0,0.0,0.0,0.0,0.0,0.0,0.0,0.0,0.0,0.0,0.0,0.0,0.0,0.0,0.0,0.0,0.0,0.0,0.0,0.0,0.0,0.0,0.0,0.0,0.0,0.0,0.0,0.0,0.0,0.0,0.0,0.0,0.0,0.0,0.0,0.0,0.0,0.0,0.0,0.0,0.0,0.0,0.0,0.0,0.0,0.0,0.0,-1.0199,-1.2497,-1.4311,-1.4846,-1.4916,-1.4916,-1.4896,-1.337,-1.1698,0.0,0.0,0.0,0.0,0.0,0.0,0.0,0.0,0.0,0.0,0.0,0.0,0.0,0.0,0.0,0.0,0.0,0.0,0.0,0.0,0.0,0.0,0.0,0.0,0.0,0.0,0.0,0.0,0.0,0.0,0.0,0.0,0.0,0.0,0.0,0.0,0.0,0.0,0.0,0.0,0.0,0.0,0.0,0.0,0.0,0.0,0.0,0.0,0.0,0.0,0.0,0.0,0.0,0.0,0.0,0.0,0.0,0.0,0.0,0.0,0.0,0.0,0.0,0.0,0.0,0.0,0.0,0.0,0.0,0.0,0.0,0.0,0.0,0.0,0.0,0.0,0.0,0.0,0.0,0.0,0.0,0.0,0.0,0.0,0.0,0.0,0.0,0.0,0.0,0.0,0.0,0.0,0.0,0.0,0.0,0.0,0.0,0.0,0.0,0.0,0.0,0.0,0.0,-1.0499,-1.2969,-1.4878,-1.5412,-1.5454,-1.5311,-1.4921,-1.411,-1.2533,-1.0056,0.0,0.0,0.0,0.0,0.0,0.0,0.0,0.0,0.0,0.0,0.0,0.0,0.0,0.0,0.0,0.0,0.0,0.0,0.0,0.0,0.0,0.0,0.0,0.0,0.0,0.0,0.0,0.0,0.0,0.0,0.0,0.0,0.0,0.0,0.0,0.0,0.0,0.0,0.0,0.0,0.0,0.0,0.0,0.0,0.0,0.0,0.0,0.0,0.0,0.0,0.0,0.0,0.0,0.0,0.0,0.0,0.0,0.0,0.0,0.0,0.0,0.0,0.0,0.0,0.0,0.0,0.0,0.0,0.0,0.0,0.0,0.0,0.0,0.0,0.0,0.0,0.0,0.0,0.0,0.0,0.0,0.0,0.0,0.0,0.0,0.0,0.0,0.0,0.0,0.0,0.0,0.0,0.0,0.0,0.0,0.0,0.0,0.0,0.0,0.0,0.0,0.0,-1.0958,-1.3312,-1.511,-1.563,-1.5894,-1.5806,-1.5261,-1.4727,-1.3265,-1.0541,0.0,0.0,0.0,0.0,0.0,0.0,0.0,0.0,0.0,0.0,0.0,0.0,0.0,0.0,0.0,0.0,0.0,0.0,0.0,0.0,0.0,0.0,0.0,0.0,0.0,0.0,0.0,0.0,0.0,0.0,0.0,0.0,0.0,0.0,0.0,0.0,0.0,0.0,0.0,0.0,0.0,0.0,0.0,0.0,0.0,0.0,0.0,0.0,0.0,0.0,0.0,0.0,0.0,0.0,0.0,0.0,0.0,0.0,0.0,0.0,0.0,0.0,0.0,0.0,0.0,0.0,0.0,0.0,0.0,0.0,0.0,0.0,0.0,0.0,0.0,0.0,0.0,0.0,0.0,0.0,0.0,0.0,0.0,0.0,0.0,0.0,0.0,0.0,0.0,0.0,0.0,0.0,0.0,0.0,0.0,0.0,0.0,0.0,0.0,0.0,0.0,0.0,-1.1527,-1.3564,-1.5123,-1.5706,-1.6199,-1.6274,-1.5743,-1.5211,-1.3845,-1.138,0.0,0.0,0.0,0.0,0.0,0.0,0.0,0.0,0.0,0.0,0.0,0.0,0.0,0.0,0.0,0.0,0.0,0.0,0.0,0.0,0.0,0.0,0.0,0.0,0.0,0.0,0.0,0.0,0.0,0.0,0.0,0.0,0.0,0.0,0.0,0.0,0.0,0.0,0.0,0.0,0.0,0.0,0.0,0.0,0.0,0.0,0.0,0.0,0.0,0.0,0.0,0.0,0.0,0.0,0.0,0.0,0.0,0.0,0.0,0.0,-0.8159,0.0,0.0,0.0,0.0,0.0,0.0,0.0,0.0,0.0,0.0,0.0,0.0,0.0,0.0,0.0,0.0,0.0,0.0,0.0,0.0,0.0,0.0,0.0,0.0,0.0,0.0,0.0,0.0,0.0,0.0,0.0,0.0,0.0,0.0,0.0,0.0,0.0,0.0,0.0,0.0,0.0,-1.204,-1.379,-1.5273,-1.6233,-1.6425,-1.6274,-1.5743,-1.5211,-1.4111,-1.2244,-1.0868,0.0,0.0,0.0,0.0,0.0,0.0,0.0,0.0,0.0,0.0,0.0,0.0,0.0,0.0,0.0,0.0,0.0,0.0,0.0,0.0,0.0,0.0,0.0,0.0,0.0,0.0,0.0,0.0,0.0,0.0,0.0,0.0,0.0,0.0,0.0,0.0,0.0,0.0,0.0,0.0,0.0,0.0,0.0,0.0,0.0,0.0,0.0,0.0,0.0,0.0,0.0,0.0,0.0,0.0,0.0,0.0,0.0,0.0,0.0,0.0,-0.9006,0.0,0.0,0.0,0.0,0.0,0.0,0.0,0.0,0.0,0.0,0.0,0.0,0.0,0.0,0.0,0.0,0.0,0.0,0.0,0.0,0.0,0.0,0.0,0.0,0.0,0.0,0.0,0.0,0.0,0.0,0.0,0.0,0.0,0.0,0.0,0.0,0.0,0.0,0.0,0.0,-1.296,-1.4431,-1.5613,-1.64,-1.65,-1.6387,-1.612,-1.558,-1.4619,-1.3074,-1.1898,0.0,0.0,0.0,0.0,0.0,0.0,0.0,0.0,0.0,0.0,0.0,0.0,0.0,0.0,0.0,0.0,0.0,0.0,0.0,0.0,0.0,0.0,0.0,0.0,0.0,0.0,0.0,0.0,0.0,0.0,0.0,0.0,0.0,0.0,0.0,0.0,0.0,0.0,0.0,0.0,0.0,0.0,0.0,0.0,0.0,0.0,0.0,0.0,0.0,0.0,0.0,0.0,0.0,-1.1851,-1.2649,-1.314,-1.3481,-1.3891,-1.4192,-1.1681,-1.0896,-1.127,-1.0049,0.0,0.0,0.0,0.0,0.0,0.0,0.0,0.0,0.0,0.0,0.0,0.0,0.0,0.0,0.0,0.0,0.0,0.0,0.0,0.0,0.0,0.0,0.0,0.0,-1.3438,-1.3282,-1.1491,0.0,0.0,0.0,0.0,0.0,0.0,0.0,0.0,0.0,0.0,0.0,-1.388,-1.5039,-1.5865,-1.6416,-1.6479,-1.65,-1.65,-1.6019,-1.5167,-1.3913,-1.2956,-1.1669,0.0,0.0,0.0,0.0,0.0,0.0,0.0,0.0,0.0,0.0,0.0,0.0,0.0,0.0,0.0,0.0,0.0,0.0,0.0,0.0,0.0,0.0,0.0,0.0,0.0,0.0,0.0,0.0,0.0,0.0,0.0,0.0,-0.5767,-0.6375,0.0,0.0,0.0,0.0,0.0,0.0,0.0,0.0,0.0,0.0,0.0,0.0,0.0,-1.1051,-1.1803,-1.2508,-1.3099,-1.3624,-1.4176,-1.4582,-1.4869,-1.4926,-1.5042,-1.5225,-1.4796,0.0,-1.3096,-1.2155,0.0,0.0,0.0,0.0,0.0,0.0,0.0,0.0,0.0,0.0,0.0,0.0,0.0,0.0,0.0,0.0,0.0,0.0,0.0,0.0,0.0,0.0,-1.5202,-1.4785,-1.4749,-1.4725,-1.4437,-1.2975,-1.166,-1.1523,-1.0791,-1.0194,0.0,0.0,0.0,0.0,0.0,0.0,-1.4179,-1.5036,-1.569,-1.6343,-1.6414,-1.6436,-1.65,-1.6019,-1.5429,-1.4763,-1.344,-1.2175,-1.1103,-0.9889,0.0,0.0,0.0,0.0,0.0,0.0,0.0,0.0,0.0,0.0,0.0,0.0,0.0,0.0,0.0,0.0,0.0,0.0,0.0,0.0,0.0,0.0,0.0,0.0,0.0,0.0,0.0,0.0,0.0,-0.6034,-0.6969,-0.7239,-0.7513,-0.7558,0.0,0.0,0.0,0.0,0.0,0.0,0.0,0.0,0.0,-1.2135,-1.2669,-1.3223,-1.3817,-1.4551,-1.5117,-1.5506,-1.6186,-1.6712,-1.7119,-1.7119,-1.7288,-1.7559,-1.708,-1.6553,-1.5898,-1.4026,-1.3159,-1.29,0.0,0.0,0.0,0.0,-1.3006,-1.3599,-1.4501,-1.4709,-1.449,-1.4109,0.0,0.0,0.0,0.0,0.0,0.0,0.0,-1.4036,0.0,0.0,-1.6271,-1.6343,-1.6355,-1.6355,-1.6355,-1.5394,-1.4189,0.0,-1.2437,-1.1878,-1.1031,0.0,0.0,0.0,0.0,-1.3339,-1.4871,-1.5624,-1.6131,-1.6432,-1.6457,-1.6479,-1.65,-1.6274,-1.589,-1.5279,-1.4424,-1.3451,-1.2357,-1.1019,-0.9914,0.0,0.0,0.0,0.0,0.0,0.0,0.0,0.0,0.0,0.0,0.0,0.0,0.0,0.0,0.0,0.0,0.0,0.0,0.0,0.0,0.0,0.0,0.0,0.0,0.0,0.0,0.0,0.0,-0.7179,-0.8091,-0.8401,-0.8848,-0.8977,0.0,0.0,0.0,0.0,0.0,0.0,-1.1978,-1.2821,-1.3679,-1.4552,-1.4868,-1.5284,-1.5859,-1.6307,-1.6732,-1.7162,-1.7754,-1.8286,-1.8763,-1.8763,-1.8984,-1.9248,-1.8613,-1.834,-1.8144,-1.5654,-1.4601,-1.4521,-1.3432,-1.3506,-1.4214,-1.4602,-1.5132,-1.5849,-1.6952,-1.7298,-1.7075,-1.6283,-1.5828,-1.536,-1.4093,0.0,0.0,0.0,0.0,-1.5268,-1.6018,-1.6511,-1.6907,-1.7327,-1.7387,-1.7387,-1.7387,-1.7087,-1.6295,0.0,-1.4076,-1.351,-1.2348,0.0,0.0,0.0,0.0,-1.4407,-1.545,-1.6037,-1.6358,-1.6358,-1.6436,-1.6479,-1.6479,-1.65,-1.6219,-1.56,-1.5119,-1.44,-1.3396,-1.2058,-1.1015,-1.0357,0.0,0.0,0.0,0.0,0.0,0.0,0.0,0.0,0.0,0.0,0.0,0.0,0.0,0.0,0.0,0.0,0.0,0.0,0.0,0.0,0.0,0.0,0.0,0.0,0.0,0.0,0.0,0.0,0.0,-1.0033,-1.0542,0.0,0.0,0.0,0.0,-1.1862,-1.2429,-1.3111,-1.4026,-1.5068,-1.5848,-1.6362,-1.656,-1.7178,-1.8225,-1.7715,-1.7929,-1.8879,-1.8726,-1.8864,-1.9248,-1.9248,-1.9268,-1.9287,-1.9238,-1.9219,-1.9053,-1.6897,-1.5997,-1.5948,-1.5439,-1.557,-1.6017,-1.5532,-1.6392,-1.7766,-1.7363,-1.7947,-1.8867,-1.8806,-1.8109,-1.7159,-1.6583,-1.6403,0.0,0.0,-1.6823,-1.7267,-1.7327,-1.7327,-1.7363,-1.7375,-1.7387,-1.7387,-1.7387,-1.7388,-1.7171,0.0,-1.5612,-1.4935,-1.4995,0.0,-1.3836,-1.4882,-1.4655,-1.4724,-1.5668,-1.5923,-1.6044,-1.6044,-1.6262,-1.6414,-1.6414,-1.6457,-1.6262,-1.5731,-1.5074,-1.4512,-1.4072,-1.2889,-1.2008,-1.1527,-1.0382,0.0,0.0,0.0,0.0,0.0,0.0,0.0,0.0,0.0,0.0,0.0,0.0,0.0,0.0,0.0,0.0,0.0,0.0,0.0,0.0,0.0,0.0,0.0,0.0,0.0,0.0,0.0,0.0,-1.1375,-1.2046,0.0,-1.245,-1.268,-1.2955,-1.3249,-1.4151,-1.4925,-1.5458,-1.6622,-1.7431,-1.7696,-1.8157,-1.867,-1.9234,-1.9421,-1.9801,-2.043,-2.0663,-2.0838,-2.0957,-2.0957,-2.0957,-2.0947,-2.0664,-2.0498,-2.0459,-1.9441,-1.8345,-1.7275,-1.6846,-1.6628,-1.6566,-1.6739,-1.7212,-1.7768,-1.7975,-1.8608,-1.9347,-1.9463,-1.9011,-1.8458,-1.8614,-1.8422,-1.8217,-1.8554,-1.8554,-1.8434,-1.8434,-1.8434,-1.8434,-1.8434,-1.8434,-1.8434,-1.8434,-1.8157,-1.7869,-1.7676,-1.7039,-1.6439,-1.6158,-1.5784,-1.5555,-1.5591,-1.5499,-1.5554,-1.5886,-1.6057,-1.6154,-1.6241,-1.6349,-1.6414,-1.6457,-1.65,-1.6391,-1.6182,-1.5307,-1.4712,-1.4429,-1.3172,-1.2352,-1.2049,-1.1096,-1.0016,0.0,0.0,0.0,0.0,0.0,0.0,0.0,0.0,0.0,0.0,0.0,0.0,0.0,0.0,0.0,0.0,0.0,0.0,0.0,0.0,0.0,0.0,0.0,0.0,0.0,0.0,-1.1963,-1.2634,-1.3406,-1.3956,-1.4084,-1.4469,-1.4818,-1.5084,-1.5845,-1.6557,-1.7107,-1.8145,-1.8897,-1.9235,-1.9755,-2.0157,-2.0449,-2.0671,-2.1029,-2.1455,-2.1656,-2.1792,-2.1885,-2.1885,-2.1885,-2.1865,-2.1582,-2.1455,-2.1435,-2.1133,-2.0254,-1.9007,-1.8467,-1.7969,-1.7621,-1.8041,-1.8234,-1.8361,-1.8868,-1.9201,-1.9456,-1.9599,-1.9404,-1.9258,-1.9589,-1.961,-1.9612,-1.9961,-1.9793,-1.9591,-1.9756,-1.9805,-1.9805,-1.9805,-1.966,-1.9495,-1.93,-1.8843,-1.847,-1.847,-1.7893,-1.7279,-1.6931,-1.6871,-1.6751,-1.6403,-1.6411,-1.6407,-1.6225,-1.6325,-1.634,-1.62,-1.6275,-1.6328,-1.6328,-1.6371,-1.6392,-1.6392,-1.5391,-1.4761,-1.4695,-1.3466,-1.2719,-1.2606,-1.1673,-1.0694,-0.9642,0.0,0.0,0.0,0.0,0.0,0.0,0.0,0.0,0.0,0.0,0.0,0.0,0.0,0.0,0.0,0.0,0.0,0.0,0.0,0.0,0.0,0.0,0.0,-1.0921,-1.1651,-1.2625,-1.3837,-1.4662,-1.5322,-1.5725,-1.6138,-1.6697,-1.7477,-1.7541,-1.7981,-1.9001,-1.9664,-2.0316,-2.0888,-2.1322,-2.1617,-2.1904,-2.148,-2.1489,-2.1924,-2.1678,-2.1678,-2.1904,-2.1904,-2.1894,-2.1885,-2.1885,-2.1885,-2.1885,-2.1885,-2.1641,-2.1132,-2.0293,-1.9697,-1.9326,-1.9326,-1.9509,-1.9741,-2.0062,-1.9813,-1.9335,-1.9398,-1.9502,-1.9588,-1.96,-2.0094,-2.0641,-2.0653,-2.0646,-2.0747,-2.126,-2.1392,-2.138,-2.1404,-2.0983,-2.0482,-1.9965,-1.9447,-1.9035,-1.9023,-1.8181,-1.746,-1.746,-1.7423,-1.7411,-1.7411,-1.7399,0.0,-1.6691,-1.6711,-1.6551,-1.5886,-1.6047,-1.6144,-1.6022,-1.6122,-1.6253,-1.6392,-1.5262,-1.4676,-1.4902,-1.3757,-1.3166,-1.3223,-1.2162,-1.1324,-1.0733,0.0,0.0,0.0,0.0,0.0,0.0,0.0,0.0,0.0,0.0,0.0,0.0,0.0,0.0,0.0,0.0,0.0,0.0,0.0,0.0,0.0,-1.0851,-1.1724,-1.2143,-1.314,-1.4295,-1.5505,-1.6101,-1.6688,-1.7385,-1.7523,-1.7798,-1.8339,-1.8641,-1.9192,-2.0127,-2.042,-2.0816,-2.1329,-2.1564,-2.1868,-2.209,-2.226,-2.2491,-2.275,-2.2697,-2.2541,-2.2344,-2.2344,-2.2178,-2.1885,-2.1885,-2.1885,-2.1885,-2.1885,-2.1816,-2.165,-2.1094,-2.0605,-2.0253,-2.0253,-2.0082,-2.0009,-2.1208,-2.1043,-2.0512,-2.1608,-2.1726,-2.1538,-2.1917,-2.1899,-2.1837,-2.2221,-2.1777,-2.1211,-2.1368,-2.1115,-2.0935,-2.1308,-2.1296,-2.1139,-2.0983,-2.0555,-2.0049,-1.9664,-1.9011,-1.8554,-1.8554,-1.8241,-1.7989,-1.7989,-1.7664,0.0,-1.7195,-1.6859,-1.6627,-1.6528,-1.6232,-1.6066,-1.6144,-1.6178,-1.6222,-1.6253,-1.5221,-1.4802,-1.5245,-1.4237,-1.3727,-1.3858,-1.2664,-1.1812,0.0,0.0,0.0,0.0,0.0,0.0,0.0,0.0,0.0,0.0,0.0,0.0,0.0,0.0,0.0,0.0,0.0,0.0,0.0,0.0,0.0,0.0,-1.2428,-1.3381,-1.4321,-1.4919,-1.5588,-1.6459,-1.7211,-1.7917,-1.855,-1.874,-1.9006,-1.9439,-1.9677,-2.0112,-2.0768,-2.081,-2.1058,-2.1593,-2.1692,-2.1824,-2.2087,-2.233,-2.2489,-2.2617,-2.2617,-2.248,-2.2246,-2.2246,-2.2119,-2.1885,-2.1885,-2.1885,-2.1885,-2.1885,-2.1885,0.0,0.0,0.0,0.0,0.0,-2.0684,-2.0555,-2.1285,-2.1167,-2.0827,-2.1712,-2.1977,-2.197,-2.2117,-2.2035,-2.1953,-2.2383,-2.1914,-2.1398,-2.1944,-2.1837,-2.168,-2.1993,-2.2065,-2.2005,-2.1777,-2.1087,-2.0422,-2.0169,-1.9464,0.0,-1.8996,-1.8734,-1.853,-1.853,-1.8277,-1.8001,-1.7748,-1.7447,-1.7219,-1.7061,-1.6566,-1.6274,-1.6353,-1.6169,0.0,0.0,0.0,-1.4906,-1.5012,-1.4566,0.0,0.0,0.0,0.0,0.0,0.0,0.0,0.0,-1.1096,-1.0921,0.0,0.0,0.0,0.0,0.0,0.0,0.0,0.0,0.0,0.0,0.0,0.0,0.0,0.0,0.0,0.0,-1.397,-1.5249,-1.6762,-1.6789,-1.678,-1.7138,-1.8128,-1.8953,-1.9393,-1.9778,-2.0122,-2.0558,-2.0549,-2.0695,-2.1133,0.0,0.0,0.0,0.0,-2.1726,-2.1921,-2.2002,-2.2031,-2.2031,-2.2031,-2.2002,-2.1953,-2.1953,-2.1934,-2.1885,-2.1836,-2.1816,-2.1807,-2.1758,-2.1738,-2.1709,-2.1416,-2.1543,-2.1836,-2.1414,-2.1239,-2.1182,-2.0889,0.0,0.0,-2.0828,-2.1231,-2.1673,-2.1317,-2.1305,-2.1505,-2.1711,-2.1411,-2.1296,-2.2379,-2.2659,-2.2703,-2.2762,-2.2774,-2.2635,-2.223,-2.1198,-2.037,-2.0494,-1.9576,-1.8782,-1.886,-1.8943,-1.8987,-1.8987,-1.8987,-1.8819,-1.835,-1.8241,-1.8025,-1.7531,0.0,0.0,-1.6607,-1.6175,-1.5919,-1.5979,-1.5551,-1.5081,-1.4624,-1.4858,-1.4962,-1.4821,-1.4782,-1.4816,-1.4896,-1.478,-1.4817,-1.4921,-1.2379,-1.1974,0.0,0.0,0.0,0.0,0.0,0.0,0.0,0.0,0.0,0.0,0.0,0.0,0.0,0.0,0.0,-1.4254,-1.5312,-1.6303,-1.7248,-1.8155,-1.8751,-1.8825,-1.9045,-1.9476,-2.0209,-2.0356,-2.0567,-2.0961,-2.0695,-2.0771,-2.1392,-2.0911,-2.0801,-2.1305,-2.1613,-2.1883,-2.2148,-2.2596,-2.2847,-2.2847,0.0,0.0,-2.2393,-2.2393,-2.2207,-2.1865,-2.1514,-2.1317,-2.1288,-2.1006,-2.086,-2.0918,-2.1514,-2.1807,-2.1875,-2.1787,-2.1543,-2.1261,-2.1867,-2.1767,-2.1527,-2.2161,-2.2424,-2.2489,-2.2403,-2.2149,0.0,-2.1551,-2.1137,-2.0765,-2.0674,-2.0661,-2.0762,-2.1196,-2.1319,-2.1364,-2.1586,-2.1096,-2.0512,-2.0092,-1.9236,-1.8459,-1.8156,-1.8627,-1.8987,-1.8987,-1.8987,-1.8951,-1.8855,-1.847,-1.8157,-1.8061,-1.758,-1.7063,-1.6643,-1.6511,-1.6259,-1.586,-1.5838,-1.5654,-1.5254,-1.5592,-1.5689,-1.5502,-1.5352,-1.5129,-1.4896,-1.4877,-1.5103,-1.5517,-1.4544,-1.4268,0.0,0.0,0.0,0.0,0.0,0.0,0.0,0.0,0.0,0.0,0.0,-1.0645,-1.1582,0.0,-1.4237,-1.567,-1.6644,-1.7459,-1.8284,-1.91,-1.954,-1.9329,-1.9833,-2.0292,-2.0493,-2.0695,-2.0814,-2.0814,-2.0631,-2.0728,-2.1262,-2.0774,-2.0824,-2.1504,-2.1504,-2.1683,-2.2039,-2.2233,-2.2297,-2.2297,-2.2297,-2.2181,-2.1987,-2.2155,-2.209,-2.1875,-2.165,-2.1562,-2.1523,-2.1084,-2.0898,-2.0918,-2.1143,-2.1367,-2.1582,-2.1807,-2.1748,-2.1603,-2.2029,-2.195,-2.1839,-2.244,-2.2631,-2.2591,-2.2591,-2.2284,-2.1896,-2.1565,-2.1005,-2.0464,-2.041,-2.0249,-2.0161,-2.0435,-2.0709,-2.1005,-2.1407,-2.1019,-2.061,-2.0647,-1.9767,-1.8829,-1.8289,-1.8516,-1.8605,-1.8173,-1.8348,-1.8536,-1.8536,-1.8589,-1.8486,-1.8186,-1.7932,-1.7576,-1.6995,-1.6729,-1.6379,-1.5828,-1.5935,-1.5879,-1.5602,-1.591,-1.6053,-1.5952,-1.5782,-1.571,-1.5693,-1.5603,-1.574,-1.6095,-1.5831,-1.5693,0.0,0.0,0.0,0.0,0.0,0.0,0.0,0.0,-0.9112,-0.9261,-1.0697,-1.2126,-1.2789,-1.4128,-1.5554,-1.6802,-1.7761,-1.8605,-1.932,-1.9852,-1.9994,-1.9696,-2.0448,-2.0897,-2.0659,-2.0851,-2.086,-2.0539,-2.0521,-2.0659,-2.097,-2.0695,-2.0846,-2.1565,-2.1363,-2.152,-2.2003,-2.1861,-2.182,-2.1906,-2.182,-2.1782,-2.1815,-2.1906,-2.2003,-2.2003,-2.1967,-2.1921,-2.1855,-2.1504,-2.1317,-2.1278,-2.0869,-2.0918,-2.1229,-2.1533,-2.1672,-2.1672,-2.1672,-2.1689,-2.1816,-2.2158,-2.2324,-2.2402,-2.249,-2.2217,-2.1852,-2.1706,-2.1036,-2.0355,-2.0403,-2.0119,-1.9789,-1.9704,-2.0027,-2.0468,-2.0861,-2.0586,-2.041,-2.0896,-2.018,-1.9254,-1.8522,-1.8351,-1.8027,-1.7309,-1.7617,-1.7984,-1.8093,-1.8509,-1.8682,-1.8321,-1.8329,-1.8122,-1.754,-1.6926,-1.6455,-1.6128,-1.6205,-1.6201,-1.5993,-1.6171,-1.6254,-1.62,-1.6088,-1.6175,-1.6479,-1.634,-1.634,-1.65,-1.65,-1.65,-0.6816,-0.6721,-0.6958,-0.7981,-0.8049,-0.8192,0.0,0.0,-0.9906,-1.0891,-1.1774,-1.2602,-1.3514,-1.4985,-1.6334,-1.7218,-1.8365,-1.9329,-1.9756,-2.0503,-2.0961,-2.0906,-2.0714,-2.0704,-2.1007,-2.0769,-2.0567,-2.0479,-2.0521,-2.0539,-2.0543,-2.0539,-2.0624,-2.0904,-2.1263,-2.1748,-2.2343,-2.2659,-2.3038,-2.3436,-2.3028,-2.2839,-2.283,-2.2504,-2.2343,-2.2324,-2.2231,-2.2068,-2.1885,-2.1836,-2.1816,-2.1768,-2.1288,-2.1151,-2.1151,-2.084,-2.0752,-2.0752,-2.0752,-2.0977,-2.1278,-2.1327,-2.1641,-2.2031,-2.2402,-2.2217,-2.1906,-2.1881,-2.1253,-2.0387,-1.9634,-1.909,-1.8676,-1.8325,-1.8275,-1.8424,-1.8859,-1.9183,-1.9459,-1.9532,-1.943,-1.9069,-1.8187,-1.7747,-1.7457,-1.7212,-1.7257,-1.7506,-1.8038,-1.8147,-1.8375,-1.8854,-1.8912,-1.8684,-1.8165,-1.7118,-1.6719,-1.7195,-1.7231,-1.7074,-1.6695,-1.6603,-1.6431,-1.6212,-1.62,-1.6253,-1.6414,-1.6457,-1.6479,-1.65,-1.65,-1.65,-0.7829,-0.8082,-0.8469,0.0,-0.9299,-0.9666,-1.0448,-1.085,-1.1227,-1.1812,-1.28,-1.3676,-1.4014,-1.5829,-1.7096,0.0,-1.8539,-1.9784,-1.9227,-2.0265,-2.1016,-2.0796,-2.0824,-2.0833,-2.0769,-2.0613,-2.0378,-2.0149,-2.0131,-2.0374,-2.0833,-2.086,-2.1167,-2.1901,-2.2087,-2.252,-2.3134,-2.3166,-2.3289,-2.3477,-2.3289,-2.3073,-2.282,-2.2787,-2.2615,-2.2432,-2.2524,-2.2481,-2.2393,-2.2311,-2.2246,-2.2207,-2.1787,-2.1455,-2.1142,-2.0732,-2.0605,-2.0605,-2.0605,-2.0723,-2.0889,-2.1112,-2.1317,-2.1592,-2.2021,-2.2197,-2.2197,-2.1953,-2.1621,-2.1173,-2.0292,-1.9521,-1.8906,-1.8442,-1.8184,-1.8125,-1.851,-1.8744,-1.9053,-1.9551,-1.9648,-1.9463,-1.8857,-1.8398,-1.7921,-1.7388,-1.7176,-1.7062,-1.7078,-1.7368,-1.782,-1.8402,-1.7847,-1.7508,-1.7653,-1.7229,-1.6924,-1.6897,-1.7216,-1.7315,-1.7158,-1.7111,-1.7062,-1.702,-1.6949,-1.7006,-1.7214,-1.7237,-1.7306,-1.7362,-1.7443,-1.7501,-0.8688,0.0,0.0,-1.005,-1.045,-1.0883,-1.1369,-1.1881,-1.2242,-1.2402,-1.3297,-1.403,-1.3908,-1.5676,-1.6903,-1.6076,-1.8209,-1.9614,-1.8549,-1.972,-2.0609,-2.0321,-2.041,-2.0367,-2.0177,-2.0252,-2.0195,-1.9912,-1.9994,-2.0397,-2.1236,-2.1383,-2.1857,-2.2714,-2.2778,-2.3029,-2.3645,-2.3457,-2.3418,-2.3529,-2.3418,-2.3195,-2.2936,-2.2841,-2.265,-2.2309,-2.253,-2.2627,-2.2687,-2.2553,-2.2514,-2.2518,-2.2142,-2.1824,-2.1492,-2.1094,-2.082,-2.0605,-2.0605,-2.0605,-2.0664,-2.0947,-2.1045,-2.1133,-2.1572,-2.1924,-2.2148,-2.208,-2.1982,-2.1738,-2.1134,-2.0331,-1.9531,-1.9056,-1.8539,-1.8237,-1.8539,-1.8598,-1.8783,-1.9407,-1.9756,-1.9785,-1.9365,-1.9121,-1.8627,-1.7705,-1.7408,-1.7103,-1.6562,-1.6913,-1.7368,-1.782,-1.7062,-1.6755,-1.7231,-1.741,-1.734,-1.6974,-1.7507,-1.7784,-1.764,-1.7603,-1.7592,-1.7557,-1.7497,-1.7545,-1.7738,-1.7786,-1.7858,-1.7941,-1.8073,-1.8232,0.0,0.0,-0.9541,-1.0989,-1.1212,-1.1379,-1.2492,-1.2768,-1.2775,-1.2764,-1.3012,-1.3178,-1.2889,-1.4016,-1.5142,-1.5535,-1.7333,-1.8473,-1.7986,-1.8973,-1.9736,-1.9799,-1.9282,-1.8954,0.0,-1.9665,-1.9902,-1.9893,-2.0241,-2.0817,-2.1632,-2.2034,-2.2446,-2.2876,-2.2885,-2.3078,-2.3519,-2.348,-2.3721,-2.4165,-2.3712,-2.3471,-2.3425,-2.2685,-2.2243,-2.2097,-2.2097,-2.222,-2.2388,-2.2432,-2.2555,-2.2746,-2.2366,-2.2277,-2.2422,-2.2002,-2.1339,-2.0605,-2.0605,-2.0605,-2.0605,-2.0615,-2.0625,-2.0713,-2.1123,-2.122,-2.1405,-2.2266,-2.2197,-2.1875,-2.1855,-2.1231,-2.0458,-1.998,-1.9192,-1.8588,-1.8598,-1.8598,-1.8607,-1.8637,-1.9309,-1.9785,-1.9365,-1.9609,-1.9443,-1.8184,-1.7969,-1.7744,-1.706,-1.7127,-1.7202,-1.723,-1.7202,-1.7191,-1.7208,-1.7731,-1.807,-1.8047,-1.8608,-1.871,-1.8205,-1.8181,-1.7941,-1.7424,-1.7533,-1.7618,-1.7606,-1.7738,-1.781,-1.781,-1.7941,-1.8287,-0.9011,0.0,-1.0571,-1.1562,-1.2164,-1.2716,-1.348,-1.3333,-1.3106,-1.33,-1.2946,-1.2632,-1.277,-1.3878,-1.4586,-1.4078,-1.5973,-1.7169,-1.6369,-1.7307,-1.804,-1.7752,-1.7999,0.0,0.0,0.0,0.0,-1.9421,-2.0337,-2.1264,-2.2044,-2.2474,-2.2876,-2.3288,-2.3297,-2.3489,-2.3941,-2.395,-2.4064,-2.4192,-2.3739,-2.3499,-2.3471,-2.2648,-2.23,-2.2252,-2.2119,-2.2141,-2.223,-2.2353,-2.2441,-2.252,-2.2378,-2.2332,-2.2287,-2.2152,-2.1819,-2.1406,-2.1113,-2.1016,-2.0957,-2.0703,-2.0605,-2.0635,-2.0742,-2.0996,-2.1317,-2.1934,-2.2197,-2.2305,-2.2305,-2.1875,-2.13,-2.0556,-1.9902,-1.929,-1.8724,-1.8598,-1.8598,-1.8598,-1.8831,-1.9163,-1.9629,-1.959,-1.9355,-1.8926,-1.7891,-1.7066,-1.6833,-1.6859,-1.6909,-1.7051,-1.6708,-1.6672,-1.7179,-1.7034,-1.7257,-1.8038,-1.8282,-1.8493,-1.8734,-1.8722,-1.865,-1.847,-1.8521,-1.8521,-1.8521,-1.865,-1.8739,-1.8739,-1.888,-1.9017,-0.9655,-1.0524,-1.1454,-1.2473,-1.3146,-1.3698,-1.4155,-1.3868,-1.3487,-1.3347,-1.2699,-1.2171,-1.2295,-1.2975,-1.3407,-1.3109,-1.4739,-1.5812,-1.519,-1.607,-1.6757,-1.6788,-1.6921,-1.6925,0.0,0.0,0.0,-1.8629,-1.9957,-2.0944,-2.1398,-2.2111,-2.2751,-2.3144,-2.3563,-2.3886,-2.4202,-2.4202,-2.4202,-2.4202,-2.3886,-2.3636,-2.3471,-2.2803,-2.2419,-2.23,-2.2049,-2.1963,-2.1963,-2.2087,-2.222,-2.2309,-2.2309,-2.228,-2.227,-2.227,-2.2183,-2.2036,-2.1588,-2.1465,-2.1396,-2.0947,-2.0801,-2.0781,-2.0654,-2.0762,-2.1084,-2.1523,-2.1963,-2.2324,-2.2471,-2.2314,-2.1934,-2.1251,-2.0586,-1.9951,-1.9212,-1.8939,-1.8792,-1.8627,-1.8724,-1.8958,-1.9358,-1.9365,-1.9287,-1.9287,-1.835,-1.7539,-1.7194,-1.6892,-1.6737,-1.687,-1.6748,-1.6678,-1.6793,-1.7027,-1.7359,-1.7738,-1.8174,-1.8602,-1.8987,-1.8987,-1.8987,-1.8987,-1.8987,-1.8987,-1.8987,-1.909,-1.9117,-1.9143,-1.9275,-1.9328,-1.0982,-1.1571,-1.2177,-1.3707,-1.4187,-1.4274,-1.4499,-1.4282,-1.3794,-1.2945,-1.2268,-1.1745,0.0,0.0,-1.169,-1.2596,-1.3709,-1.446,-1.4482,-1.5189,-1.6017,0.0,0.0,0.0,0.0,0.0,0.0,-1.7595,0.0,-1.9999,-1.9853,-2.1113,-2.2042,-2.2467,-2.3546,-2.4152,-2.4202,-2.4202,-2.4202,-2.4202,-2.4202,-2.395,-2.3508,-2.3114,-2.2721,-2.2364,-2.1897,-2.1723,-2.1723,-2.1705,-2.183,-2.2097,-2.2097,-2.2185,-2.2397,-2.2397,-2.2397,-2.2372,-2.2058,-2.1892,-2.1804,-2.1346,-2.116,-2.1072,-2.0703,-2.0566,-2.0664,-2.1073,-2.1502,-2.1982,-2.236,-2.2529,-2.2441,-2.2021,-2.1319,-2.0576,-2.0049,-1.9639,-1.9219,-1.8724,-1.9004,-1.916,-1.8705,-1.9014,-1.9297,-1.9316,-1.9297,-1.8994,-1.8174,-1.7311,-1.6785,-1.6775,-1.7262,-1.7215,-1.6255,-1.7733,-1.8283,-1.7395,-1.8336,-1.8964,-1.9071,-1.902,-1.9008,-1.9035,-1.8999,-1.8987,-1.8987,-1.8987,-1.8987,-1.8987,-1.9143,-1.9182,-1.1022,-1.2074,-1.3241,-1.4071,-1.4391,-1.4576,-1.4805,-1.4115,-1.324,-1.2559,-1.1638,-1.0834,0.0,0.0,0.0,-1.202,-1.2902,0.0,-1.4396,-1.469,0.0,-1.5421,0.0,-1.5483,-1.5752,-1.6861,0.0,0.0,-1.837,-1.9662,-2.017,-2.0803,-2.1559,-2.2467,-2.2778,-2.3338,-2.4202,-2.4202,-2.4202,-2.4202,-2.4202,-2.4146,-2.4036,-2.3526,-2.3288,-2.3142,-2.2437,-2.2126,-2.2108,-2.1815,-2.1741,-2.1785,-2.1785,-2.1963,-2.2185,-2.2185,-2.2264,-2.2413,-2.2282,-2.2059,-2.1721,-2.0986,-2.0738,-2.0661,-2.0232,-2.0098,-2.0184,-2.0614,-2.1156,-2.1704,-2.2148,-2.2615,-2.2828,-2.2451,-2.2178,-2.1719,-2.0635,-2.0351,-2.0057,-1.9268,-1.9209,-1.9248,-1.9141,-1.9219,-1.9394,-1.9707,-1.9482,-1.9209,-1.8994,-1.8486,-1.7993,-1.7681,-1.7534,-1.7384,-1.7236,-1.7226,-1.7704,-1.8834,-1.8323,-1.8629,-2.0145,-1.9336,-1.9096,-1.9576,-1.9191,-1.8987,-1.8987,-1.8987,-1.8987,-1.8987,-1.9052,-1.9269,-1.1793,-1.2704,-1.3611,-1.4033,-1.4231,-1.4216,-1.4012,-1.3225,-1.2346,-1.1506,-1.0685,0.0,-0.987,0.0,0.0,0.0,0.0,0.0,-1.4549,-1.4603,-1.4723,0.0,-1.5484,0.0,-1.5585,-1.6642,-1.7092,0.0,-1.7991,-1.8958,-1.8925,-1.9719,-2.0672,-2.1759,-2.2274,-2.3038,-2.4202,-2.4202,-2.4202,-2.4202,-2.4202,-2.4202,-2.4183,-2.373,-2.3499,-2.3462,-2.2831,-2.2446,-2.2263,-2.2044,-2.1851,-2.1696,-2.1696,-2.1776,-2.1919,-2.1919,-2.2008,-2.2087,-2.2087,-2.1938,-2.1693,-2.1249,-2.0993,-2.0765,-2.0349,-2.0053,-1.995,-2.0226,-2.0799,-2.1438,-2.1696,-2.2385,-2.2863,-2.2446,-2.2434,-2.2266,-2.1348,-2.0996,-2.0605,-1.9727,-1.9414,-1.9228,-1.9033,-1.916,-1.9307,-1.9346,-1.9316,-1.9287,-1.9287,-1.887,-1.851,-1.8276,-1.8076,-1.7809,-1.7542,-1.7598,-1.7933,-1.8627,-1.824,-1.8495,-1.9613,-1.9297,-1.9281,-1.9665,-1.9674,-1.9708,-1.9708,-1.9708,-1.9708,-1.9708,-1.9708,-1.9865,-1.2777,-1.3316,-1.3572,-1.382,-1.3869,-1.3581,-1.2719,-1.2107,-1.1365,-1.0238,0.0,-0.9388,-0.9378,-0.9722,-1.0423,-1.1705,0.0,-1.332,-1.4854,-1.4796,-1.493,-1.5684,-1.5865,-1.5885,-1.5885,-1.6386,-1.672,-1.676,-1.7799,-1.8076,-1.7304,-1.8365,-1.9591,-2.0885,-2.2064,-2.3188,-2.4202,-2.4202,-2.4202,-2.4202,-2.4202,-2.4202,-2.4192,-2.3785,-2.3572,-2.3553,-2.3096,-2.2693,-2.2355,-2.2245,-2.1998,-2.1696,-2.1696,-2.1696,-2.1696,-2.1696,-2.1696,-2.1696,-2.1696,-2.1696,-2.1712,-2.1699,-2.1448,-2.1023,-2.0618,-2.0193,-1.9824,-1.9824,-2.0457,-2.114,-2.114,-2.1936,-2.2663,-2.2308,-2.2341,-2.2395,-2.1977,-2.15,-2.0926,-2.0196,-1.9697,-1.9248,-1.8831,-1.9023,-1.9092,-1.8734,-1.8994,-1.9219,-1.9277,-1.887,-1.8598,-1.8598,-1.8549,-1.8227,-1.7529,-1.8285,-1.8494,-1.7842,-1.8185,-1.8525,-1.8709,-1.9129,-1.9426,-1.9604,-2.0158,-2.0495,-2.061,-2.0581,-2.0581,-2.0581,-2.0581,-2.0629,-1.288,-1.3284,-1.3549,-1.3831,-1.3548,-1.3077,-1.2432,-1.1629,0.0,0.0,-0.9173,-0.8899,-0.8769,-0.9223,-1.0104,-1.1643,0.0,0.0,0.0,0.0,-1.5391,0.0,0.0,0.0,0.0,0.0,0.0,0.0,-1.7326,-1.7461,-1.7548,-1.7759,-1.8826,-2.0834,-2.287,-2.3994,-2.4202,-2.4202,-2.4202,-2.4202,-2.4202,-2.4202,-2.4202,-2.4128,-2.4101,-2.4055,-2.3224,0.0,-2.2748,-2.2071,-2.1751,-2.1696,-2.1696,-2.1696,-2.1696,-2.1696,-2.1696,-2.1696,-2.1696,-2.1696,-2.1667,-2.1332,-2.097,-2.0564,-2.0126,-1.9712,-1.9381,-1.9381,-2.0133,-2.0941,-2.0941,-2.173,-2.2467,-2.2391,-2.2381,-2.2311,-2.1893,-2.1374,-2.096,-2.0956,-2.0361,-1.9785,-1.9707,-1.9134,-1.8848,-1.9131,-1.8936,-1.8841,-1.9238,-1.887,-1.8598,-1.8598,-1.8286,-1.8057,-1.791,-1.807,-1.8335,-1.8728,-1.8331,-1.8596,-1.9759,-1.8977,-1.9016,-2.0148,-1.9838,-1.9983,-2.0603,-2.0598,-2.0581,-2.0581,-2.0581,-2.0851,-1.2897,-1.3173,-1.3314,-1.3448,-1.2875,-1.212,-1.1552,0.0,0.0,0.0,-0.853,-0.8479,-0.8394,0.0,0.0,0.0,0.0,0.0,0.0,0.0,0.0,0.0,0.0,0.0,0.0,0.0,0.0,-1.6907,-1.7112,-1.7326,-1.7569,-1.8146,-1.8923,-2.0004,-2.2156,-2.3338,-2.3338,-2.3895,-2.4202,-2.4202,-2.4202,-2.4202,-2.4202,-2.4202,-2.4202,-2.4165,-2.3519,-2.3096,-2.2858,-2.2245,-2.1879,-2.1696,-2.1696,-2.1696,-2.1696,-2.1696,-2.1696,-2.1696,-2.1696,-2.1696,-2.1659,-2.1458,-2.1154,-2.075,-2.0314,-1.9952,-1.9586,-1.9366,-1.9823,-2.0384,-2.0384,-2.1146,-2.1936,-2.1936,-2.2193,-2.2284,-2.1877,-2.1427,-2.1046,-2.1047,-2.0556,-2.0071,-1.9913,-1.9533,-1.9297,-1.9287,-1.8916,-1.8676,-1.8926,-1.8574,-1.8354,-1.8578,-1.8422,-1.8217,-1.8027,-1.8178,-1.837,-1.8472,-1.8178,-1.8303,-1.8988,-1.8781,-1.8984,-1.9619,-2.0081,-2.0492,-2.0869,-2.1236,-2.144,-2.144,-2.144,-2.1572,-1.2886,-1.3079,-1.3083,-1.3083,-1.2277,-1.1351,-1.0809,-0.9859,0.0,0.0,-0.8035,-0.8141,-0.8195,0.0,0.0,0.0,0.0,0.0,0.0,0.0,0.0,0.0,0.0,0.0,0.0,0.0,0.0,-1.6607,-1.6998,-1.7326,-1.7569,-1.861,-1.9176,-1.9176,-2.1132,-2.2274,-2.2476,-2.3388,-2.3945,-2.4202,-2.4202,-2.4202,-2.4202,-2.4202,-2.4156,-2.3996,-2.3593,-2.3142,-2.2739,-2.2327,-2.197,-2.1696,-2.1696,-2.1696,-2.1696,-2.1696,-2.1696,-2.1696,-2.1696,-2.1696,-2.1696,-2.1696,-2.1412,-2.1034,-2.064,-2.0204,-1.9802,-1.9421,-1.9604,-1.9893,-1.9893,-2.0647,-2.1438,-2.1531,-2.1889,-2.218,-2.1904,-2.1542,-2.1229,-2.1132,-2.0684,-2.0293,-2.0101,-1.9925,-1.973,-1.9399,-1.9017,-1.8744,-1.8744,-1.8486,-1.8369,-1.8578,-1.852,-1.8334,-1.8037,-1.8276,-1.8325,-1.8037,-1.8008,-1.8008,-1.8008,-1.8496,-1.8844,-1.9011,-2.0085,-2.0805,-2.1092,-2.1694,-2.2061,-2.2197,-2.2197,-2.2197,-1.2602,-1.2928,-1.3083,-1.3083,-1.2277,-1.1351,-1.0809,0.0,0.0,-0.8063,-0.7901,-0.7981,-0.8168,-0.8265,0.0,0.0,0.0,0.0,0.0,0.0,0.0,0.0,0.0,0.0,0.0,0.0,0.0,-1.6293,-1.6884,-1.7326,-1.7569,-1.861,-1.9176,-1.9176,-2.0416,-2.1497,-2.2476,-2.2577,-2.3188,-2.4202,-2.4202,-2.4202,-2.4202,-2.4202,-2.395,-2.3526,-2.3133,-2.2721,0.0,-2.1906,-2.1723,-2.1696,-2.1696,-2.1696,-2.1696,-2.1696,-2.1696,-2.1696,-2.1696,-2.1696,-2.1696,-2.1696,-2.1412,-2.1034,-2.064,-2.0204,-1.9802,-1.9421,-1.9604,-1.9893,-1.9893,-2.0521,-2.1252,-2.1585,-2.1704,-2.1811,-2.205,-2.1714,-2.145,-2.1679,-2.111,-2.0541,-2.0543,-2.0023,-1.961,-1.9572,-1.9391,-1.9228,-1.9228,-1.9189,-1.9033,-1.8637,-1.8256,-1.8047,-1.8018,-1.8047,-1.8047,-1.8008,-1.8008,-1.8008,-1.8008,-1.8076,-1.8371,-1.8977,-1.9144,-1.9824,-2.1092,-2.1167,-2.1557,-2.2197,-2.2197,-2.2197,-1.2433,-1.2668,-1.2717,-1.2999,-1.2157,-1.1104,-1.0569,0.0,-0.8686,-0.8033,-0.7901,-0.7928,-0.8008,-0.8115,-0.8442,0.0,0.0,0.0,0.0,0.0,0.0,0.0,0.0,0.0,0.0,0.0,-1.5952,-1.6253,-1.6871,-1.7253,-1.7367,-1.79,-1.8251,-1.8251,-1.928,-2.0107,-2.0511,-2.1853,-2.2728,-2.3188,-2.3895,-2.4202,-2.4202,-2.4202,-2.3932,-2.3471,-2.3078,-2.2666,0.0,-2.1851,-2.1696,-2.1696,-2.1696,-2.1696,-2.1696,-2.1696,-2.1696,-2.1696,-2.1696,-2.1696,-2.1696,-2.1696,-2.1577,-2.1321,-2.0714,-2.0411,-2.0145,-1.9485,-1.9421,-1.9549,-1.9549,-2.0145,-2.0915,-2.1531,-2.1696,-2.1741,-2.183,-2.1498,-2.129,-2.1525,-2.0894,-2.0404,-2.0566,-2.0123,-1.985,-2.0005,-1.9725,-1.9519,-1.9668,-1.9443,-1.9219,-1.9043,-1.8643,-1.8247,-1.8037,-1.8008,-1.8008,-1.8008,-1.8008,-1.8008,-1.8008,-1.8008,-1.8144,-1.8395,-1.8777,-1.9276,-1.9824,-2.0677,-2.1262,-2.1557,-2.1987,-2.2197,-1.1715,-1.2105,-1.2403,-1.2789,-1.1892,-1.0845,0.0,-0.9474,-0.856,-0.8009,-0.7901,-0.7901,-0.7901,-0.8008,-0.8203,0.0,0.0,0.0,0.0,0.0,0.0,0.0,0.0,0.0,0.0,-1.5678,-1.5912,-1.6126,-1.6656,-1.6978,-1.7065,-1.7347,-1.7548,-1.7582,-1.8356,-1.8864,-1.9176,-2.0775,-2.17,-2.2064,-2.282,-2.3326,-2.3507,-2.3507,-2.3374,-2.3123,-2.284,-2.2483,0.0,-2.1806,-2.1696,-2.1696,-2.1696,-2.1696,-2.1696,-2.1696,-2.1696,-2.1696,-2.1696,-2.1696,-2.1696,-2.1696,-2.1696,-2.1559,-2.0906,-2.0613,-2.0374,-1.9677,-1.9393,-1.9356,-1.9595,-2.009,-2.068,-2.1495,-2.1696,-2.1696,-2.1696,-2.1502,-2.1344,-2.1484,-2.0963,-2.0476,-2.057,-2.0245,-2.0004,-2.0088,-1.985,-1.9736,-1.9879,-1.9703,-1.9545,-1.9418,-1.9163,-1.8812,-1.8418,-1.8271,-1.8159,-1.8159,-1.8076,-1.8008,-1.8008,-1.8008,-1.8008,-1.8008,-1.8462,-1.8821,-1.9011,-2.0215,-2.0901,-2.1135,-2.1862,-2.2197,-1.0232,-1.1191,-1.2312,-1.2318,-1.1516,-1.0617,0.0,-0.9474,-0.856,-0.8009,-0.7901,-0.7901,-0.7901,-0.7901,-0.7981,-0.8168,0.0,0.0,0.0,0.0,0.0,0.0,0.0,0.0,0.0,-1.5352,-1.5784,-1.5784,-1.6112,0.0,-1.6693,-1.7045,-1.734,-1.7569,-1.7635,-1.8146,-1.9176,-1.9228,-1.9797,-2.0936,-2.0936,-2.1301,-2.1944,-2.1944,-2.207,-2.2291,-2.2291,-2.2062,0.0,-2.1696,-2.1696,-2.1696,-2.1696,-2.1696,-2.1696,-2.1696,-2.1696,-2.1696,-2.1696,-2.1696,-2.1696,-2.1696,-2.1696,-2.1614,-2.1227,-2.0833,-2.0438,-1.9994,-1.9622,-1.9485,-2.0292,-2.047,-2.068,-2.1495,-2.1696,-2.1696,-2.1696,-2.1687,-2.1687,-2.1687,-2.1383,-2.097,-2.0576,-2.0338,-2.0062,-1.9662,-1.9784,-1.9902,-1.9893,-2.0137,-2.0091,-1.9658,-1.9761,-1.9727,-1.9307,-1.8841,-1.8598,-1.8598,-1.8208,-1.8008,-1.8008,-1.8008,-1.8008,-1.8008,-1.8008,-1.8327,-1.9011,-1.9737,-2.0452,-2.1135,-2.1862,-2.2197,-0.8901,-0.9284,-0.9623,-1.0239,-0.9862,-0.9295,-0.9217,-0.8812,-0.8315,-0.7973,-0.7901,-0.7901,-0.7901,-0.7901,-0.8042,-0.846,-0.8616,0.0,0.0,0.0,0.0,0.0,0.0,0.0,0.0,0.0,-1.5784,-1.5784,-1.6286,-1.6607,-1.67,-1.7174,-1.7488,-1.7582,-1.7582,-1.7733,-1.8094,-1.8819,-1.9273,-1.9458,-2.0217,-2.0586,-2.0638,-2.1318,-2.154,-2.1397,-2.1997,-2.2053,-2.1696,-2.1696,-2.1696,-2.1696,-2.1696,-2.1696,-2.1696,-2.1696,-2.1696,-2.1696,-2.1696,-2.1696,-2.1696,-2.1696,-2.1696,-2.1668,-2.1531,-2.1062,-2.0374,-1.9696,-1.9402,-1.943,-1.993,-2.0278,-2.0649,-2.1181,-2.1485,-2.1696,-2.1696,-2.1696,-2.1696,-2.1696,-2.1392,-2.0979,-2.0585,-2.0232,-1.9909,-1.9622,-1.9636,-1.9754,-1.9863,-1.9981,-2.0051,-2.0082,-2.014,-1.9926,-1.9346,-1.916,-1.9082,-1.9082,-1.8955,-1.8887,-1.8887,-1.8594,-1.8403,-1.8403,-1.812,-1.811,-1.8337,-1.9518,-2.072,-2.1862,-2.2092,-2.2197,0.0,-0.7913,-0.8176,-0.8724,-0.8514,-0.8232,-0.8384,-0.8184,-0.7985,-0.7901,-0.7901,-0.7901,-0.7901,-0.7901,-0.8009,-0.8333,-0.8493,0.0,0.0,0.0,0.0,0.0,0.0,0.0,0.0,-1.5906,-1.5974,-1.6005,-1.6433,-1.6707,-1.6707,-1.7054,-1.7248,-1.7248,-1.7468,-1.7528,-1.7474,-1.8137,-1.8285,-1.8024,-1.867,-1.9045,-1.9171,-1.9838,-2.0309,-2.0709,-2.1306,-2.159,0.0,-2.1696,-2.1696,-2.1651,-2.132,-2.141,-2.1597,-2.0862,-2.1087,-2.1642,-2.1275,-2.141,-2.1696,-2.1696,-2.1696,-2.1632,-2.133,-2.0882,-2.0347,-1.9531,-1.9301,-1.9402,-1.9783,-2.0186,-2.0622,-2.1007,-2.1429,-2.1696,-2.1696,-2.1696,-2.1696,-2.1696,-2.1485,-2.1218,-2.0814,-2.0369,-2.0017,-1.9734,-1.958,-1.9508,-1.9666,-1.9745,-1.9872,-2.0029,-2.0186,-2.013,-1.9702,-1.9582,-1.9531,-1.9531,-1.9375,-1.9287,-1.9287,-1.9023,-1.8851,-1.8851,-1.8623,-1.8496,-1.8496,-1.9723,-2.0925,-2.2052,-2.2157,-2.2197,0.0,-0.6885,-0.7587,-0.7619,-0.7441,-0.7333,-0.769,-0.7621,0.0,-0.7788,-0.7848,-0.7854,-0.7925,-0.7887,-0.7872,-0.8003,-0.8219,0.0,0.0,0.0,0.0,0.0,0.0,0.0,-1.5826,-1.6119,-1.6301,-1.6244,-1.654,-1.67,-1.6673,-1.6693,-1.6707,-1.6707,-1.7235,-1.744,-1.7172,-1.7166,-1.7018,-1.6673,-1.6673,-1.7014,-1.7635,-1.7731,-1.8589,0.0,-2.0158,-2.0673,-2.1508,-2.1508,-2.1508,-2.1419,-2.0529,-2.0718,-2.1275,-1.9484,-1.994,-2.1374,-2.0484,-2.0808,-2.1597,-2.1696,-2.1696,-2.154,-2.0726,-2.0521,-2.0347,-1.9531,-1.9301,-1.9393,-1.9747,-2.02,-2.0613,-2.0979,-2.141,-2.1696,-2.1696,-2.1696,-2.1696,-2.1696,-2.1696,-2.1559,-2.1181,-2.0805,-2.0429,-1.9994,-1.9641,-1.9384,-1.9384,-1.9561,-1.968,-1.9643,-2.0038,-2.0293,-2.0313,-2.0081,-1.9961,-1.9961,-1.96,-1.9375,-1.9375,-1.9346,-1.9336,-1.9336,-1.9307,-1.9323,-1.936,-2.0254,-2.1062,-2.1774,-2.2036,-2.2138,-0.4641,0.0,-0.5387,-0.5784,-0.5836,-0.5934,0.0,-0.6896,-0.7204,0.0,0.0,0.0,-0.8104,-0.7701,-0.7689,-0.892,-0.9166,-0.951,0.0,0.0,0.0,0.0,-1.4823,-1.5182,-1.5832,-1.6129,-1.6201,-1.6019,-1.6447,-1.6607,-1.6386,-1.6587,-1.6707,-1.6707,-1.684,-1.6881,-1.6807,-1.6807,-1.666,-1.6373,-1.6373,-1.6365,-1.6313,-1.7065,-1.7633,-1.8056,-1.8834,-1.9293,-1.9476,-1.9476,-1.9476,-1.9476,-1.9247,-1.9293,-1.9438,-1.8972,-1.9109,-1.9438,-1.9247,-1.9795,-2.0763,-2.1463,-2.1696,-2.154,-2.0726,-2.0521,-2.0347,-1.9531,-1.9301,-1.932,-1.9421,-1.998,-2.0539,-2.064,-2.1165,-2.1696,-2.1696,-2.1696,-2.1696,-2.1696,-2.1696,-2.1559,-2.1181,-2.1034,-2.0833,-2.0438,-2.0292,-2.0237,-2.0237,-2.0278,-2.0241,-2.009,-2.0143,-2.0252,-2.0293,-2.0401,-2.0449,-2.0449,-2.0361,-2.0302,-2.0302,-1.9941,-1.9766,-1.9766,-1.9453,-1.9568,-2.0078,-2.0286,-2.0761,-2.1501,-2.1562,-2.1609,-0.4177,-0.4406,-0.465,-0.496,-0.5012,-0.5181,-0.5798,0.0,0.0,0.0,0.0,0.0,0.0,0.0,0.0,0.0,-0.9354,0.0,0.0,0.0,0.0,0.0,-1.4814,-1.5054,0.0,-1.5783,-1.5845,-1.5718,-1.6205,-1.6388,-1.6133,-1.637,-1.6446,-1.6306,-1.6306,-1.6373,-1.6506,-1.6506,-1.6359,-1.6072,-1.6072,-1.5985,-1.5825,-1.6339,-1.6857,-1.7326,-1.7878,-1.838,-1.8788,-1.8788,-1.8788,-1.8742,-1.8288,-1.838,-1.8696,-1.777,-1.8002,-1.8742,-1.8288,-1.8788,-1.9749,-2.0718,-2.0926,-2.0757,-2.0577,-2.0393,-2.0118,-1.9476,-1.9301,-1.9301,-1.9301,-1.9907,-2.0521,-2.0521,-2.1101,-2.1696,-2.1696,-2.1696,-2.1696,-2.1696,-2.1696,-2.1623,-2.1394,-2.1236,-2.1034,-2.0824,-2.064,-2.0521,-2.0521,-2.0521,-2.048,-2.0343,-2.0272,-2.0189,-2.0245,-2.0252,-2.0372,-2.0605,-2.0605,-2.0605,-2.0605,-2.038,-2.0215,-2.0215,-2.0028,-2.0088,-2.0441,-2.0559,-2.0819,-2.1214,-2.1344,-2.1596,-0.415,-0.4436,-0.4684,-0.466,-0.4674,-0.4829,-0.5318,0.0,0.0,0.0,0.0,0.0,0.0,0.0,0.0,0.0,0.0,0.0,0.0,0.0,0.0,-1.4594,-1.4714,0.0,-1.5054,-1.5357,-1.5482,-1.5466,-1.5918,-1.6073,-1.5774,-1.6053,-1.6044,-1.5743,-1.5784,-1.5952,-1.6206,-1.6206,-1.6079,-1.5784,-1.5784,-1.5784,-1.5784,-1.5784,-1.6251,-1.7091,-1.7091,0.0,-1.8326,-1.8326,-1.8326,-1.8241,-1.7412,-1.7598,-1.8141,-1.6433,-1.6897,-1.8241,-1.7552,-1.7878,-1.8742,-1.9931,-2.0045,-1.9808,-2.0343,-2.0204,-1.9802,-1.9421,-1.9301,-1.932,-1.9384,-1.9952,-2.0539,-2.0594,-2.1147,-2.1696,-2.1696,-2.1696,-2.1696,-2.1696,-2.1696,-2.1696,-2.1696,-2.1438,-2.12,-2.12,-2.0915,-2.0662,-2.0662,-2.0662,-2.0677,-2.0613,-2.037,-2.0226,-2.0201,-1.9989,-2.0059,-2.045,-2.0489,-2.0489,-2.0489,-2.0527,-2.0566,-2.0566,-2.0566,-2.0605,-2.0605,-2.082,-2.0937,-2.0927,-2.1191,-2.164,-0.4146,-0.4436,-0.466,-0.4556,-0.4624,-0.4685,0.0,0.0,0.0,0.0,0.0,0.0,0.0,0.0,0.0,0.0,0.0,-1.1856,0.0,0.0,-1.3767,-1.4618,0.0,-1.4805,-1.5073,-1.5323,-1.5432,-1.5165,-1.5436,-1.5488,-1.5255,-1.5469,-1.5586,-1.5547,-1.573,-1.5804,-1.5899,-1.5899,-1.5872,-1.5784,-1.5784,-1.5784,-1.5784,-1.5784,-1.5879,-1.6015,0.0,-1.6109,-1.6244,-1.6244,-1.6244,-1.6244,-1.6109,-1.6103,-1.6197,-1.592,-1.6015,-1.6339,-1.7044,-1.7419,-1.7831,-1.9704,-2.0045,-1.9808,-2.0343,-2.0204,-1.9802,-1.9421,-1.9301,-1.9384,-1.9701,-2.0131,-2.0604,-2.0934,-2.1339,-2.1696,-2.1696,-2.1696,-2.1696,-2.1696,-2.1696,-2.1696,-2.1696,-2.1641,-2.1595,-2.1595,-2.1549,-2.1504,-2.1504,-2.1504,-2.1376,-2.1053,-2.0659,-2.0375,-2.0229,-1.9869,-1.9754,-1.9981,-2.002,-2.002,-2.002,-2.0225,-2.0342,-2.0342,-2.0489,-2.0605,-2.0605,-2.0643,-2.0652,-2.0652,-2.0698,-2.0773,-0.4018,-0.4257,-0.4446,-0.4593,-0.4758,-0.4911,-0.484,0.0,0.0,0.0,0.0,0.0,0.0,0.0,0.0,0.0,0.0,-1.2578,-1.3242,-1.3562,-1.3918,0.0,0.0,-1.4533,-1.466,-1.4759,-1.4808,-1.4686,-1.4922,-1.5017,-1.4892,-1.5124,-1.5356,-1.5493,-1.5588,-1.5689,-1.5784,-1.5784,-1.5784,-1.5784,-1.5784,-1.5784,-1.5784,-1.5784,-1.5784,-1.5784,0.0,-1.5784,-1.5784,-1.5784,-1.5784,-1.5784,-1.5784,-1.5784,-1.5784,-1.5784,-1.5784,-1.5872,-1.6346,-1.648,-1.6716,-1.8195,-1.8648,-1.8706,-1.9496,-1.9668,-1.9595,-1.9632,-1.96,-1.9687,-1.9838,-2.0383,-2.0879,-2.1062,-2.1429,-2.1696,-2.1696,-2.1696,-2.1696,-2.1696,-2.1696,-2.1696,-2.1696,-2.1696,-2.1696,-2.1696,-2.1696,-2.1696,-2.1696,-2.1696,-2.1623,-2.1421,-2.108,-2.0719,-2.0398,-2.0001,-1.9789,-1.9882,-1.9902,-1.9902,-1.9902,-2.002,-2.0069,-2.0069,-2.0303,-2.0459,-2.0459,-2.0527,-2.0605,-2.0605,-2.0605,-2.0828,-0.3918,-0.4107,-0.4291,-0.4616,0.0,-0.5015,-0.5083,0.0,0.0,0.0,0.0,0.0,0.0,0.0,0.0,-1.1251,-1.2337,-1.3037,-1.3459,-1.3791,-1.4075,-1.4274,-1.4298,-1.4298,-1.4298,-1.4298,-1.4298,-1.4298,-1.449,-1.4592,-1.4592,-1.4838,-1.5077,-1.5302,-1.5356,-1.5499,-1.573,-1.573,-1.5737,-1.5784,-1.5784,-1.5784,-1.5784,-1.5784,-1.5784,-1.5784,-1.5784,-1.5784,-1.5784,-1.5784,-1.5784,-1.5784,-1.5784,-1.5784,-1.5784,-1.5784,-1.5784,-1.5784,-1.5784,-1.5784,-1.5961,-1.6911,-1.7266,-1.747,-1.8392,-1.8721,-1.8851,-1.9162,-1.9383,-1.9618,-2.0076,-2.0649,-2.1135,-2.1236,-2.1502,-2.1696,-2.1696,-2.1696,-2.1696,-2.1696,-2.1696,-2.1696,-2.1696,-2.1696,-2.1696,-2.1696,-2.1696,-2.1696,-2.1696,-2.1696,-2.1696,-2.1696,-2.1355,-2.0906,-2.0378,-2.0058,-1.9872,-1.9773,-1.9745,-1.9745,-1.9745,-1.9784,-1.9833,-1.9833,-2.0069,-2.0225,-2.0303,-2.045,-2.0566,-2.0605,-2.0605,-2.0944,-0.3914,-0.4105,-0.4291,-0.4616,0.0,0.0,-0.5036,-0.51,0.0,0.0,0.0,0.0,0.0,0.0,0.0,-1.1802,-1.2777,-1.3471,-1.3507,0.0,-1.428,-1.4292,-1.4298,-1.4298,-1.4298,-1.4298,-1.4298,-1.4298,-1.4298,-1.4346,-1.4346,-1.4592,-1.4742,-1.4736,-1.4981,-1.5267,-1.554,-1.554,-1.5635,-1.5784,-1.5784,-1.5784,-1.5784,-1.5784,-1.5784,-1.5784,-1.5784,-1.5784,-1.5784,-1.5784,-1.5784,-1.5784,-1.5784,-1.5784,-1.5784,-1.5784,-1.5784,-1.5784,-1.5784,-1.5784,-1.592,-1.6685,-1.6675,-1.6514,-1.7222,-1.7333,-1.7259,-1.7291,-1.7778,-1.8733,-2.054,-2.1062,-2.1209,-2.1559,-2.1668,-2.1696,-2.1696,-2.1696,-2.1696,-2.1696,-2.1696,-2.1696,-2.1696,-2.1696,-2.1696,-2.1696,-2.1696,-2.1696,-2.1696,-2.1696,-2.1696,-2.1696,-2.1355,-2.0796,-1.9994,-1.9902,-1.9751,-1.9369,-1.9341,-1.9341,-1.9341,-1.9518,-1.9606,-1.9606,-1.9824,-2.0059,-2.0303,-2.0303,-2.042,-2.0605,-2.0605,-2.0644,-0.3796,-0.3991,-0.4237,-0.4616,0.0,0.0,0.0,0.0,0.0,0.0,0.0,0.0,0.0,0.0,-1.1249,-1.1997,-1.2922,-1.3568,-1.3737,-1.4069,-1.4298,-1.4298,-1.4298,-1.4298,-1.4298,-1.4298,-1.4298,-1.4298,-1.4298,-1.4298,-1.4298,-1.4394,-1.4544,-1.4688,-1.4627,-1.4722,-1.4991,-1.4863,-1.4779,-1.4871,-1.5511,-1.5784,-1.5784,-1.5784,-1.5784,-1.5784,-1.5784,-1.5784,-1.5784,-1.5784,-1.5784,-1.5784,-1.5784,-1.5784,-1.5784,-1.5784,-1.5784,-1.5784,-1.5784,-1.5712,-1.5584,-1.5879,-1.5993,-1.6023,-1.6277,-1.6603,-1.6935,-1.7363,-1.7688,-1.8265,-1.9808,-2.0404,-2.0802,-2.1516,-2.1696,-2.1696,-2.1696,-2.1696,-2.1696,-2.1696,-2.1696,-2.1696,-2.1696,-2.1696,-2.1696,-2.1696,-2.1696,-2.1696,-2.1696,-2.1696,-2.1696,-2.1696,-2.1355,-2.0989,-2.0686,-2.0438,-2.0085,-1.9714,-1.9448,-1.9301,-1.9301,-1.939,-1.9429,-1.9429,-1.9597,-1.9754,-1.9882,-2.0147,-2.0342,-2.042,-2.0527,-2.0605,-0.3705,-0.3923,-0.4201,0.0,0.0,0.0,0.0,0.0,0.0,0.0,0.0,0.0,0.0,0.0,0.0,0.0,-1.2922,-1.3453,-1.3634,-1.3882,-1.4051,-1.4051,-1.4051,-1.4051,-1.4051,-1.4051,-1.4051,-1.4051,-1.4051,-1.4051,-1.4051,-1.4051,-1.4145,-1.4339,-1.4161,-1.4201,-1.4425,-1.4287,-1.4231,-1.4321,-1.4989,-1.5365,-1.5411,-1.5598,-1.5691,-1.5698,-1.5744,-1.5784,-1.5771,-1.5732,-1.5691,-1.5705,-1.5792,-1.5784,-1.5784,-1.5784,-1.5784,-1.5764,-1.5678,-1.5565,-1.5364,-1.5184,-1.5236,-1.5383,-1.5291,-1.5666,-1.6249,-1.673,-1.6972,-1.7378,-1.8599,-1.9385,-1.9977,-2.0628,-2.0772,-2.0772,-2.0772,-2.0772,-2.0772,-2.0772,-2.0772,-2.0772,-2.0772,-2.1042,-2.1275,-2.1275,-2.1508,-2.1696,-2.1696,-2.1696,-2.1696,-2.1696,-2.1431,-2.1255,-2.1117,-2.086,-2.0484,-1.9921,-1.9659,-1.9439,-1.9311,-1.9301,-1.9301,-1.9301,-1.9429,-1.9557,-1.9606,-1.9912,-2.0147,-2.0303,-2.0459,-2.0527,-0.3635,-0.3904,0.0,0.0,0.0,0.0,0.0,0.0,0.0,0.0,0.0,0.0,-1.1513,0.0,0.0,-1.2229,-1.2728,-1.3083,-1.3083,-1.335,-1.3513,-1.3513,-1.3513,-1.3513,-1.3513,-1.3513,-1.3513,-1.3513,-1.3513,-1.3513,-1.3513,-1.3513,-1.3513,-1.3513,-1.3513,-1.3604,-1.3888,-1.3882,-1.4011,-1.4276,-1.427,-1.4405,-1.4604,-1.5166,-1.5391,-1.5411,-1.5698,-1.5778,-1.5758,-1.5518,-1.5398,-1.5431,-1.5718,-1.5784,-1.5784,-1.5784,-1.5784,-1.5785,-1.5498,-1.5391,-1.5291,-1.471,-1.4516,-1.4462,-1.4175,-1.4539,-1.5001,-1.5008,-1.5378,-1.6008,-1.7044,-1.801,-1.8788,-1.8788,-1.8788,-1.8788,-1.8788,-1.8788,-1.8788,-1.8788,-1.8788,-1.8788,-1.8788,-1.9613,-2.0294,-2.0294,-2.1087,-2.1696,-2.1696,-2.1696,-2.1696,-2.1696,-2.1696,-2.1522,-2.1145,-2.1117,-2.0778,-1.9948,-1.9893,-1.9701,-1.932,-1.9301,-1.9301,-1.9301,-1.9301,-1.939,-1.9606,-1.9606,-1.9833,-2.0303,-2.0303,-2.042,-0.3585,0.0,0.0,0.0,0.0,0.0,0.0,0.0,0.0,0.0,0.0,0.0,-0.99,0.0,0.0,-1.1216,-1.2336,-1.3083,-1.3083,-1.335,-1.3513,-1.3513,-1.3513,-1.3513,-1.3513,-1.3513,-1.3513,-1.3513,-1.3513,-1.3513,-1.3513,-1.3513,-1.3513,-1.3513,-1.3338,-1.3332,-1.361,-1.3227,-1.3271,-1.3734,-1.376,-1.3951,-1.4366,-1.4546,-1.4734,-1.4929,-1.5206,-1.5403,-1.5581,-1.5644,-1.5698,-1.5712,-1.5751,-1.5784,-1.5784,-1.5784,-1.5698,-1.5511,-1.5424,-1.5124,-1.475,-1.4576,-1.4382,-1.4202,-1.4115,-1.4208,-1.4479,-1.4894,-1.5129,-1.5409,-1.6047,-1.648,-1.703,-1.8465,-1.8788,-1.8788,-1.8788,-1.8788,-1.8788,-1.8788,-1.8788,-1.8788,-1.8788,-1.9613,-2.0294,-2.0294,-2.1087,-2.1696,-2.1696,-2.1696,-2.1696,-2.1696,-2.1696,-2.1641,-2.1513,-2.1504,-2.1156,-2.0351,-2.0296,-2.0026,-1.9329,-1.9301,-1.9301,-1.9301,-1.9301,-1.9341,-1.939,-1.9518,-1.9685,-1.9843,-2.0147,-2.0342,-0.3766,0.0,0.0,0.0,0.0,0.0,0.0,0.0,0.0,0.0,0.0,-0.7835,-0.9383,-0.9635,0.0,-1.0884,-1.1791,-1.2517,-1.2871,-1.3091,-1.3194,-1.3194,-1.3194,-1.3194,-1.3194,-1.3194,-1.3194,-1.3194,-1.3194,-1.3194,-1.3194,-1.3302,-1.3357,-1.3357,-1.3308,-1.3357,-1.3513,-1.3194,-1.3194,-1.3513,-1.3485,-1.3664,-1.4011,-1.43,-1.4492,-1.4657,-1.4958,-1.5136,-1.5141,-1.537,-1.5444,-1.5338,-1.5438,-1.5484,-1.5484,-1.5484,-1.5378,-1.5211,-1.509,-1.4816,-1.4502,-1.4389,-1.4229,-1.4088,-1.4088,-1.4168,-1.4355,-1.4874,-1.5095,-1.5244,-1.5712,-1.5784,-1.6109,-1.7311,-1.7591,-1.7591,-1.7591,-1.7591,-1.7591,-1.7591,-1.7591,-1.7591,-1.7591,-1.8419,-1.9247,-1.9658,-2.0862,-2.1696,-2.1696,-2.1696,-2.1696,-2.1696,-2.1696,-2.1696,-2.1696,-2.1696,-2.1348,-2.0525,-2.0521,-2.0154,-1.9329,-1.9301,-1.9301,-1.9301,-1.9301,-1.9301,-1.9301,-1.9429,-1.9518,-1.9606,-1.9872,-2.0069,0.0,0.0,0.0,0.0,0.0,0.0,0.0,0.0,0.0,0.0,0.0,-0.8353,-0.9456,-0.9515,-0.9752,-1.0854,-1.1192,-1.158,-1.2443,-1.2662,-1.2705,-1.2705,-1.2705,-1.2705,-1.2705,-1.2705,-1.2711,-1.2741,-1.2741,-1.2753,-1.2777,-1.3019,-1.3157,-1.3157,-1.3393,-1.3525,-1.355,-1.3525,-1.3538,-1.3586,-1.3562,-1.3562,-1.3592,-1.4207,-1.4545,-1.4583,-1.4915,-1.4889,-1.4655,-1.4921,-1.4839,-1.463,-1.4862,-1.4938,-1.4918,-1.4918,-1.4899,-1.4839,-1.4522,-1.4415,-1.4349,-1.4133,-1.4039,-1.4046,-1.4046,-1.4233,-1.4543,-1.487,-1.515,-1.5431,-1.5651,-1.5784,-1.5784,-1.5784,-1.5778,-1.5784,-1.5784,-1.5784,-1.5784,-1.5784,-1.5784,-1.5784,-1.5784,-1.6629,-1.7645,-1.8788,-2.0447,-2.1597,-2.1687,-2.1696,-2.1696,-2.1696,-2.1696,-2.1678,-2.1641,-2.1632,-2.1293,-2.0521,-2.0466,-2.0118,-1.9329,-1.9301,-1.9301,-1.9301,-1.9301,-1.9301,-1.9301,-1.9301,-1.939,-1.9557,-1.9597,-1.9715,0.0,-0.4229,0.0,0.0,0.0,0.0,0.0,0.0,0.0,0.0,-0.7332,-0.7406,-0.7658,-0.8245,-0.88,-0.9056,-1.0323,-1.137,-1.158,-1.2229,-1.2705,-1.2705,-1.2705,-1.2705,-1.2705,-1.2705,-1.2795,-1.3019,-1.2987,-1.3127,-1.3332,-1.3399,-1.3429,-1.3429,-1.3483,-1.361,-1.3821,-1.3622,-1.3719,-1.4129,-1.3918,-1.393,-1.4117,-1.3859,-1.3995,-1.4397,-1.4671,-1.4854,-1.4994,-1.5035,-1.491,-1.4693,-1.4739,-1.465,-1.4456,-1.4456,-1.4269,-1.407,-1.3962,-1.3795,-1.3651,-1.3587,-1.3652,-1.3779,-1.3779,-1.3952,-1.4246,-1.4588,-1.4868,-1.5086,-1.5233,-1.5499,-1.5778,-1.5588,-1.5689,-1.5784,-1.5784,-1.5784,-1.5784,-1.5784,-1.5784,-1.5784,-1.5784,-1.6629,-1.7924,-1.9704,-2.0348,-2.0853,-2.1597,-2.1696,-2.1696,-2.1696,-2.1696,-2.1559,-2.1273,-2.1245,-2.0906,-2.0067,-2.0021,-1.9824,-1.932,-1.9301,-1.9301,-1.9301,-1.9301,-1.9301,-1.9301,-1.9301,-1.9301,-1.939,-1.9518,-1.9636,0.0,0.0,0.0,0.0,0.0,0.0,0.0,0.0,0.0,0.0,-0.7166,-0.7339,-0.7265,-0.7651,-0.8072,-0.8424,-0.9323,-1.0284,-1.1149,-1.1714,-1.2186,-1.2662,-1.2705,-1.2753,-1.2892,-1.2904,-1.3019,-1.329,-1.3308,-1.3369,-1.3507,-1.3634,-1.3701,-1.3701,-1.3827,-1.3954,-1.4093,-1.396,-1.4026,-1.4292,-1.4159,-1.4165,-1.4286,-1.4014,-1.406,-1.4294,-1.4435,-1.4592,-1.4729,-1.4694,-1.4521,-1.4303,-1.4301,-1.4116,-1.3874,-1.3874,-1.3778,-1.3614,-1.3614,-1.3512,-1.3398,-1.3398,-1.3483,-1.3568,-1.3568,-1.3743,-1.403,-1.4327,-1.4598,-1.4864,-1.507,-1.5267,-1.5458,-1.5315,-1.5547,-1.5784,-1.5784,-1.5784,-1.5784,-1.5784,-1.5784,-1.5784,-1.5784,-1.6629,-1.7645,-1.8696,-1.9293,-1.9749,-2.0266,-2.0311,-2.0492,-2.0997,-2.1042,-2.106,-2.1101,-2.1108,-2.0769,-1.9939,-1.9893,-1.9701,-1.932,-1.9301,-1.9301,-1.9301,-1.9301,-1.9301,-1.9301,-1.9301,-1.9301,-1.9301,-1.9429,-1.9478,0.0,0.0,0.0,0.0,0.0,0.0,0.0,0.0,0.0,0.0,-0.7282,-0.7522,-0.7439,-0.7439,-0.764,-0.8261,-0.8504,-0.912,-1.0698,-1.1053,-1.1489,-1.2449,-1.2579,-1.2717,-1.3125,-1.3149,-1.3302,-1.3562,-1.3586,-1.3586,-1.3586,-1.3833,-1.3954,-1.3906,-1.4159,-1.4298,-1.4298,-1.4298,-1.4298,-1.4298,-1.4298,-1.4298,-1.4298,-1.4298,-1.4298,-1.4298,-1.4298,-1.4298,-1.428,-1.4251,-1.4075,-1.3818,-1.3755,-1.3554,-1.3264,-1.3264,-1.3264,-1.3264,-1.3264,-1.3264,-1.3264,-1.3264,-1.3307,-1.3355,-1.3355,-1.3508,-1.3805,-1.4084,-1.4305,-1.4617,-1.4899,-1.5035,-1.5083,-1.5035,-1.5363,-1.5689,-1.5689,-1.5737,-1.573,-1.5689,-1.5737,-1.5778,-1.5778,-1.648,-1.7091,-1.7279,-1.8017,-1.8603,-1.8788,-1.8788,-1.9109,-1.9931,-2.0022,-2.0159,-2.0506,-2.0513,-2.0225,-1.9616,-1.9571,-1.9498,-1.932,-1.9301,-1.9301,-1.9301,-1.9301,-1.9301,-1.9301,-1.9301,-1.9301,-1.9301,-1.9301,-1.9301,0.0,0.0,0.0,0.0,0.0,0.0,0.0,0.0,0.0,0.0,-0.7265,-0.7443,-0.7419,-0.7482,-0.761,-0.7683,-0.8409,-0.8999,-0.9276,-1.0016,-1.0887,-1.189,-1.2026,-1.2411,-1.3369,-1.3465,-1.3568,-1.3833,-1.3851,-1.3851,-1.3851,-1.4099,-1.4141,-1.3912,-1.4159,-1.4298,-1.4298,-1.4298,-1.4298,-1.4298,-1.4298,-1.4298,-1.4298,-1.4298,-1.4298,-1.4298,-1.4298,-1.4298,-1.4292,-1.4304,-1.4001,-1.3559,-1.3522,-1.324,-1.279,-1.279,-1.279,-1.279,-1.279,-1.279,-1.279,-1.279,-1.296,-1.3143,-1.3143,-1.3296,-1.352,-1.3874,-1.4076,-1.4266,-1.4361,-1.4742,-1.5035,-1.479,-1.4981,-1.5178,-1.5178,-1.5363,-1.5452,-1.5226,-1.5363,-1.5588,-1.5784,-1.5927,-1.6298,-1.7185,-1.7419,-1.7831,-1.8696,-1.8788,-1.8834,-1.8972,-1.9018,-1.8789,-1.8191,-1.8135,-1.8176,-1.8247,-1.8236,-1.8589,-1.9262,-1.9301,-1.9301,-1.9301,-1.9301,-1.9301,-1.9301,-1.9301,-1.9301,-1.9301,-1.9301,-1.9301,0.0,0.0,0.0,0.0,0.0,0.0,0.0,0.0,0.0,-0.661,-0.6887,-0.7122,-0.7122,-0.7244,-0.7316,-0.7238,-0.772,-0.8287,-0.883,-0.9288,-0.9954,-1.093,-1.1574,-1.2132,-1.2777,-1.3356,-1.3719,-1.3688,-1.3688,-1.3556,-1.3248,-1.3338,-1.335,-1.3236,-1.3344,-1.3405,-1.3405,-1.3405,-1.3483,-1.364,-1.3936,-1.4081,-1.4081,-1.4226,-1.4298,-1.4298,-1.4298,-1.4298,-1.4298,-1.4298,-1.4075,-1.3719,-1.3574,-1.3278,-1.2922,-1.2765,-1.2705,-1.2729,-1.2886,-1.2837,-1.2729,-1.2886,-1.2924,-1.2881,-1.2881,-1.3139,-1.3477,-1.3634,-1.3955,-1.4284,-1.4279,-1.4496,-1.464,-1.4496,-1.4592,-1.464,-1.464,-1.4981,-1.522,-1.5131,-1.522,-1.5356,-1.5588,-1.5635,-1.5825,-1.6393,-1.644,-1.6622,-1.7077,-1.7124,-1.7311,-1.7924,-1.7971,-1.7949,-1.7992,-1.7989,-1.7818,-1.7523,-1.7936,-1.8333,-1.8576,-1.9054,-1.9301,-1.9301,-1.9301,-1.9301,-1.9301,-1.9301,-1.9301,-1.9301,-1.9301,-1.9301,0.0,0.0,0.0,0.0,0.0,0.0,0.0,0.0,0.0,0.0,-0.6389,-0.6641,-0.668,-0.6864,-0.7017,-0.6957,-0.7125,-0.749,-0.8241,-0.8443,-0.8892,-0.9853,-1.0622,-1.1278,-1.1769,-1.2711,-1.3195,-1.3007,-1.3174,-1.3103,-1.2626,-1.2668,-1.2674,-1.2608,-1.2668,-1.2705,-1.2705,-1.2705,-1.2813,-1.2981,-1.3556,-1.3809,-1.3815,-1.4147,-1.4298,-1.4298,-1.4298,-1.4298,-1.4298,-1.4298,-1.4141,-1.3888,-1.3688,-1.3453,-1.32,-1.2988,-1.291,-1.294,-1.3151,-1.3085,-1.2946,-1.3157,-1.3085,-1.291,-1.291,-1.3194,-1.3525,-1.3598,-1.3894,-1.4214,-1.428,-1.4298,-1.4298,-1.4298,-1.4298,-1.4298,-1.4394,-1.464,-1.4933,-1.5083,-1.5035,-1.5077,-1.5356,-1.5404,-1.5452,-1.5594,-1.5689,-1.5737,-1.5737,-1.5784,-1.6109,-1.6857,-1.6904,-1.7054,-1.7455,-1.747,-1.7308,-1.6912,-1.7634,-1.8137,-1.8256,-1.8923,-1.9356,-1.9457,-1.9356,-1.9301,-1.9301,-1.9301,-1.9301,-1.9301,-1.9301,-1.9301,0.0,0.0,0.0,0.0,0.0,0.0,0.0,0.0,0.0,-0.5631,-0.5814,-0.5976,-0.6114,-0.6515,-0.6877,-0.7041,-0.6925,-0.6938,-0.7153,-0.7204,-0.7602,-0.8648,-0.8823,-0.9262,-1.0318,-1.1148,-1.1624,-1.1613,-1.2312,-1.2626,-1.2349,-1.2572,-1.259,-1.2343,-1.2572,-1.2705,-1.2705,-1.2705,-1.2711,-1.2735,-1.3272,-1.3538,-1.3556,-1.4063,-1.4298,-1.4298,-1.4298,-1.4298,-1.4298,-1.4298,-1.4141,-1.3906,-1.3888,-1.3725,-1.3495,-1.3477,-1.3471,-1.3477,-1.3489,-1.3483,-1.3477,-1.3489,-1.3483,-1.3471,-1.3471,-1.3495,-1.3568,-1.3815,-1.3906,-1.3984,-1.4232,-1.4298,-1.4298,-1.4298,-1.4298,-1.4394,-1.464,-1.4496,-1.449,-1.4981,-1.4885,-1.479,-1.5083,-1.5131,-1.5131,-1.5131,-1.5356,-1.554,-1.554,-1.5683,-1.5825,-1.5872,-1.5879,-1.5806,-1.5556,-1.5536,-1.5752,-1.6301,-1.6842,-1.774,-1.8991,-1.9218,-1.9494,-1.9847,-1.9503,-1.9301,-1.9301,-1.9301,-1.9301,-1.9301,-1.9301,-1.9301,0.0,0.0,0.0,0.0,0.0,0.0,0.0,0.0,-0.522,-0.5396,-0.5525,-0.5685,-0.587,-0.6198,-0.6428,-0.6511,-0.6623,-0.6697,-0.678,-0.6947,-0.7224,-0.7621,-0.8269,-0.8838,-0.9226,-1.0139,-1.0585,-1.0258,-1.0952,-1.1231,-1.079,-1.1357,-1.1636,-1.1546,-1.163,-1.1685,-1.1685,-1.182,-1.191,-1.1956,-1.2487,-1.2747,-1.2765,-1.3471,-1.3797,-1.3815,-1.4153,-1.4298,-1.4298,-1.4298,-1.4244,-1.4141,-1.3972,-1.3845,-1.3749,-1.3574,-1.3513,-1.3538,-1.3707,-1.3652,-1.3544,-1.3713,-1.3652,-1.3513,-1.3513,-1.3634,-1.3785,-1.3882,-1.4026,-1.4177,-1.4274,-1.4298,-1.4298,-1.4298,-1.4298,-1.4346,-1.4442,-1.4394,-1.4346,-1.4544,-1.4496,-1.4544,-1.479,-1.4838,-1.4885,-1.5083,-1.5172,-1.522,-1.522,-1.5452,-1.5588,-1.5588,-1.5737,-1.5738,-1.5678,-1.5671,-1.5691,-1.5707,-1.704,-1.7938,-1.8197,-1.9384,-2.0035,-1.9893,-1.9747,-1.9577,-1.9301,-1.9301,-1.9301,-1.9301,-1.9301,-1.9301,-0.2512,0.0,0.0,0.0,0.0,0.0,0.0,0.0,-0.4756,-0.5001,-0.521,-0.5398,-0.5536,-0.5695,-0.5902,-0.6084,-0.6219,-0.6339,-0.6466,-0.6675,-0.6847,-0.6879,-0.7506,-0.7947,-0.7892,-0.8761,-0.9197,-0.8849,-0.9587,-0.9855,-0.9516,-1.025,-1.0812,-1.1074,-1.1111,-1.1111,-1.1111,-1.1298,-1.1351,-1.1357,-1.1926,-1.2186,-1.2204,-1.2916,-1.3344,-1.3538,-1.3882,-1.4135,-1.4298,-1.4298,-1.4298,-1.428,-1.4105,-1.4039,-1.4014,-1.3839,-1.3779,-1.3803,-1.3978,-1.3924,-1.3803,-1.3978,-1.3918,-1.3779,-1.3779,-1.39,-1.4039,-1.4039,-1.4165,-1.4298,-1.4298,-1.4298,-1.4298,-1.4298,-1.4298,-1.4298,-1.4298,-1.4298,-1.4298,-1.4298,-1.4298,-1.4346,-1.4544,-1.4592,-1.464,-1.479,-1.4885,-1.4981,-1.4981,-1.522,-1.5356,-1.5356,-1.5499,-1.5594,-1.5689,-1.5683,-1.5651,-1.5551,-1.6894,-1.7821,-1.806,-1.9316,-2.012,-2.0287,-2.0021,-1.9756,-1.9512,-1.9366,-1.9301,-1.9301,-1.9301,-1.9301,0.0,0.0,0.0,0.0,0.0,0.0,0.0,0.0,-0.417,-0.4449,-0.4738,-0.5008,-0.5064,-0.5087,-0.5287,-0.5873,-0.5818,-0.5821,-0.6239,-0.6277,-0.635,-0.6491,-0.6511,-0.646,-0.6327,-0.6995,-0.745,-0.745,-0.8212,-0.8665,-0.8665,-0.9463,-1.0255,-1.1037,-1.1074,-1.1111,-1.1111,-1.1111,-1.1111,-1.1117,-1.1648,-1.1902,-1.1874,-1.2439,-1.297,-1.3471,-1.3495,-1.3797,-1.4274,-1.4292,-1.4298,-1.4298,-1.4298,-1.4298,-1.4298,-1.4298,-1.4298,-1.4298,-1.4298,-1.4298,-1.4298,-1.4298,-1.4298,-1.4298,-1.4298,-1.4298,-1.4298,-1.4298,-1.4298,-1.4298,-1.4298,-1.4298,-1.4298,-1.4298,-1.4298,-1.4298,-1.4298,-1.4298,-1.4298,-1.4298,-1.4298,-1.4298,-1.4298,-1.4298,-1.4298,-1.4298,-1.4538,-1.4688,-1.4688,-1.4933,-1.5083,-1.5083,-1.5083,-1.5226,-1.5452,-1.5493,-1.5588,-1.5784,-1.638,-1.7348,-1.8688,-1.8949,-1.9687,-2.095,-2.0212,-1.9811,-1.9784,-1.9463,-1.9301,-1.9301,-1.9301,-1.9301,-0.2566,0.0,0.0,0.0,0.0,0.0,0.0,0.0,0.0,-0.4262,-0.4336,-0.4453,-0.4799,-0.4868,-0.4969,-0.5241,-0.5473,-0.5671,-0.5787,-0.6067,-0.6367,-0.6464,-0.6511,-0.6542,-0.6573,-0.6718,-0.6767,0.0,-0.7437,-0.7825,-0.7825,-0.916,-0.9997,-1.0218,-1.0812,-1.1111,-1.1111,-1.1111,-1.1111,-1.1111,-1.1262,-1.1335,-1.1353,-1.1896,-1.2181,-1.2397,-1.2976,-1.3423,-1.3761,-1.4141,-1.4298,-1.4298,-1.4298,-1.4298,-1.4298,-1.4298,-1.4298,-1.4298,-1.4298,-1.4298,-1.4298,-1.4298,-1.4298,-1.4298,-1.4298,-1.4298,-1.4298,-1.4298,-1.4298,-1.4298,-1.4298,-1.4298,-1.4298,-1.4298,-1.4298,-1.4298,-1.4298,-1.4298,-1.4298,-1.4298,-1.4298,-1.4298,-1.4298,-1.4298,-1.4298,-1.4298,-1.4346,-1.4394,-1.4394,-1.464,-1.479,-1.479,-1.4987,-1.5131,-1.522,-1.5404,-1.554,-1.5588,-1.6537,-1.7323,-1.7692,-1.8476,-1.8803,-1.864,-1.8442,-1.8078,-1.7589,-1.874,-1.9301,-1.9301,-1.9301,-1.9301,0.0,0.0,0.0,0.0,0.0,0.0,-0.3517,-0.3545,0.0,0.0,-0.4056,-0.4094,-0.4372,-0.4466,-0.4539,-0.4697,-0.5018,-0.5332,-0.5497,-0.5839,-0.6159,-0.6261,-0.6383,-0.646,-0.6508,-0.6528,-0.6511,-0.6511,-0.6863,-0.7239,-0.7551,-0.8478,-0.9174,-0.954,-1.0297,-1.0661,-1.0661,-1.0972,-1.1111,-1.1111,-1.1111,-1.1111,-1.1123,-1.1437,-1.1709,-1.195,-1.2421,-1.2898,-1.3387,-1.3797,-1.4099,-1.4298,-1.4298,-1.4298,-1.4298,-1.4298,-1.4298,-1.4298,-1.4298,-1.4298,-1.4298,-1.4298,-1.4298,-1.4298,-1.4298,-1.4298,-1.4298,-1.4298,-1.4298,-1.4298,-1.4298,-1.4298,-1.4298,-1.4298,-1.4298,-1.4298,-1.4298,-1.4298,-1.4298,-1.4298,-1.4298,-1.4298,-1.4298,-1.4298,-1.4298,-1.4298,-1.4298,-1.4298,-1.4298,-1.4448,-1.4544,-1.4544,-1.4688,-1.479,-1.4933,-1.507,-1.5255,-1.5493,-1.615,-1.6763,-1.7279,-1.7878,-1.8078,-1.7933,-1.7775,-1.7355,-1.6698,-1.8078,-1.8935,-1.9301,-1.9301,-1.9301,0.0,0.0,0.0,0.0,0.0,0.0,-0.3477,-0.3471,-0.346,0.0,-0.38,-0.3851,-0.3878,-0.3973,-0.4118,-0.424,-0.454,-0.4897,-0.5304,-0.5571,-0.5801,-0.5931,-0.6118,-0.624,-0.6257,-0.6373,-0.6447,-0.6491,-0.6491,-0.6802,-0.7509,-0.7628,-0.8068,-0.8905,-0.9612,-0.9993,-0.998,-1.0587,-1.0877,-1.0848,-1.0848,-1.0873,-1.0962,-1.0962,-1.13,-1.1796,-1.1826,-1.2259,-1.2969,-1.3302,-1.3755,-1.4256,-1.4286,-1.4298,-1.4298,-1.4298,-1.4298,-1.4298,-1.4298,-1.4298,-1.4298,-1.4298,-1.4298,-1.4298,-1.4298,-1.4298,-1.4298,-1.4298,-1.4298,-1.4298,-1.4298,-1.4298,-1.4298,-1.4298,-1.4298,-1.4298,-1.4298,-1.4298,-1.4298,-1.4298,-1.4298,-1.4298,-1.4298,-1.4298,-1.4298,-1.4298,-1.4298,-1.4298,-1.4298,-1.4298,-1.4298,-1.4298,-1.4298,-1.4394,-1.464,-1.4688,-1.4879,-1.5397,-1.5493,-1.5961,-1.7044,-1.7102,-1.7344,-1.7895,-1.7505,-1.7047,-1.6576,-1.7513,-1.8407,-1.9143,-1.9262,-1.9301,0.0,0.0,0.0,0.0,0.0,0.0,-0.3319,-0.3349,-0.3414,0.0,-0.3487,-0.3564,-0.3783,-0.3838,-0.3893,-0.3957,-0.4224,-0.4565,-0.5019,-0.5258,-0.5451,-0.5576,-0.5623,-0.5746,-0.6051,-0.6083,-0.6178,-0.634,-0.634,-0.6418,-0.6571,-0.7184,-0.7688,-0.798,-0.8744,-0.9196,-0.9287,-0.941,-0.9419,-0.9325,-0.9325,-0.9627,-1.0143,-1.0143,-1.0532,-1.128,-1.1471,-1.1778,-1.2151,-1.2668,-1.3302,-1.4002,-1.4214,-1.4298,-1.4298,-1.4298,-1.4298,-1.4298,-1.4298,-1.4298,-1.4298,-1.4298,-1.4298,-1.4298,-1.4298,-1.4298,-1.4298,-1.4298,-1.4298,-1.4298,-1.4298,-1.4298,-1.4298,-1.4298,-1.4298,-1.4298,-1.4298,-1.4298,-1.4298,-1.4298,-1.4298,-1.4298,-1.4298,-1.4298,-1.4298,-1.4298,-1.4298,-1.4298,-1.4298,-1.4298,-1.4298,-1.4298,-1.4298,-1.4346,-1.4394,-1.4592,-1.4736,-1.4831,-1.5255,-1.5588,-1.5825,-1.5785,-1.575,-1.5673,-1.5073,-1.5063,-1.5677,-1.722,-1.8078,-1.8287,-1.8975,-1.9301,0.0,0.0,0.0,-0.3528,0.0,0.0,0.0,-0.3441,-0.3436,-0.358,-0.3482,-0.3455,-0.3665,-0.3649,-0.3646,-0.374,-0.3909,-0.4154,-0.4406,-0.476,-0.5048,-0.5153,-0.5231,-0.5392,-0.5641,-0.5793,-0.5987,-0.6146,-0.6146,-0.6146,-0.6146,-0.6636,-0.6943,-0.7099,-0.7946,-0.8437,-0.8496,-0.8905,-0.9054,-0.8992,-0.8925,-0.9062,-0.9386,-0.9319,-0.9722,-1.0524,-1.0656,-1.1093,-1.173,-1.2294,-1.291,-1.3556,-1.3948,-1.4183,-1.4298,-1.4298,-1.4298,-1.4298,-1.4298,-1.4298,-1.4298,-1.4298,-1.4298,-1.4298,-1.4298,-1.4298,-1.4298,-1.4298,-1.4298,-1.4298,-1.4298,-1.4298,-1.4298,-1.4298,-1.4298,-1.4298,-1.4298,-1.4298,-1.4298,-1.4298,-1.4298,-1.4298,-1.4298,-1.4298,-1.4298,-1.4298,-1.4298,-1.4298,-1.4298,-1.4298,-1.4298,-1.4298,-1.4298,-1.4298,-1.4298,-1.4442,-1.4544,-1.4688,-1.4927,-1.5166,-1.5309,-1.5224,-1.5047,-1.475,-1.4315,-1.4334,-1.4741,-1.609,-1.6944,-1.7391,-1.8247,-1.8647,0.0,0.0,0.0,0.0,0.0,-0.3593,0.0,0.0,0.0,0.0,0.0,0.0,0.0,0.0,0.0,0.0,0.0,0.0,0.0,-0.4247,0.0,-0.4605,-0.4775,-0.4928,-0.5099,-0.5425,-0.5672,-0.5905,-0.5858,-0.5888,-0.5946,-0.6105,-0.6289,-0.6467,-0.7189,-0.7632,-0.7688,-0.835,-0.8676,-0.8676,-0.8554,-0.8577,-0.8692,-0.8579,-0.8952,-0.9715,-0.9673,-1.0144,-1.0983,-1.1474,-1.2098,-1.2806,-1.3567,-1.4063,-1.4298,-1.4298,-1.4298,-1.4298,-1.4298,-1.4298,-1.4298,-1.4298,-1.4298,-1.4298,-1.4298,-1.4298,-1.4298,-1.4298,-1.4298,-1.4298,-1.4298,-1.4298,-1.4298,-1.4298,-1.4298,-1.4298,-1.4298,-1.4298,-1.4298,-1.4298,-1.4298,-1.4298,-1.4298,-1.4298,-1.4298,-1.4298,-1.4298,-1.4298,-1.4298,-1.4298,-1.4298,-1.4298,-1.4298,-1.4298,-1.4298,-1.4298,-1.4394,-1.4592,-1.4688,-1.479,-1.5035,-1.4933,-1.4663,-1.4312,-1.4074,-1.3997,-1.3997,-1.4734,-1.5553,-1.6453,-1.7513,-1.7997,0.0,0.0,0.0,0.0,-0.4008,0.0,0.0,0.0,-0.366,-0.3338,0.0,0.0,0.0,0.0,0.0,0.0,0.0,0.0,-0.3786,-0.387,-0.3936,-0.3982,-0.4027,-0.417,-0.4464,-0.4711,-0.5035,-0.5519,-0.5375,-0.5446,-0.5813,-0.5844,-0.5986,-0.6313,-0.6418,-0.6659,-0.7026,-0.7115,-0.7154,-0.7154,-0.7137,-0.743,-0.8012,-0.7868,-0.8256,-0.8993,-0.8894,-0.8903,-0.9023,-0.9336,-1.0212,-1.1519,-1.3235,-1.4063,-1.4298,-1.4298,-1.4298,-1.4298,-1.4298,-1.4298,-1.4298,-1.4298,-1.4298,-1.4298,-1.4298,-1.4298,-1.4298,-1.4298,-1.4298,-1.4298,-1.4298,-1.4298,-1.4298,-1.4298,-1.4298,-1.4298,-1.4298,-1.4298,-1.4298,-1.4298,-1.4298,-1.4298,-1.4298,-1.4298,-1.4298,-1.4298,-1.4298,-1.4298,-1.4298,-1.4298,-1.4298,-1.4298,-1.4298,-1.4298,-1.4298,-1.4298,-1.4298,-1.4346,-1.4592,-1.4694,-1.4742,-1.4463,-1.4053,-1.354,-1.3496,-1.3568,-1.3737,-1.3857,-1.4482,-1.5594,-1.722,-1.7997,0.0,0.0,0.0,0.0,0.0,0.0,-0.3592,0.0,-0.366,0.0,0.0,0.0,0.0,0.0,0.0,0.0,-0.3371,0.0,0.0,0.0,-0.3566,0.0,0.0,0.0,-0.4252,-0.4286,-0.4463,-0.4876,-0.4835,-0.494,-0.5269,-0.5467,-0.5609,-0.5716,-0.6084,-0.631,-0.637,-0.6713,-0.6886,-0.6886,-0.6886,-0.7062,-0.7326,-0.7162,-0.7515,-0.8203,-0.813,-0.8344,-0.8718,-0.8999,-0.9537,-1.0285,-1.1286,-1.2682,-1.4069,-1.4069,-1.4165,-1.4298,-1.4298,-1.4298,-1.4298,-1.4298,-1.4298,-1.4298,-1.4298,-1.4298,-1.4298,-1.4298,-1.4298,-1.4298,-1.4298,-1.4298,-1.4298,-1.4298,-1.4298,-1.4298,-1.4298,-1.4298,-1.4298,-1.4298,-1.4298,-1.4298,-1.4298,-1.4298,-1.4298,-1.4298,-1.4298,-1.4298,-1.4298,-1.4298,-1.4298,-1.4298,-1.4298,-1.4298,-1.4298,-1.4298,-1.4298,-1.4298,-1.4254,-1.4243,-1.4229,-1.3929,-1.3667,-1.3404,-1.3398,-1.344,-1.3525,-1.3525,-1.3815,-1.444,-1.5835,-1.678,-0.172,0.0,0.0,0.0,0.0,0.0,0.0,0.0,0.0,0.0,0.0,0.0,0.0,0.0,0.0,0.0,0.0,-0.3204,0.0,-0.3188,0.0,0.0,0.0,0.0,0.0,-0.3926,-0.3998,-0.4375,-0.4345,-0.4471,-0.4868,-0.5146,-0.5286,-0.53,-0.5795,-0.602,-0.5906,-0.6374,-0.6675,-0.6715,-0.6715,-0.6734,-0.6764,-0.6619,-0.6823,-0.7274,-0.7264,-0.7549,-0.7983,-0.8138,-0.8524,-0.9018,-0.9241,-1.0721,-1.2761,-1.2995,-1.3252,-1.3463,-1.3463,-1.3463,-1.3463,-1.3463,-1.3463,-1.3463,-1.3463,-1.3661,-1.3854,-1.3854,-1.4052,-1.4298,-1.4298,-1.4298,-1.4298,-1.4298,-1.4298,-1.4298,-1.4298,-1.4298,-1.4298,-1.4298,-1.4298,-1.4298,-1.4298,-1.4298,-1.4298,-1.4298,-1.4298,-1.4298,-1.4298,-1.4298,-1.4298,-1.4298,-1.4298,-1.4298,-1.4298,-1.4298,-1.4298,-1.4298,-1.4051,-1.3884,-1.3804,-1.3521,-1.333,-1.3228,-1.3222,-1.3222,-1.3313,-1.3313,-1.3434,-1.3652,-1.4768,-1.5677,0.0,0.0,0.0,-0.1839,0.0,0.0,0.0,0.0,-0.383,0.0,0.0,0.0,0.0,0.0,0.0,0.0,0.0,0.0,0.0,0.0,0.0,0.0,0.0,0.0,0.0,-0.3578,-0.3641,0.0,-0.3896,-0.4073,-0.4855,-0.4922,-0.5019,-0.5296,-0.5454,-0.5596,-0.5715,-0.5854,-0.6062,-0.6328,-0.6328,-0.635,-0.6419,-0.6291,-0.623,-0.6254,-0.6194,-0.6154,-0.6178,-0.6041,-0.6649,-0.7637,-0.7542,-0.8388,-0.9849,-1.0754,-1.1183,-1.1317,-1.1317,-1.1317,-1.1317,-1.1317,-1.1317,-1.1317,-1.1317,-1.1999,-1.2732,-1.2732,-1.3511,-1.4298,-1.4298,-1.4298,-1.4298,-1.4298,-1.4298,-1.4298,-1.4298,-1.4298,-1.4298,-1.4298,-1.4298,-1.4298,-1.4298,-1.4298,-1.4298,-1.4298,-1.4298,-1.4298,-1.4298,-1.4298,-1.4298,-1.4298,-1.4298,-1.4298,-1.4298,-1.4298,-1.4298,-1.4298,-1.4051,-1.3791,-1.3525,-1.326,-1.2988,-1.2711,-1.2705,-1.2833,-1.31,-1.31,-1.3222,-1.344,-1.451,-1.5179,-0.0072,-0.0073,-0.011,-0.0869,-0.125,-0.1521,-0.2008,0.0,0.0,0.0,0.0,0.0,0.0,0.0,0.0,0.0,0.0,0.0,0.0,0.0,0.0,0.0,0.0,0.0,0.0,0.0,0.0,-0.3658,-0.3636,0.0,-0.4282,-0.4473,-0.4605,-0.4695,-0.5104,-0.5274,-0.5223,-0.5677,-0.5965,-0.6105,-0.6239,-0.635,-0.6384,-0.6342,-0.6275,-0.6193,-0.6187,-0.6083,-0.5907,-0.586,-0.6062,-0.6398,-0.647,-0.692,-0.7833,-0.9764,-1.0682,-1.0974,-1.1126,-1.1219,-1.1219,-1.1219,-1.1219,-1.1219,-1.1219,-1.1414,-1.1707,-1.1707,-1.195,-1.2247,-1.2247,-1.2247,-1.2436,-1.3071,-1.3216,-1.3414,-1.4148,-1.4298,-1.4298,-1.4298,-1.4298,-1.4298,-1.4298,-1.4298,-1.4298,-1.4298,-1.4298,-1.4298,-1.4298,-1.4298,-1.4298,-1.4298,-1.4298,-1.4298,-1.4298,-1.4298,-1.4298,-1.4298,-1.3888,-1.3604,-1.3519,-1.3085,-1.2801,-1.2705,-1.2705,-1.2747,-1.2839,-1.2839,-1.2966,-1.3222,-1.3555,-1.4174,0.0761,0.073,0.0612,0.0,-0.0314,-0.061,-0.1209,-0.1578,-0.1919,0.0,0.0,0.0,0.0,0.0,0.0,0.0,0.0,0.0,0.0,-0.3037,0.0,0.0,0.0,0.0,0.0,0.0,-0.3281,-0.3452,-0.3427,0.0,0.0,-0.4201,-0.4365,-0.4406,-0.4847,-0.5015,-0.4909,-0.5354,-0.5652,-0.5785,-0.5912,-0.6045,-0.6169,-0.6169,-0.6125,-0.6005,-0.6085,-0.5984,-0.5778,-0.573,-0.5682,-0.5615,-0.5756,-0.5966,-0.643,-0.8313,-0.92,-0.955,-0.9698,-0.9797,-0.9797,-0.9797,-0.9797,-0.9797,-0.9797,-1.0038,-1.0382,-1.0435,-1.0681,-1.097,-1.117,-1.1121,-1.1268,-1.1999,-1.2193,-1.2339,-1.3076,-1.3221,-1.3318,-1.3661,-1.3709,-1.3854,-1.425,-1.4298,-1.4298,-1.4298,-1.4298,-1.4298,-1.4298,-1.4298,-1.4298,-1.4298,-1.4298,-1.4298,-1.4298,-1.4298,-1.4298,-1.4298,-1.3803,-1.3513,-1.3513,-1.2994,-1.2705,-1.2705,-1.2705,-1.2705,-1.2705,-1.2705,-1.279,-1.2966,-1.2966,-1.3336]}]]